     2              OBSERVATION DATA                        RINEX VERSION / TYPE
DAT2RIN 1.01d Dan Johnson 12SEP96 4:29:19 GMT               PGM / RUN BY / DATE
Mojave '96 team Central Washington U                        OBSERVER / AGENCY
15926 TRIMBLE 4000SSI Nav 7.09 Sig 3.03                     REC # / TYPE / VERS
63793 TRIMBLE CHOKE                                         ANT # / TYPE
3188 WONOGA                                                 MARKER NAME
 -2422501.0000 -4530818.0000  3771649.0000                  APPROX POSITION XYZ
        0.0814        0.0000        0.0000                  ANTENNA: DELTA H/E/N
     1     1     0                                          WAVELENGTH FACT L1/2
     5    L1    C1    P1    L2    P2                        # / TYPES OF OBSERV
    30                                                      INTERVAL
  1996     9     4     0     0   30.000000                  TIME OF FIRST OBS
  1996     9     4    23    59    0.000000                  TIME OF LAST OBS
                                                            COMMENT
PANGA GPS Data Analysis Center                              COMMENT
Department of Geology                                       COMMENT
Central Washington University                               COMMENT
Ellensburg, WA 98926                                        COMMENT
                                                            COMMENT
http://www.panga.cwu.edu                                    COMMENT
ftp://panga.cwu.edu                                         COMMENT
                                                            COMMENT
    25                                                      # OF SATELLITES
           1   742   742     0   740   740                  PRN / # OF OBS
           2   845   846     0   839   839                  PRN / # OF OBS
           3   901   901     0   894   894                  PRN / # OF OBS
           4   758   759     0   751   751                  PRN / # OF OBS
           5   705   713     0   695   695                  PRN / # OF OBS
           6   776   777     0   766   766                  PRN / # OF OBS
           7   736   736     0   734   734                  PRN / # OF OBS
           9   867   867     0   860   860                  PRN / # OF OBS
          10   866   869     0   843   843                  PRN / # OF OBS
          14   695   697     0   690   690                  PRN / # OF OBS
          15   871   871     0   864   864                  PRN / # OF OBS
          16   870   872     0   835   835                  PRN / # OF OBS
          17   839   841     0   828   828                  PRN / # OF OBS
          18   762   763     0   749   749                  PRN / # OF OBS
          19   848   848     0   830   830                  PRN / # OF OBS
          21   851   852     0   843   843                  PRN / # OF OBS
          22   879   881     0   846   846                  PRN / # OF OBS
          23   793   793     0   790   790                  PRN / # OF OBS
          24   695   695     0   692   692                  PRN / # OF OBS
          25   651   653     0   643   643                  PRN / # OF OBS
          26   931   932     0   914   914                  PRN / # OF OBS
          27   806   807     0   791   791                  PRN / # OF OBS
          28   689     1   691   689   689                  PRN / # OF OBS
          29   846   846     0   834   834                  PRN / # OF OBS
          31   924   924     0   898   898                  PRN / # OF OBS
                                                            END OF HEADER
 96  9  4  0  0 30.0000000  0  6  1 14 15 21 25 29
  16412600.07010  22289828.85900                  12887558.20050  22289832.07040
  -1992137.33710  23723161.80500                  -1427977.75850  23723166.84440
  -5179081.29910  21099056.21900                  -3934670.71550  21099059.91040
  26987276.97210  22953345.21900                   2829659.01750  22953349.29740
  -5430645.97110  21050510.00000                  -4160793.40950  21050512.59040
  -1353371.89010  23848631.28900                   -999912.14350  23848635.54340
 96  9  4  0  1  0.0000000  0  6  1 14 15 21 25 29
  16539288.67800  22313936.91400                  12986276.58340  22313940.51240
  -2019954.62200  23717869.01600                  -1449653.54240  23717873.28140
  -5155261.21000  21103588.72700                  -3916109.61040  21103592.38340
  27117901.64400  22978201.93800                   2931444.46840  22978206.46140
  -5405304.56200  21055332.18800                  -4141046.84740  21055334.64840
  -1370754.13900  23845324.42200                  -1013456.72940  23845327.58640
 96  9  4  0  1 30.0000000  0  6  1 14 15 21 25 29
  16666060.11100  22338060.26600                  13085059.49940  22338064.02740
  -2047797.61800  23712569.65600                  -1471349.35840  23712575.00040
  -5130891.36000  21108226.02300                  -3897120.11740  21108229.72740
  27248712.79400  23003094.59400                   3033375.18940  23003098.68440
  -5379503.12000  21060241.93800                  -4120941.81340  21060244.63340
  -1387994.25600  23842043.28900                  -1026890.55940  23842047.54340
 96  9  4  0  2  0.0000000  0  6  1 14 15 21 25 29
  16792958.57000  22362208.75000                  13183941.39940  22362212.10240
  -2075621.84500  23707276.60900                  -1493030.55740  23707280.81640
  -5105933.36500  21112975.84400                  -3877672.33440  21112979.59440
  27379739.74300  23028028.29700                   3135474.05440  23028032.75040
  -5353207.99200  21065245.53900                  -4100452.09240  21065248.19940
  -1405060.96700  23838795.56300                  -1040189.23040  23838798.59840
 96  9  4  0  2 30.0000000  0  6  1 14 15 21 25 29
  16920018.89100  22386387.16400                  13282949.42940  22386390.68040
  -2103386.92600  23701991.87500                  -1514665.63740  23701997.18440
  -5080356.75600  21117842.86700                  -3857742.51440  21117846.44140
  27511010.49400  23053008.14100                   3237762.91140  23053012.14840
  -5326381.94900  21070350.60900                  -4079548.66740  21070353.30540
  -1421938.06500  23835584.82000                  -1053340.15940  23835590.64540
 96  9  4  0  3  0.0000000  0  6  1 14 15 21 25 29
  17047218.36000  22410592.70300                  13382065.87940  22410596.14840
  -2131095.89200  23696719.03100                  -1536257.01540  23696722.57040
  -5054171.83400  21122825.28100                  -3837338.67440  21122829.03140
  27642517.90800  23078033.71900                   3340236.17140  23078037.14140
  -5299032.69100  21075554.94500                  -4058237.54640  21075557.35940
  -1438657.36400  23832402.34400                  -1066368.14140  23832405.74240
 96  9  4  0  3 30.0000000  0  6  1 14 15 21 25 29
  17174504.25300  22434814.63300                  13481249.67540  22434818.33640
  -2158799.13900  23691446.59400                  -1557843.93040  23691451.16440
  -5027417.15800  21127917.08600                  -3816490.88040  21127920.93040
  27774237.66100  23103098.78100                   3442874.92140  23103103.65640
  -5271191.73600  21080853.14100                  -4036543.28140  21080855.64840
  -1455253.94100  23829244.36700                  -1079300.50240  23829247.03940
 96  9  4  0  4  0.0000000  0  6  1 14 15 21 25 29
  17301869.92700  22459050.97700                  13580495.63240  22459054.69140
  -2186503.00500  23686175.26600                  -1579431.31240  23686179.91840
  -5000086.19400  21133117.93000                  -3795194.02640  21133121.63340
  27906191.42900  23128208.33600                   3545695.96840  23128213.09440
  -5242856.76800  21086244.82000                  -4014464.07340  21086247.37540
  -1471717.10500  23826111.66400                  -1092128.88540  23826116.14140
 96  9  4  0  4 30.0010000  0  6  1 14 15 21 25 29
  17429337.87500  22483307.31700                  13679821.29540  22483311.10340
  -2214180.78400  23680908.91900                  -1600998.37040  23680912.49340
  -4972137.64700  21138435.98100                  -3773415.93740  21138439.70840
  28038441.60900  23153374.43500                   3648748.01840  23153379.31040
  -5213976.54200  21091740.74700                  -3991959.99140  21091743.20840
  -1487991.93400  23823014.63800                  -1104810.53840  23823017.08740
 96  9  4  0  5  0.0010000  0  6  1 14 15 21 25 29
  17556892.35700  22507580.36400                  13779214.37640  22507584.09140
  -2241840.06700  23675644.85600                  -1622551.02840  23675650.13040
  -4943576.47700  21143870.98900                  -3751160.48540  21143874.79840
  28170978.19300  23178596.51300                   3752023.22840  23178601.08340
  -5184548.09000  21097340.66900                  -3969028.72140  21097343.02440
  -1504066.80800  23819956.12200                  -1117336.35940  23819959.14640
 96  9  4  0  5 30.0010000  0  6  1 14 15 21 25 29
  17684533.48700  22531869.42700                  13878674.97840  22531872.63840
  -2269504.58800  23670381.02100                  -1644107.75840  23670385.47440
  -4914414.08800  21149420.70800                  -3728436.54640  21149424.47040
  28303794.78300  23203870.46600                   3855516.64940  23203875.02440
  -5154585.10400  21103042.31000                  -3945680.93140  21103044.92340
  -1519949.52300  23816933.01300                  -1129712.48440  23816936.31740
 96  9  4  0  6  0.0010000  0  6  1 14 15 21 25 29
  17812284.41000  22556179.88000                  13978221.13540  22556183.41940
  -2297148.41600  23665119.92700                  -1665648.35440  23665123.81740
  -4884631.64700  21155088.02100                  -3705229.44940  21155091.74740
  28436901.67300  23229199.15300                   3959236.25640  23229202.81040
  -5124066.30800  21108849.91900                  -3921900.04340  21108852.54440
  -1535634.77500  23813947.31000                  -1141934.71040  23813951.39940
 96  9  4  0  6 30.0010000  0  6  1 14 15 21 25 29
  17940159.92300  22580513.81700                  14077864.37640  22580517.18140
  -2324746.21300  23659869.31700                  -1687153.08740  23659872.16540
  -4854223.52100  21160874.69200                  -3681534.80840  21160878.58340
  28570280.99200  23254580.34100                   4063168.14340  23254585.34540
  -5092976.46600  21114766.27100                  -3897674.18840  21114768.82540
  -1551131.35100  23810999.59100                  -1154009.92140  23811003.56340
 96  9  4  0  7  0.0010000  0  6  1 14 15 21 25 29
  18068090.76300  22604858.20800                  14177550.73140  22604861.84140
  -2352378.49900  23654609.88800                  -1708684.70140  23654613.82540
  -4823273.74700  21166764.33300                  -3657418.10140  21166768.06040
  28703821.65000  23279992.80200                   4167225.75640  23279996.63440
  -5061414.10000  21120772.20800                  -3873080.13340  21120774.84540
  -1566540.96500  23808066.34900                  -1166017.39640  23808071.06040
 96  9  4  0  7 30.0010000  0  6  1 14 15 21 25 29
  18196159.47900  22629229.07500                  14277344.51740  22629232.62640
  -2379953.69100  23649362.52800                  -1730171.82540  23649366.30240
  -4791689.01100  21172774.51300                  -3632806.61840  21172778.23940
  28837609.46200  23305451.41900                   4271475.95440  23305457.23140
  -5029298.94700  21126883.53600                  -3848055.33540  21126885.96240
  -1581769.44800  23805169.42700                  -1177883.67940  23805174.26740
 96  9  4  0  8  0.0010000  0  6  1 14 15 21 25 29
  18324331.13600  22653619.66100                  14377218.51640  22653622.95440
  -2407491.56300  23644122.97400                  -1751629.84940  23644127.00540
  -4759493.23200  21178901.07500                  -3607718.99840  21178904.93140
  28971612.87200  23330951.93500                   4375894.15140  23330956.82140
  -4996649.73200  21133096.65300                  -3822614.38240  21133099.14940
  -1596831.31500  23802302.86400                  -1189620.19140  23802306.88440
 96  9  4  0  8 30.0010000  0  6  1 14 15 21 25 29
  18452622.02400  22678032.79400                  14477185.42640  22678036.26340
  -2434982.94500  23638890.52100                  -1773051.69940  23638895.17340
  -4726665.38700  21185148.26300                  -3582138.85440  21185152.01340
  29105858.06900  23356497.11400                   4480500.74840  23356502.32940
  -4963463.44700  21139411.49700                  -3796754.93540  21139414.25140
  -1611696.81300  23799474.01300                  -1201203.63640  23799478.16140
 96  9  4  0  9  0.0010000  0  6  1 14 15 21 25 29
  18581032.34700  22702467.92700                  14577245.40340  22702471.70040
  -2462431.71100  23633668.02100                  -1794440.31740  23633673.01340
  -4693192.72400  21191517.53600                  -3556056.26540  21191521.28640
  29240373.42200  23382096.05200                   4585317.84940  23382101.57140
  -4929729.47700  21145830.99700                  -3770468.72140  21145833.52840
  -1626348.25700  23796686.06700                  -1212620.30740  23796690.63840
 96  9  4  0  9 30.0010000  0  6  1 14 15 21 25 29
  18709480.65900  22726910.54400                  14677334.97740  22726914.35340
  -2489898.13700  23628440.56700                  -1815842.69540  23628444.08340
  -4659145.43400  21197996.28600                  -3529525.91240  21198000.09540
  29375101.26000  23407732.88800                   4690300.55340  23407737.39940
  -4895495.35300  21152345.70800                  -3743792.77240  21152348.09940
  -1640857.73700  23793924.13800                  -1223926.36640  23793928.16940
 96  9  4  0 10  0.0010000  0  6  1 14 15 21 25 29
  18838013.57900  22751369.95800                  14777490.48140  22751373.57940
  -2517328.13400  23623221.60600                  -1837216.68440  23623226.23540
  -4624480.93000  21204592.91100                  -3502514.60940  21204596.84940
  29510086.00300  23433420.06000                   4795483.38040  23433424.77140
  -4860712.87200  21158964.48900                  -3716689.53540  21158966.96240
  -1655200.82200  23791195.42700                  -1235102.75140  23791199.85640
 96  9  4  0 10 30.0010000  0  6  1 14 15 21 25 29
  18966671.80100  22775852.31000                  14877743.61540  22775856.21240
  -2544675.49600  23618016.57500                  -1858526.28940  23618020.79440
  -4589159.74000  21211314.46600                  -3474991.58840  21211318.45040
  29645373.13400  23459164.40300                   4900901.89940  23459168.06040
  -4825349.83400  21165693.91900                  -3689133.91440  21165696.62640
  -1669352.01900  23788502.53600                  -1246129.61940  23788507.03640
 96  9  4  0 11  0.0010000  0  6  1 14 15 21 25 29
  19095376.35700  22800343.87200                  14978032.86040  22800347.84540
  -2572005.64600  23612817.53600                  -1879822.48640  23612821.50940
  -4553258.83100  21218146.37200                  -3447016.86340  21218150.77840
  29780883.39900  23484950.43500                   5006494.26840  23484955.59140
  -4789468.76100  21172521.68500                  -3661174.62640  21172524.09940
  -1683396.23600  23785830.07500                  -1257073.12340  23785833.50940
 96  9  4  0 11 30.0010000  0  6  1 14 15 21 25 29
  19224194.73200  22824857.48900                  15078410.80240  22824861.22840
  -2599259.93100  23607629.61400                  -1901059.56640  23607633.42340
  -4516720.65700  21225098.97400                  -3418545.56940  21225102.95840
  29916661.23300  23510788.07500                   5112295.13240  23510793.29040
  -4753017.70000  21179458.06000                  -3632771.18940  21179460.49740
  -1697274.51900  23783188.99700                  -1267887.32540  23783192.48940
 96  9  4  0 12  0.0010000  0  6  1 14 15 21 25 29
  19353152.77100  22849397.06000                  15178897.55940  22849401.07940
  -2626432.68700  23602459.13000                  -1922233.12640  23602463.60640
  -4479526.19000  21232176.95000                  -3389562.86940  21232180.70040
  30052716.87600  23536678.53600                   5218312.47240  23536683.15340
  -4716002.36400  21186501.48100                  -3603928.06040  21186504.28240
  -1710955.80600  23780585.98100                  -1278548.02140  23780589.93140
 96  9  4  0 12 30.0010000  0  6  1 14 15 21 25 29
  19482204.33600  22873955.52800                  15279457.20340  22873958.85640
  -2653591.18600  23597291.34100                  -1943395.55440  23597295.53640
  -4441722.26100  21239370.88800                  -3360105.26340  21239374.84940
  30188999.60800  23562613.16900                   5324506.76140  23562617.43540
  -4678468.05200  21193644.57500                  -3574680.53540  21193647.01340
  -1724468.75900  23778013.99700                  -1289077.55540  23778018.22840
 96  9  4  0 13  0.0010000  0  6  1 14 15 21 25 29
  19611338.60200  22898529.23100                  15380081.28040  22898532.84140
  -2680755.78600  23592121.45000                  -1964562.75040  23592125.77440
  -4403319.83600  21246678.61400                  -3330181.29240  21246682.44640
  30325488.99500  23588586.92700                   5430862.07140  23588592.16540
  -4640417.35400  21200885.60600                  -3545030.62840  21200888.09140
  -1737819.56000  23775473.86400                  -1299480.73540  23775477.75540
 96  9  4  0 13 30.0010000  0  6  1 14 15 21 25 29
  19740585.77300  22923122.73100                  15480793.34840  22923126.83340
  -2707886.48000  23586958.74700                  -1985703.52840  23586963.31740
  -4364283.27500  21254106.98900                  -3299763.19540  21254110.90340
  30462214.59900  23614604.17700                   5537401.43040  23614609.31040
  -4601825.15600  21208229.26300                  -3514958.77940  21208231.68840
  -1750955.23500  23772973.68500                  -1309716.29140  23772977.70440
 96  9  4  0 14  0.0010000  0  6  1 14 15 21 25 29
  19869877.20900  22947726.35600                  15581539.89340  22947730.00140
  -2735033.73200  23581792.74700                  -2006857.21740  23581796.40340
  -4324662.82600  21261646.63800                  -3268890.11540  21261650.42340
  30599137.43000  23640659.66900                   5644094.52540  23640664.29840
  -4562743.15300  21215666.31000                  -3484505.26240  21215669.16940
  -1763922.88100  23770506.65300                  -1319820.89340  23770510.28640
 96  9  4  0 14 30.0010000  0  6  1 14 15 21 25 29
  19999222.62300  22972340.36400                  15682328.51140  22972343.88040
  -2762163.20900  23576631.09900                  -2027997.04140  23576635.45840
  -4284439.74100  21269300.46600                  -3237547.45240  21269304.35640
  30736286.32100  23666758.70000                   5750963.72940  23666763.31740
  -4523143.55000  21223201.69200                  -3453648.42240  21223204.28240
  -1776707.34800  23768072.36400                  -1329782.79040  23768075.56340
 96  9  4  0 15  0.0010000  0  6  1 14 15 21 25 29
  20128659.58500  22996971.73900                  15783188.46440  22996975.43140
  -2789208.78700  23571484.34900                  -2049071.49640  23571488.16940
  -4243568.51900  21277078.21600                  -3205699.74740  21277082.03640
  30873702.91400  23692908.09900                   5858041.55640  23692912.35340
  -4482985.03800  21230843.38000                  -3422356.07040  21230845.84140
  -1789272.77000  23765681.91100                  -1339573.99540  23765685.80240
 96  9  4  0 15 30.0010000  0  6  1 14 15 21 25 29
  20258150.95000  23021613.20800                  15884090.79940  23021617.12240
  -2816203.55700  23566347.66900                  -2070106.36340  23566351.85340
  -4202085.46200  21284972.08300                  -3173375.28240  21284975.92740
  31011356.81900  23719102.80200                   5965304.26340  23719108.41540
  -4442316.45100  21238582.50500                  -3390666.25440  21238585.10640
  -1801668.80700  23763323.00500                  -1349233.20240  23763326.96640
 96  9  4  0 16  0.0010000  0  6  1 14 15 21 25 29
  20387769.20200  23046278.91100                  15985092.02540  23046282.22840
  -2843086.70200  23561231.04400                  -2091054.24240  23561234.98140
  -4159926.44200  21292994.58300                  -3140524.10440  21292998.47440
  31149326.32200  23745357.49700                   6072812.92640  23745362.52440
  -4401064.79600  21246432.54400                  -3358522.10340  21246435.06340
  -1813849.83700  23761004.70000                  -1358724.86440  23761008.89640
 96  9  4  0 16 30.0010000  0  6  1 14 15 21 25 29
  20517493.53900  23070964.31000                  16086175.90740  23070968.10640
  -2869867.67900  23556133.91900                  -2111922.50340  23556138.13840
  -4117116.20800  21301141.13800                  -3107165.48140  21301145.01740
  31287574.15800  23771664.85600                   6180538.43740  23771670.93840
  -4359250.15100  21254389.57500                  -3325939.25340  21254391.97840
  -1825850.67000  23758721.38000                  -1368076.13440  23758724.70840
 96  9  4  0 17  0.0010000  0  6  1 14 15 21 25 29
  20647299.51500  23095665.56000                  16187323.40140  23095669.62640
  -2896578.46200  23551052.09900                  -2132736.07540  23551056.13040
  -4073681.68800  21309406.79400                  -3073320.40740  21309410.47440
  31426063.80300  23798019.07500                   6288452.40040  23798023.62240
  -4316904.06000  21262447.99700                  -3292942.29140  21262450.48140
  -1837711.97700  23756464.81000                  -1377318.65940  23756468.41940
 96  9  4  0 17 30.0010000  0  6  1 14 15 21 25 29
  20777197.89600  23120384.34100                  16288542.90440  23120387.90340
  -2923218.31300  23545982.20800                  -2153494.36540  23545986.67340
  -4029609.49900  21317793.28600                  -3038978.44140  21317797.13040
  31564811.81500  23824421.06000                   6396567.70340  23824426.69640
  -4274022.18900  21270607.88000                  -3259527.83840  21270610.31740
  -1849416.31500  23754236.85600                  -1386438.88840  23754240.07940
 96  9  4  0 18  0.0020000  0  6  1 14 15 21 25 29
  20907193.46200  23145121.24400                  16389838.12540  23145125.60440
  -2949779.93500  23540927.53300                  -2174191.70940  23540931.72940
  -3984883.08800  21326304.49400                  -3004126.69740  21326308.45540
  31703825.60200  23850874.52500                   6504890.07840  23850880.04540
  -4230580.46100  21278874.53300                  -3225677.13240  21278876.95940
  -1860929.04500  23752045.89300                  -1395409.80040  23752049.95940
 96  9  4  0 18 30.0020000  0  6  1 14 15 21 25 29
  21037261.29000  23169872.82200                  16491189.67640  23169876.33840
  -2976278.48600  23535885.76000                  -2194839.88540  23535889.72140
  -3939513.47900  21334938.32200                  -2968773.76640  21334942.20140
  31843057.79100  23877370.79900                   6613382.59840  23877375.27540
  -4186597.77800  21287244.00200                  -3191404.91040  21287246.73240
  -1872252.06900  23749891.79100                  -1404232.91240  23749895.35440
 96  9  4  0 19  0.0020000  0  6  1 14 15 21 25 29
  21167368.93400  23194631.54900                  16592572.22840  23194635.54540
  -3002782.29200  23530842.55700                  -2215492.16340  23530846.95140
  -3893538.96200  21343686.47100                  -2932949.46540  21343690.47940
  31982473.55100  23903900.37700                   6722018.22440  23903905.14640
  -4142113.67500  21295709.10400                  -3156741.96440  21295711.56440
  -1883421.17500  23747765.48600                  -1412936.06540  23747769.62340
 96  9  4  0 19 30.0020000  0  6  1 14 15 21 25 29
  21297545.93000  23219403.33000                  16694008.82840  23219407.29140
  -3029273.92500  23525802.45500                  -2236134.94140  23525806.19340
  -3846935.96100  21352555.01800                  -2896635.44340  21352558.92040
  32122098.21300  23930470.24400                   6830816.61340  23930475.08440
  -4097098.91300  21304275.49400                  -3121665.52040  21304277.83840
  -1894401.00600  23745676.93900                  -1421491.73640  23745680.74840
 96  9  4  0 20  0.0020000  0  6  1 14 15 21 25 29
  21427777.98100  23244185.84600                  16795488.32840  23244189.76040
  -3055759.39500  23520760.72100                  -2256772.93340  23520764.45940
  -3799728.99600  21361538.13500                  -2859850.80040  21361542.07240
  32261910.02100  23957075.08800                   6939760.81740  23957081.32240
  -4051559.05000  21312941.11900                  -3086179.90340  21312943.70940
  -1905224.14500  23743616.76000                  -1429925.30540  23743620.14640
 96  9  4  0 20 30.0020000  0  6  1 14 15 21 25 29
  21558120.24700  23268988.57200                  16897053.71140  23268992.41640
  -3082174.40700  23515734.36100                  -2277356.03140  23515738.00640
  -3751863.90700  21370646.55700                  -2822553.33440  21370650.35440
  32401968.97800  23983727.70500                   7048897.61340  23983731.19740
  -4005436.03500  21321718.18900                  -3050239.88640  21321720.72140
  -1915852.27200  23741594.38500                  -1438206.91840  23741597.42040
 96  9  4  0 21  0.0020000  0  6  1 14 15 21 25 29
  21688540.80500  23293807.33000                  16998680.09740  23293811.33840
  -3108526.31300  23510719.60400                  -2297889.94340  23510723.58840
  -3703364.97100  21379875.57200                  -2784761.96440  21379879.47540
  32542277.97400  24010427.68900                   7158229.24640  24010431.85040
  -3958751.37300  21330601.92400                  -3013862.22440  21330604.56140
  -1926314.22800  23739603.71300                  -1446359.06540  23739607.17040
 96  9  4  0 21 30.0020000  0  6  1 14 15 21 25 29
  21819007.20200  23318634.11100                  17100342.21740  23318637.96740
  -3134793.03700  23505721.78300                  -2318357.46740  23505726.45940
  -3654243.88700  21389222.94700                  -2746485.79340  21389226.77940
  32682826.93500  24037173.16600                   7267747.87040  24037177.37340
  -3911512.58500  21339590.93200                  -2977052.77440  21339593.54540
  -1936625.71300  23737642.13500                  -1454393.94240  23737646.27140
 96  9  4  0 22  0.0020000  0  6  1 14 15 21 25 29
  21949546.67600  23343474.98600                  17202061.26240  23343478.79540
  -3160925.72300  23500747.89300                  -2338720.57840  23500751.65440
  -3604450.08800  21398698.08800                  -2707685.43640  21398702.00240
  32823662.91900  24063973.97100                   7377490.11740  24063978.69340
  -3863676.57900  21348694.01800                  -2939777.95640  21348696.46740
  -1946733.49300  23735717.87700                  -1462270.09840  23735721.54540
 96  9  4  0 22 30.0020000  0  6  1 14 15 21 25 29
  22080097.12600  23368317.61900                  17303788.86840  23368321.58040
  -3186985.09200  23495789.07200                  -2359026.54240  23495793.20940
  -3554026.48200  21408293.93900                  -2668394.32140  21408297.77140
  32964737.69900  24090819.42400                   7487418.47940  24090823.83040
  -3815298.49700  21357899.99400                  -2902080.74240  21357902.42040
  -1956667.60200  23733827.41600                  -1470010.91940  23733831.49440
 96  9  4  0 23  0.0020000  0  6  1 14 15 21 25 29
  22210655.20300  23393162.22900                  17405522.40840  23393166.21340
  -3212988.43000  23490841.29900                  -2379288.85040  23490845.09640
  -3502993.12400  21418005.18900                  -2628628.07240  21418009.16240
  33106025.98400  24117705.56400                   7597513.17840  24117710.48640
  -3766402.57800  21367204.36100                  -2863980.02140  21367206.85740
  -1966440.49700  23731967.99400                  -1477626.13440  23731971.21740
 96  9  4  0 23 30.0020000  0  6  1 14 15 21 25 29
  22341280.23600  23418019.64300                  17507308.12240  23418023.36940
  -3238906.93900  23485908.92400                  -2399485.06940  23485913.15440
  -3451303.01800  21427841.39300                  -2588350.06740  21427845.20140
  33247563.11400  24144639.07200                   7707801.79640  24144643.68940
  -3716940.07000  21376617.01800                  -2825437.80240  21376619.42040
  -1975997.58800  23730148.74400                  -1485073.17740  23730151.96740
 96  9  4  0 24  0.0020000  0  6  1 14 15 21 25 29
  22471917.50600  23442878.94700                  17609103.37740  23442882.82640
  -3264837.43600  23480974.22100                  -2419690.62040  23480977.95940
  -3399035.40600  21437787.76800                  -2547622.06840  21437791.58840
  33389272.69400  24171605.61900                   7818224.75740  24171611.17440
  -3666999.44300  21386120.21300                  -2786523.02040  21386122.77940
  -1985417.19800  23728356.22100                  -1492413.11040  23728360.10040
 96  9  4  0 24 30.0020000  0  6  1 14 15 21 25 29
  22602610.02600  23467748.99400                  17710941.68840  23467752.38140
  -3290744.91600  23476043.36100                  -2439878.24340  23476047.14640
  -3346167.82800  21447847.83800                  -2506426.55540  21447851.74040
  33531178.73200  24198609.76800                   7928800.88340  24198614.63140
  -3616543.98300  21395721.54900                  -2747207.07340  21395724.06840
  -1994696.41100  23726590.51800                  -1499643.63340  23726594.20940
 96  9  4  0 25  0.0020000  0  6  1 14 15 21 25 29
  22733399.81900  23492638.03300                  17812855.78640  23492641.80740
  -3316592.02600  23471125.29100                  -2460018.82040  23471129.33440
  -3292667.77000  21458028.90800                  -2464738.20440  21458032.67040
  33673320.51400  24225657.81400                   8039560.61640  24225662.95940
  -3565547.70300  21405426.05700                  -2707469.71140  21405428.31840
  -2003822.92300  23724853.76000                  -1506755.16440  23724857.47540
 96  9  4  0 25 30.0020000  0  6  1 14 15 21 25 29
  22864297.40500  23517545.75200                  17914853.89340  23517549.86540
  -3342351.31100  23466223.63500                  -2480090.97140  23466227.51440
  -3238505.18900  21468335.71300                  -2422533.60140  21468339.52140
  33815749.01800  24252761.57200                   8150543.82740  24252766.44740
  -3513994.49400  21415236.30700                  -2667298.37040  21415238.68640
  -2012771.36100  23723150.29900                  -1513727.94740  23723153.85040
 96  9  4  0 26  0.0020000  0  6  1 14 15 21 25 29
  22995274.29100  23542470.83000                  18016913.77540  23542474.41640
  -3368034.05700  23461336.84600                  -2500103.47440  23461341.25240
  -3183702.67500  21478764.07200                  -2379830.35240  21478768.09240
  33958438.63600  24279915.09600                   8261730.50540  24279920.32240
  -3461925.15100  21425144.93200                  -2626724.85140  21425147.35740
  -2021568.56900  23721476.77500                  -1520582.88240  23721480.49040
 96  9  4  0 26 30.0020000  0  6  1 14 15 21 25 29
  23126325.84200  23567409.08000                  18119031.84840  23567412.68940
  -3393628.72200  23456465.79100                  -2520047.34740  23456470.40840
  -3128251.96500  21489316.18200                  -2336622.00940  21489319.95540
  34101383.64300  24307116.03300                   8373116.15640  24307121.21340
  -3409333.85900  21435152.58000                  -2585744.61840  21435155.07640
  -2030195.11300  23719834.71300                  -1527304.83640  23719838.15840
 96  9  4  0 27  0.0020000  0  6  1 14 15 21 25 29
  23257382.67900  23592347.56400                  18221154.03240  23592351.91240
  -3419192.05000  23451601.04100                  -2539966.79940  23451604.92040
  -3072209.39100  21499980.36100                  -2292952.47640  21499984.26440
  34244523.46100  24334354.92400                   8484653.60440  24334360.25640
  -3356292.56800  21445245.94700                  -2544413.73840  21445248.50240
  -2038678.73000  23718221.00200                  -1533915.41940  23718224.41240
 96  9  4  0 27 30.0020000  0  6  1 14 15 21 25 29
  23388533.62900  23617305.34600                  18323349.54540  23617309.18940
  -3444628.77100  23446760.78300                  -2559787.59840  23446764.61540
  -3015488.59800  21510774.27500                  -2248754.46740  21510778.09640
  34387913.59200  24361640.33000                   8596386.10740  24361644.91240
  -3302698.61300  21455444.48600                  -2502652.20640  21455447.00640
  -2046915.39400  23716653.38500                  -1540333.56040  23716656.85440
 96  9  4  0 28  0.0020000  0  6  1 14 15 21 25 29
  23519737.58800  23642273.01000                  18425586.38240  23642276.66640
  -3469981.75000  23441936.51800                  -2579543.14540  23441940.68940
  -2958136.81700  21521688.03300                  -2204064.77240  21521692.00640
  34531474.66800  24388959.42400                   8708251.82440  24388964.76840
  -3248573.93200  21465744.18200                  -2460477.12940  21465746.71340
  -2054952.82100  23715123.92400                  -1546596.46140  23715127.26440
 96  9  4  0 28 30.0020000  0  6  1 14 15 21 25 29
  23650990.91900  23667249.34600                  18527861.68440  23667254.15040
  -3495245.65900  23437128.45500                  -2599229.27140  23437132.26440
  -2900148.21500  21532722.60400                  -2158878.85440  21532726.49440
  34675219.19700  24416314.26000                   8820260.48540  24416318.66640
  -3193884.93500  21476151.04100                  -2417862.31640  21476153.57240
  -2062795.23500  23713630.93900                  -1552707.41240  23713634.79540
 96  9  4  0 29  0.0020000  0  6  1 14 15 21 25 29
  23782284.37500  23692234.04100                  18630168.23140  23692238.06140
  -3520428.18500  23432336.63500                  -2618852.00440  23432340.35040
  -2841532.70800  21543877.04900                  -2113204.44540  21543880.86940
  34819151.59400  24443702.65000                   8932415.54340  24443708.27540
  -3138628.16200  21486666.22100                  -2374805.08740  21486668.60040
  -2070470.38700  23712171.17400                  -1558688.01340  23712174.20940
 96  9  4  0 29 30.0020000  0  6  1 14 15 21 25 29
  23913628.05600  23717227.20500                  18732513.95640  23717231.37740
  -3545528.93400  23427559.77500                  -2638410.99940  23427563.64340
  -2782281.90000  21555151.99400                  -2067034.98540  21555155.82640
  34963284.92800  24471130.82200                   9044727.16040  24471136.15440
  -3082782.18000  21497293.08800                  -2331288.73240  21497295.58440
  -2077990.20800  23710740.10400                  -1564547.59740  23710743.36140
 96  9  4  0 30  0.0020000  0  6  1 14 15 21 25 29
  24045014.87500  23742229.53300                  18834893.25240  23742233.78740
  -3570541.77700  23422800.20500                  -2657901.50740  23422803.87340
  -2722389.44800  21566548.97900                  -2020365.55540  21566552.90440
  35107656.37800  24498604.59600                   9157224.34740  24498609.79940
  -3026351.66900  21508031.58000                  -2287316.90340  21508034.11140
  -2085349.84100  23709339.66600                  -1570282.33640  23709343.29940
 96  9  4  0 30 30.0020000  0  6  1 14 15 21 25 29
  24176442.63500  23767239.43900                  18937304.48740  23767242.87340
  -3595473.33700  23418055.80700                  -2677328.68040  23418059.61540
  -2661860.12200  21578067.61900                  -1973199.85740  21578071.46340
  35252270.38600  24526123.09600                   9269910.53140  24526127.78340
  -2969360.69700  21518876.62700                  -2242908.34640  21518879.01840
  -2092543.53200  23707970.47900                  -1575887.78840  23707974.19340
 96  9  4  0 31  0.0020000  0  6  1 14 15 21 25 29
  24307922.71700  23792258.90800                  19039756.47340  23792264.01840
  -3620319.68500  23413327.96300                  -2696689.44240  23413332.00640
  -2600698.62100  21589706.00200                  -1925541.55140  21589709.77540
  35397110.08600  24553686.01000                   9382772.57040  24553690.62740
  -2911826.97900  21529824.80700                  -2198076.87140  21529827.37340
  -2099562.97500  23706634.87700                  -1581357.45640  23706638.47540
 96  9  4  0 31 30.0020000  0  6  1 14 15 21 25 29
  24439466.12100  23817291.83000                  19142257.79040  23817295.38140
  -3645058.97000  23408620.04100                  -2715966.79140  23408623.99040
  -2538892.52500  21601467.42400                  -1877380.97040  21601471.43240
  35542184.51100  24581292.11900                   9495817.52540  24581297.66240
  -2853758.10600  21540874.68900                  -2152828.39540  21540877.17440
  -2106385.47800  23705336.71300                  -1586673.65240  23705340.36940
 96  9  4  0 32  0.0030000  0  6  1 14 15 21 25 29
  24571074.76100  23842336.19400                  19244809.96540  23842339.74540
  -3669687.65300  23403934.06200                  -2735157.93640  23403938.32740
  -2476444.49600  21613350.87400                  -1828720.17940  21613354.98740
  35687500.32200  24608945.46800                   9609050.56640  24608950.46040
  -2795174.74800  21552022.98300                  -2107179.02040  21552025.26940
  -2113019.96600  23704074.24900                  -1591843.35140  23704078.26940
 96  9  4  0 32 30.0030000  0  6  1 14 15 21 25 29
  24702768.52800  23867396.48300                  19347428.46440  23867400.70240
  -3694194.84900  23399269.46800                  -2754254.44240  23399273.21840
  -2413339.80100  21625359.23300                  -1779547.69840  21625363.20640
  35833057.40200  24636642.99900                   9722471.59040  24636648.16740
  -2736059.47400  21563272.42900                  -2061115.16340  21563274.83140
  -2119462.31600  23702848.20200                  -1596863.33140  23702851.96440
 96  9  4  0 33  0.0030000  0  6  1 14 15 21 25 29
  24834509.07300  23892465.67900                  19450083.41240  23892469.69840
  -3718607.51100  23394623.89000                  -2773277.27240  23394627.78040
  -2349605.40200  21637487.77200                  -1729884.54640  21637491.80440
  35978840.25400  24664384.29600                   9836068.56940  24664388.76140
  -2676441.68300  21574617.33500                  -2014659.73940  21574619.85440
  -2125751.40100  23701650.99900                  -1601763.89540  23701654.23340
 96  9  4  0 33 30.0030000  0  6  1 14 15 21 25 29
  24966273.34000  23917538.92100                  19552756.83040  23917542.77640
  -3742945.16100  23389993.38200                  -2792241.65040  23389997.24940
  -2285248.46400  21649734.29600                  -1679736.29640  21649738.17540
  36124850.78700  24692170.17900                   9949842.93640  24692175.41740
  -2616331.37300  21586055.70200                  -1967820.53440  21586058.24540
  -2131898.73200  23700481.44400                  -1606553.99740  23700484.97240
 96  9  4  0 34  0.0030000  0  6  1 14 15 21 25 29
  25098066.22600  23942618.64700                  19655452.55940  23942623.15940
  -3767222.54800  23385372.46800                  -2811159.07540  23385376.35840
  -2220267.19600  21662099.93700                  -1629101.55740  21662103.85140
  36271072.10000  24719994.46800                  10063781.57440  24720000.56240
  -2555710.25800  21597591.40500                  -1920583.30040  21597593.87840
  -2137900.40900  23699339.95200                  -1611230.60840  23699343.31540
 96  9  4  0 34 30.0030000  0  6  1 14 15 21 25 29
  25229911.99900  23967708.05400                  19758189.50840  23967712.00340
  -3791415.20600  23380768.90500                  -2830010.47640  23380772.50340
  -2154641.83400  21674587.88200                  -1577964.92340  21674591.72640
  36417507.87600  24747860.99100                  10177887.33740  24747866.82740
  -2494551.28500  21609229.74100                  -1872926.95340  21609232.17940
  -2143724.04900  23698231.46000                  -1615768.47440  23698235.21040
 96  9  4  0 35  0.0030000  0  6  1 14 15 21 25 29
  25361773.94800  23992800.28800                  19860939.04940  23992804.63640
  -3815546.44300  23376177.78000                  -2848814.01740  23376181.70640
  -2088408.71700  21687191.85100                  -1526354.72040  21687195.81240
  36564113.25500  24775758.56900                  10292125.20140  24775762.56540
  -2432892.08700  21620963.26500                  -1824880.82240  21620965.56240
  -2149395.41900  23697152.21000                  -1620187.70740  23697155.50340
 96  9  4  0 35 30.0030000  0  6  1 14 15 21 25 29
  25493669.77900  24017899.37400                  19963715.00540  24017903.30040
  -3839612.27200  23371596.59300                  -2867566.59540  23371600.41340
  -2021558.04200  21699912.98300                  -1474263.28840  21699916.94440
  36710885.30800  24803688.53800                  10406492.95240  24803692.64040
  -2370705.11500  21632796.77200                  -1776423.43940  21632799.10440
  -2154908.42900  23696102.45200                  -1624483.51940  23696106.07340
 96  9  4  0 36  0.0030000  0  6  1 14 15 21 25 29
  25625643.27300  24043013.03800                  20066551.47440  24043016.88240
  -3863552.07600  23367042.39000                  -2886220.96040  23367046.01140
  -1954054.72600  21712758.41300                  -1421663.31740  21712762.45640
  36857864.97200  24831657.71000                  10521022.54940  24831662.06940
  -2307952.00200  21644738.31900                  -1727524.90740  21644740.80440
  -2160226.33700  23695090.04600                  -1628627.32140  23695093.63240
 96  9  4  0 36 30.0030000  0  6  1 14 15 21 25 29
  25757684.21100  24068140.02200                  20169440.47440  24068143.60840
  -3887347.99500  23362514.34300                  -2904763.21840  23362518.45640
  -1885898.99900  21725728.16300                  -1368554.97140  21725732.04240
  37005069.80700  24859670.42900                  10635727.53740  24859677.09740
  -2244638.70400  21656786.61600                  -1678189.86540  21656789.12440
  -2165353.19600  23694115.14000                  -1632622.24340  23694118.87840
 96  9  4  0 37  0.0030000  0  6  1 14 15 21 25 29
  25889770.71200  24093275.11600                  20272365.00940  24093279.17140
  -3911007.24900  23358011.64000                  -2923198.98440  23358015.46040
  -1817094.53900  21738820.98300                  -1314941.11440  21738824.94440
  37152504.93800  24887726.06200                  10750611.95840  24887730.96040
  -2180761.75600  21668941.77200                  -1628415.61540  21668944.24540
  -2170286.26900  23693176.46000                  -1636466.16340  23693179.44840
 96  9  4  0 37 30.0030000  0  6  1 14 15 21 25 29
  26021869.24800  24118413.05400                  20375298.90840  24118416.95640
  -3934557.80000  23353530.71000                  -2941550.02940  23353534.65940
  -1747671.92100  21752032.17100                  -1260845.57940  21752035.97940
  37300157.79300  24915823.29600                  10865666.06640  24915829.02640
  -2116355.17800  21681197.98300                  -1578228.67240  21681200.42140
  -2175051.08600  23692269.78000                  -1640178.98340  23692272.95640
 96  9  4  0 38  0.0030000  0  6  1 14 15 21 25 29
  26153978.94600  24143552.39700                  20478241.50540  24143555.96040
  -3957985.52300  23349071.84300                  -2959805.38140  23349075.52240
  -1677635.64000  21765359.12400                  -1206271.86640  21765362.94440
  37448027.23500  24943962.31900                  10980888.93640  24943968.14440
  -2051440.64300  21693550.96000                  -1527645.91540  21693553.45640
  -2179648.47500  23691394.50700                  -1643761.33240  23691398.12840
 96  9  4  0 38 30.0030000  0  6  1 14 15 21 25 29
  26286145.19600  24168703.42900                  20581228.16240  24168707.67140
  -3981264.06800  23344642.50700                  -2977944.47640  23344646.06940
  -1606939.53800  21778812.22600                  -1151183.99740  21778816.10440
  37596143.59600  24972147.99900                  11096304.24140  24972152.56940
  -1985976.67300  21706008.31900                  -1476635.02640  21706010.75740
  -2184031.33200  23690560.62400                  -1647176.50140  23690564.11640
 96  9  4  0 39  0.0030000  0  6  1 14 15 21 25 29
  26418335.37300  24193858.35100                  20684233.47240  24193861.31540
  -4004437.39500  23340233.23300                  -2996001.59440  23340236.99540
  -1535619.84800  21792383.99900                  -1095610.22640  21792387.86640
  37744466.07800  25000372.82700                  11211880.15040  25000377.06940
  -1920007.12600  21718562.01500                  -1425230.18340  21718564.49940
  -2188236.60900  23689759.90500                  -1650453.31140  23689763.14040
 96  9  4  0 39 30.0030000  0  6  1 14 15 21 25 29
  26550577.00900  24219022.49900                  20787278.88240  24219025.93340
  -4027479.60800  23335847.71800                  -3013956.54340  23335851.69040
  -1463656.76000  21806078.21000                  -1039535.10540  21806082.12440
  37893008.92400  25028639.41300                  11327627.76140  25028644.73340
  -1853518.10400  21731214.20200                  -1373420.54840  21731216.80440
  -2192263.81600  23688994.25700                  -1653591.35040  23688997.65540
 96  9  4  0 40  0.0030000  0  6  1 14 15 21 25 29
  26682841.33700  24244192.45200                  20890341.95940  24244196.07340
  -4050424.41400  23331481.27200                  -3031835.58740  23331485.05840
  -1391078.63500  21819889.43700                   -982980.73240  21819893.24540
  38041729.43000  25056940.37400                  11443513.79340  25056946.42140
  -1786525.27000  21743962.73300                  -1321218.33940  21743965.21840
  -2196146.46200  23688254.60800                  -1656616.75540  23688257.79640
 96  9  4  0 40 30.0030000  0  6  1 14 15 21 25 29
  26815114.60300  24269362.19400                  20993412.02740  24269365.58140
  -4073285.97800  23327131.10800                  -3049649.77140  23327134.91740
  -1317885.66900  21833817.28000                   -925947.26240  21833821.19440
  38190629.35400  25085275.48300                  11559539.64940  25085281.80040
  -1719022.73400  21756807.82700                  -1268618.95240  21756810.45240
  -2199876.67300  23687545.28000                  -1659523.36640  23687548.77240
 96  9  4  0 41  0.0030000  0  6  1 14 15 21 25 29
  26947414.67500  24294538.54600                  21096502.96540  24294542.53040
  -4096026.30900  23322803.98300                  -3067369.48840  23322807.55840
  -1244055.71600  21847867.16300                   -868417.43740  21847870.94840
  38339734.21700  25113649.57700                  11675725.19140  25113654.08940
  -1650984.73800  21769755.15500                  -1215602.33040  21769757.47640
  -2203442.21100  23686866.74100                  -1662301.67140  23686870.06940
 96  9  4  0 41 30.0030000  0  6  1 14 15 21 25 29
  27079753.31100  24319721.51500                  21199623.94340  24319725.80440
  -4118636.37500  23318501.37400                  -3084987.69440  23318505.12440
  -1169588.93800  21862037.28000                   -810391.38440  21862041.07740
  38489040.75200  25142060.94400                  11792067.88140  25142067.19040
  -1582398.72700  21782806.46000                  -1162158.67940  21782808.96840
  -2206843.35200  23686219.09300                  -1664951.86340  23686222.28040
 96  9  4  0 42  0.0030000  0  6  1 14 15 21 25 29
  27212084.98500  24344902.79600                  21302739.50640  24344906.79240
  -4141170.64100  23314212.79600                  -3102546.83840  23314216.48740
  -1094540.67800  21876318.65500                   -751912.22940  21876322.58140
  38638496.81800  25170501.49100                  11908527.04140  25170505.03040
  -1513323.08800  21795951.15500                  -1108333.50140  21795953.69840
  -2210116.70100  23685597.03000                  -1667502.48840  23685600.46440
 96  9  4  0 42 30.0030000  0  6  1 14 15 21 25 29
  27344419.65600  24370085.70200                  21405857.41540  24370090.06240
  -4163607.25200  23309943.73300                  -3120029.89440  23309947.27240
  -1018903.98500  21890711.71000                   -692974.55240  21890715.62440
  38788111.48700  25198973.38200                  12025109.87640  25198976.47640
  -1443771.51400  21809186.64700                  -1054137.46240  21809189.02640
  -2213245.79200  23685001.10100                  -1669940.69540  23685004.49940
 96  9  4  0 43  0.0030000  0  6  1 14 15 21 25 29
  27476803.98500  24395278.57700                  21509014.00540  24395282.70240
  -4185907.30800  23305700.47600                  -3137406.54040  23305704.16740
   -942645.50100  21905223.16300                   -633552.36540  21905226.98340
  38937922.08000  25227479.81200                  12141845.34040  25227487.32740
  -1373703.52200  21822519.93700                   -999539.01740  21822522.37440
  -2216208.05300  23684437.64000                  -1672248.91340  23684441.29640
 96  9  4  0 43 30.0030000  0  6  1 14 15 21 25 29
  27609285.38600  24420487.52200                  21612246.26240  24420491.70640
  -4208024.69200  23301491.60100                  -3154640.84640  23301495.40940
   -865716.39800  21919862.39700                   -573607.61840  21919866.33540
  39087985.46400  25256036.64700                  12258777.76040  25256041.17140
  -1303066.54200  21835961.71000                   -944497.21240  21835964.18340
  -2218934.68000  23683918.95200                  -1674373.52540  23683922.23340
 96  9  4  0 44  0.0030000  0  6  1 14 15 21 25 29
  27741811.10900  24445707.69400                  21715513.00840  24445710.84740
  -4229994.79800  23297310.73300                  -3171760.39640  23297314.20240
   -788154.56300  21934621.75700                   -513169.83440  21934625.84740
  39238274.15900  25284634.59300                  12375885.72940  25284642.13240
  -1231910.71100  21849502.31900                   -889051.11040  21849504.78040
  -2221466.53000  23683436.85100                  -1676346.36740  23683440.10840
 96  9  4  0 44 30.0030000  0  6  1 14 15 21 25 29
  27874356.19500  24470930.37400                  21818794.88640  24470934.12440
  -4251823.39100  23293156.55400                  -3188769.67240  23293160.15140
   -709968.32500  21949500.30400                   -452245.49740  21949504.38240
  39388769.87200  25313274.40500                  12493155.09440  25313280.90940
  -1160232.83000  21863142.11600                   -833198.20640  21863144.82340
  -2223828.75900  23682987.04600                  -1678187.02540  23682990.55040
 96  9  4  0 45  0.0030000  0  6  1 14 15 21 25 29
  28006909.25500  24496153.81900                  21922082.94840  24496156.93740
  -4273515.02500  23289028.24100                  -3205672.21740  23289031.95640
   -631162.43900  21964496.52200                   -390838.32240  21964500.61240
  39539470.62900  25341950.74100                  12610584.21740  25341956.36640
  -1088020.63700  21876883.60800                   -776928.96340  21876886.24540
  -2226030.97700  23682568.33500                  -1679903.00040  23682571.31240
 96  9  4  0 45 30.0030000  0  6  1 14 15 21 25 29
  28139439.49300  24521373.56200                  22025353.24240  24521377.51140
  -4295087.54800  23284922.96800                  -3222481.96440  23284926.87040
   -551760.60100  21979606.22600                   -328966.76640  21979610.23340
  39690341.21600  25370661.18700                  12728145.60840  25370665.10140
  -1015312.42900  21890719.38200                   -720273.21340  21890721.93740
  -2228091.62600  23682176.13200                  -1681508.67040  23682179.67140
 96  9  4  0 46  0.0040000  0  6  1 14 15 21 25 29
  28272003.99200  24546599.64500                  22128650.22240  24546604.68440
  -4316499.40200  23280848.94100                  -3239166.52240  23280852.45740
   -471714.91200  21994838.37900                   -266593.51240  21994842.25840
  39841418.26300  25399410.80100                  12845867.84340  25399416.93040
   -942064.00000  21904658.16800                   -663196.51440  21904660.75840
  -2229971.96800  23681817.78500                  -1682973.85140  23681821.12540
 96  9  4  0 46 30.0040000  0  6  1 14 15 21 25 29
  28404539.95000  24571820.33200                  22231924.96840  24571824.50440
  -4337817.51300  23276791.93400                  -3255778.02540  23276795.70740
   -391097.05500  22010179.44100                   -203774.41240  22010183.35540
  39992617.36100  25428182.12100                  12963685.28240  25428189.12140
   -868345.05900  21918686.59800                   -605753.18240  21918688.91840
  -2231726.72700  23681484.07400                  -1684341.15540  23681487.46140
 96  9  4  0 47  0.0040000  0  6  1 14 15 21 25 29
  28537061.44700  24597038.85500                  22335188.44640  24597042.27740
  -4359049.18000  23272752.09000                  -3272322.17440  23272755.59440
   -309908.04300  22025629.37100                   -140510.25440  22025633.40240
  40143960.74800  25456983.09000                  13081615.19440  25456989.99640
   -794171.91100  21932801.19900                   -547955.92840  21932803.50840
  -2233354.38400  23681174.46500                  -1685609.42940  23681177.69940
 96  9  4  0 47 30.0040000  0  6  1 14 15 21 25 29
  28669607.93000  24622261.41000                  22438471.39340  24622264.80940
  -4380159.38000  23268734.32400                  -3288771.66640  23268737.95740
   -228111.47000  22041194.61300                    -76772.67340  22041198.63340
  40295482.28200  25485815.81600                  13199683.81540  25485822.01640
   -719506.09000  21947009.70700                   -489774.76640  21947012.21540
  -2234813.80100  23680896.48000                  -1686746.61340  23680899.79740
 96  9  4  0 48  0.0040000  0  6  1 14 15 21 25 29
  28802190.87300  24647491.19900                  22541782.74740  24647495.12540
  -4401125.19400  23264745.31600                  -3305108.65440  23264749.09040
   -145698.31400  22056877.20700                    -12554.63840  22056881.21540
  40447200.51000  25514686.74600                  13317905.80640  25514691.14140
   -644328.87000  21961315.29300                   -431195.10540  21961317.56640
  -2236098.95500  23680651.95700                  -1687747.99840  23680654.91040
 96  9  4  0 48 30.0040000  0  6  1 14 15 21 25 29
  28934834.48100  24672732.08200                  22645141.39740  24672735.79740
  -4421906.58700  23260790.22300                  -3321301.94640  23260793.87940
    -62636.81200  22072683.24600                     52168.60040  22072687.06640
  40599157.24800  25543602.62100                  13436313.57440  25543606.32440
   -568602.49300  21975725.36300                   -372187.53740  21975727.84840
  -2237182.09000  23680445.32400                  -1688591.98040  23680448.43040
 96  9  4  0 49  0.0040000  0  6  1 14 15 21 25 29
  29067466.01400  24697971.12100                  22748490.61740  24697974.93040
  -4442557.27500  23256861.35500                  -3337393.37740  23256864.84840
     21006.00900  22088600.37100                    117344.81340  22088604.42640
  40751283.17800  25572551.94100                  13554853.25740  25572551.47340
   -492379.93800  21990230.02700                   -312793.33840  21990232.54740
  -2238126.56700  23680266.62900                  -1689327.91840  23680269.82840
 96  9  4  0 49 30.0040000  0  6  1 14 15 21 25 29
  29200114.08200  24723213.57400                  22851852.70040  24723217.19540
  -4463037.55500  23252964.27000                  -3353352.01640  23252968.30140
    105259.68400  22104632.99600                    182997.02140  22104636.93440
  40903592.42500  25601536.66800                  13673535.75140  25601543.87940
   -415624.34500  22004836.27700                   -252983.78240  22004838.71540
  -2238896.40800  23680119.06600                  -1689927.75940  23680122.45340
 96  9  4  0 50  0.0040000  0  6  1 14 15 21 25 29
  29332789.54700  24748460.86300                  22955236.17040  24748465.08240
  -4483356.49400  23249097.30100                  -3369184.95440  23249100.81640
    190121.80200  22120781.97300                    249123.33040  22120786.09840
                  25630551.37900
   -338353.24200  22019540.50400                   -192772.53440  22019543.05940
  -2239495.49200  23680005.71500                  -1690394.56340  23680008.63340
 96  9  4  0 50 30.0040000  0  6  1 14 15 21 25 29
  29465499.61700  24773714.41000                  23058646.57440  24773718.02040
  -4503526.33000  23245259.16000                  -3384901.68840  23245262.74640
    275589.63000  22137046.00400                    315721.62140  22137049.93040
     86531.91310  25659608.05100
   -260575.69900  22034341.08200                   -132166.65140  22034343.66040
  -2239911.87000  23679926.28500                  -1690718.99140  23679929.35540
 96  9  4  0 51  0.0040000  0  6  1 14 15 21 25 29
  29598242.32100  24798974.69900                  23162082.42040  24798978.22740
  -4523553.06000  23241448.05900                  -3400506.91940  23241451.68040
    361653.98600  22153423.48000                    382784.74140  22153427.39540
    239371.69100  25688691.84000
   -182308.46100  22049235.05100                    -71179.19540  22049237.46540
  -2240157.23100  23679879.58200                  -1690910.15640  23679882.82840
 96  9  4  0 51 30.0040000  0  6  1 14 15 21 25 29
  29730997.19800  24824237.23800                  23265527.75640  24824241.35240
  -4543480.38200  23237655.58200                  -3416034.68440  23237659.29740
    448289.30400  22169909.54300                    450292.76840  22169913.53940
    392350.49200  25717803.40200
   -103591.49600  22064214.11300                     -9841.29140  22064216.71540
  -2240267.57700  23679858.68400                  -1690996.12640  23679861.50840
 96  9  4  0 52  0.0040000  0  6  1 14 15 21 25 29
  29863773.81500  24849503.62900                  23368990.00640  24849507.49640
  -4563294.17900  23233885.25400                  -3431473.99640  23233889.06240
    535514.38100  22186507.75400                    518260.34340  22186511.53940
    545492.81500  25746943.66000                     39792.01250  25746951.56240
    -24403.69000  22079283.16000                     51863.49440  22079285.63340
  -2240226.29400  23679866.42600                  -1690963.93140  23679869.54340
 96  9  4  0 52 30.0040000  0  5  1 14 15 25 29
  29996566.90500  24874772.66800                  23472465.13840  24874777.85940
  -4582967.60300  23230141.55900                  -3446803.91440  23230145.03940
    623346.46500  22203221.84000                    586700.91040  22203225.68440
     55284.05800  22094447.23800                    113957.84640  22094449.61740
  -2240024.94300  23679904.69100                  -1690807.01840  23679907.71540
 96  9  4  0 53  0.0040000  0  5  1 14 15 25 29
  30129351.50300  24900041.50400                  23575933.61240  24900045.00840
  -4602509.43400  23226423.30100                  -3462031.30540  23226426.89840
    711773.92600  22220049.14500                    655605.41740  22220053.14140
    135467.61300  22109705.71500                    176438.54440  22109708.02340
  -2239691.04900  23679968.44900                  -1690546.81740  23679971.71940
 96  9  4  0 53 30.0040000  0  5  1 14 15 25 29
  30262124.13700  24925306.98800                  23679392.78340  24925311.31240
  -4621913.28700  23222729.89500                  -3477151.16540  23222733.60940
    800796.99200  22236989.49600                    724974.01940  22236993.57440
    216149.12900  22125058.82400                    239307.26040  22125061.08640
  -2239213.64700  23680059.02000                  -1690174.79140  23680062.28940
 96  9  4  0 54  0.0040000  0  5  1 14 15 25 29
  30394878.96700  24950569.65200                  23782838.07540  24950575.07840
  -4641151.87500  23219068.96500                  -3492142.26240  23219072.56240
    890413.33300  22254043.08200                    794804.92040  22254047.07840
    297329.93200  22140506.84800                    302565.03140  22140509.32040
  -2238584.63200  23680178.68400                  -1689684.62940  23680182.08240
 96  9  4  0 54 30.0040000  0  5  1 14 15 25 29
  30527614.86100  24975828.79300                  23886268.62040  24975832.29740
  -4660226.50900  23215440.02700                  -3507005.59440  23215443.81240
    980609.85000  22271206.71500                    865087.89940  22271210.85240
    378997.60500  22156047.81600                    366202.18440  22156050.32440
  -2237820.90500  23680324.27700                  -1689089.49640  23680327.05540
 96  9  4  0 55  0.0040000  0  5  1 14 15 25 29
  30660377.85900  25001092.30900                  23989720.25740  25001096.12940
  -4679099.72500  23211848.74600                  -3521711.99040  23211852.19140
   1071414.73600  22288486.44900                    935844.94140  22288490.48040
    461167.01800  22171684.13700                    430230.29740  22171686.55140
  -2236873.56900  23680504.80900                  -1688351.29340  23680507.73840
 96  9  4  0 55 30.0040000  0  5  1 14 15 25 29
  30793135.36700  25026355.95700                  24093167.66140  25026359.95340
  -4697806.19900  23208288.81600                  -3536288.43740  23208292.63740
   1162784.31000  22305873.72300                   1007041.99540  22305877.75440
    543788.22000  22187406.51200                    494610.45740  22187408.94940
  -2235773.48100  23680714.12900                  -1687494.05840  23680717.43440
 96  9  4  0 56  0.0040000  0  5  1 14 15 25 29
  30925905.96800  25051620.91000                  24196625.24940  25051624.27340
  -4716342.27200  23204761.34000                  -3550732.11240  23204764.99640
   1254728.85100  22323369.80900                   1078687.07840  22323373.93440
    626861.38100  22203214.79300                    559342.79240  22203217.34840
  -2234518.29500  23680952.98000                  -1686515.96440  23680956.07440
 96  9  4  0 56 30.0040000  0  5  1 14 15 25 29
  31058680.70800  25076887.52700                  24300086.04240  25076891.69940
  -4734726.48200  23201262.79300                  -3565057.45540  23201266.49640
   1347236.87500  22340973.63700                   1150771.23740  22340977.58640
    710372.29000  22219106.28500                    624416.22940  22219108.74640
  -2233126.50500  23681217.73800                  -1685431.42340  23681221.17240
 96  9  4  0 57  0.0040000  0  5  1 14 15 25 29
  31191455.97400  25102153.46500                  24403547.26040  25102158.45740
  -4752946.72700  23197795.57400                  -3579255.02940  23197799.28940
   1440309.29500  22358684.62100                   1223295.18740  22358688.65240
    794321.04600  22235081.26200                    689830.84640  22235083.73440
  -2231590.35700  23681509.75400                  -1684234.39040  23681512.84840
 96  9  4  0 57 30.0040000  0  5  1 14 15 25 29
  31324252.47500  25127423.62900                  24507025.00940  25127426.95740
  -4770977.27400  23194364.50400                  -3593304.78840  23194367.97340
   1533974.78100  22376508.64500                   1296281.26340  22376512.82840
    878744.67300  22251146.97300                    755615.49440  22251149.43440
  -2229896.86200  23681832.00400                  -1682914.74640  23681835.07440
 96  9  4  0 58  0.0040000  0  5  1 14 15 25 29
  31457041.51800  25152692.03500                  24610496.96340  25152696.55940
  -4788838.59800  23190965.83200                  -3607222.68240  23190969.66440
   1628217.12200  22394442.59000                   1369716.83840  22394446.68040
    963626.70500  22267298.89500                    821757.33440  22267301.37940
  -2228067.18500  23682180.33200                  -1681488.99240  23682183.27340
 96  9  4  0 58 30.0040000  0  6  1 14 15 22 25 29
  31589822.24100  25177960.72300                  24713962.43240  25177964.36740
  -4806510.64700  23187602.78500                  -3620993.08640  23187606.28940
   1723044.20900  22412487.62100                   1443608.06140  22412491.80540
    -14644.08410  25720407.85500
   1048986.43800  22283542.49600                    888271.41040  22283544.94540
  -2226084.35200  23682557.80100                  -1679943.88840  23682560.77740
 96  9  4  0 59  0.0040000  0  6  1 14 15 22 25 29
  31722587.64400  25203224.16000                  24817415.96140  25203229.86740
  -4824009.27300  23184272.58200                  -3634628.36340  23184276.10940
   1818442.11600  22430641.14500                   1517944.07640  22430645.12940
    -54610.59800  25712800.30100
   1134817.85200  22299875.60500                    955153.03740  22299878.00840
  -2223950.96800  23682963.19100                  -1678281.48040  23682966.37940
 96  9  4  0 59 30.0040000  0  6  1 14 15 22 25 29
  31855328.01600  25228484.27700                  24920849.98640  25228488.15640
  -4841364.92600  23180970.29300                  -3648152.23040  23180973.65640
   1914392.93700  22448899.83200                   1592710.93940  22448903.85240
    -94643.93400  25705183.99600
   1221109.78300  22316296.22300                   1022393.50140  22316298.67240
  -2221678.15700  23683395.56600                  -1676510.41640  23683398.80140
 96  9  4  1  0  0.0050000  0  6  1 14 15 22 25 29
  31988072.17000  25253744.35300                  25024286.95640  25253748.48940
                  23177697.77400
   2010905.20300  22467265.88400                   1667915.28840  22467270.02040
   -134733.87300  25697555.13400                    -24995.71950  25697568.01740
   1307882.63700  22332808.84500                   1090008.71340  22332811.34140
  -2219248.90400  23683857.79000                  -1674617.44240  23683861.06040
 96  9  4  1  0 30.0050000  0  6  1 14 15 22 25 29
  32120826.98700  25279006.59500                  25127732.22040  25279011.29440
    -16446.41700  23174459.72000
   2107968.27900  22485736.22800                   1743548.84140  22485740.24740
   -174883.49600  25689914.36800                    -56280.92040  25689924.54440
   1395145.47400  22349414.29800                   1158005.73040  22349416.92340
  -2216653.78200  23684352.18100                  -1672595.23940  23684355.55640
 96  9  4  1  1  0.0050000  0  6  1 14 15 22 25 29
  32253616.40800  25304276.51700                  25231204.47940  25304281.38040
    -33264.69100  23171259.30600                     -3477.85550  23171262.70440
   2205601.47900  22504315.29800                   1819626.65040  22504319.30640
   -215087.20100  25682264.73500                    -87608.35740  25682273.52840
   1482927.62800  22366118.64900                   1226407.40540  22366121.05240
  -2213877.78500  23684879.98500                  -1670432.07940  23684883.18540
 96  9  4  1  1 30.0050000  0  6  1 14 15 22 25 29
  32386399.18300  25329544.67300                  25334671.55840  25329548.27040
    -49918.48300  23168090.72000                    -16454.82340  23168094.34140
   2303769.48900  22522995.77400                   1896121.19440  22523000.01740
   -255371.08600  25674597.74300                   -118998.27940  25674605.57540
   1571188.41100  22382914.09500                   1295182.04140  22382916.59140
  -2210969.23800  23685434.03200                  -1668165.64140  23685437.44240
 96  9  4  1  2  0.0050000  0  6  1 14 15 22 25 29
  32519170.01800  25354809.31300                  25438129.29440  25354813.31040
    -66384.18200  23164957.22800                    -29285.22140  23164960.80240
   2402480.26800  22541779.68100                   1973038.67540  22541783.68840
   -295714.31700  25666920.93100                   -150434.51340  25666927.20040
   1659920.60000  22399799.41500                   1364324.00640  22399801.80640
  -2207937.56000  23686010.74300                  -1665803.25440  23686013.74340
 96  9  4  1  2 30.0050000  0  6  1 14 15 22 25 29
  32651942.56300  25380074.91500                  25541588.42940  25380079.69640
    -82641.04700  23161863.64200                    -41952.89540  23161867.27440
   2501767.03800  22560673.39200                   2050404.97740  22560677.45840
   -336079.44800  25659240.16500                   -181887.77140  25659248.04440
   1749126.37500  22416774.74300                   1433834.99140  22416777.23940
  -2204757.37700  23686615.39200                  -1663325.15540  23686618.50940
 96  9  4  1  3  0.0050000  0  6  1 14 15 22 25 29
  32784711.71100  25405341.15700                  25645044.83140  25405344.89540
    -98695.38200  23158808.55600                    -54462.75440  23158812.03640
   2601637.72100  22579678.48500                   2128226.28140  22579682.42340
   -376443.03900  25651558.17300                   -213339.80640  25651564.74740
   1838787.77900  22433836.53200                   1503701.02340  22433839.08740
  -2201433.87400  23687247.73500                  -1660735.36540  23687250.94640
 96  9  4  1  3 30.0050000  0  6  1 14 15 22 25 29
  32917466.03300  25430602.72800                  25748489.76440  25430607.13440
   -114564.83400  23155788.29800                    -66828.54640  23155791.66140
   2702077.81500  22598791.47800                   2206491.27540  22598795.49740
   -416809.75500  25643876.16500                   -244794.33640  25643879.20040
   1928867.23200  22450978.24300                   1573892.79940  22450980.82140
  -2197971.11800  23687906.85300                  -1658037.08240  23687909.99340
 96  9  4  1  4  0.0050000  0  6  1 14 15 22 25 29
  33050164.11800  25455854.68100                  25851890.82940  25455858.80640
   -130287.11000  23152797.03200                    -79079.66540  23152800.37240
   2803042.40500  22618004.44600                   2285164.97540  22618008.43140
   -457217.03900  25636188.34500                   -276280.44140  25636195.08340
   2019311.52500  22468189.33700                   1644368.87040  22468191.82140
  -2194391.79700  23688588.18800                  -1655247.97240  23688591.29440
 96  9  4  1  4 30.0050000  0  5  1 15 22 25 29
  33182834.75100  25481100.25100                  25955270.52640  25481104.01340
   2904544.78800  22637319.73500                   2364257.72940  22637323.72040
   -497655.66000  25628492.92300                   -307790.98640  25628500.15740
   2110156.78100  22485476.50100                   1715157.37540  22485478.93840
  -2190657.16500  23689298.29800                  -1652337.83740  23689301.18140
 96  9  4  1  5  0.0050000  0  6  1 14 15 22 25 29
  33315454.01800  25506336.60300                  26058610.19440  25506341.46640
    -11821.35610  23146895.83700
   3006547.82300  22656729.98500                   2443740.60240  22656733.88840
   -538173.66100  25620781.88400                   -339363.36640  25620785.28240
   2201400.45200  22502839.57100                   1786256.33840  22502841.97440
  -2186795.92500  23690033.44600                  -1649329.04540  23690036.75140
 96  9  4  1  5 30.0050000  0  6  1 14 15 22 25 29
  33447981.56600  25531555.83700                  26161878.37340  25531561.19240
    -27157.18500  23143977.68800                     -9547.67250  23143981.25140
   3109004.70600  22676227.01700                   2523577.12840  22676231.02440
   -578813.92700  25613049.05600                   -371031.02040  25613053.69640
   2293006.90700  22520272.00900                   1857637.99040  22520274.36440
  -2182845.35900  23690785.46200                  -1646250.65840  23690788.39240
 96  9  4  1  6  0.0050000  0  6  1 14 15 22 25 29
  33580488.43200  25556771.19600                  26265130.45540  25556776.73940
    -42300.11500  23141096.15700                    -21347.35540  23141099.56740
   3211989.36900  22695824.53200                   2603824.90340  22695828.57540
   -619489.77000  25605307.79800                   -402726.37740  25605311.78240
   2385067.60200  22537790.27400                   1929373.58840  22537792.64240
  -2178741.57500  23691566.72800                  -1643052.87940  23691569.63440
 96  9  4  1  6 30.0050000  0  6  1 14 15 22 25 29
  33712983.68100  25581985.67300                  26368373.48540  25581990.06740
    -57229.74800  23138254.75100                    -32980.82040  23138258.44240
   3315508.94300  22715523.36000                   2684489.49640  22715527.33340
   -660193.06600  25597562.62600                   -434443.15940  25597567.67740
   2477605.97700  22555399.64200                   2001481.41640  22555402.13840
  -2174492.86200  23692374.10300                  -1639742.16740  23692376.89240
 96  9  4  1  7  0.0050000  0  6  1 14 15 22 25 29
  33845467.63900  25607195.27400                  26471607.70040  25607200.06740
    -71922.97500  23135459.22000                    -44430.08240  23135462.73540
   3419571.08600  22735325.97800                   2765576.87440  22735330.20840
   -700898.73100  25589817.43100                   -466161.77740  25589822.49340
   2570608.58900  22573097.70400                   2073950.98340  22573100.29440
  -2170100.90300  23693209.95400                  -1636319.84240  23693212.64940
 96  9  4  1  7 30.0050000  0  6  1 14 15 22 25 29
  33977884.55900  25632393.63400                  26574789.67840  25632398.07540
    -86429.02100  23132698.63400                    -55733.48340  23132702.39540
   3524126.64900  22755222.12600                   2847048.72940  22755226.36840
   -741639.33700  25582064.08700                   -497907.53640  25582070.04040
   2664007.00400  22590870.45400                   2146728.96540  22590873.05640
  -2165621.42900  23694062.43800                  -1632829.32640  23694065.56740
 96  9  4  1  8  0.0050000  0  6  1 14 15 22 25 29
  34110324.64000  25657595.98500                  26677989.69840  25657601.77440
   -100691.06900  23129984.26700                    -66846.75840  23129987.98140
   3629255.40500  22775227.41500                   2928967.22040  22775231.48140
   -782349.10300  25574316.81300                   -529629.33940  25574324.42340
   2757893.25600  22608736.33700                   2219887.08340  22608738.93840
  -2160984.70500  23694944.71200                  -1629216.27040  23694947.48940
 96  9  4  1  8 30.0050000  0  6  1 14 15 22 25 29
  34242766.86400  25682798.94600                  26781191.39740  25682802.89540
   -114756.37100  23127308.21200                    -77806.73240  23127311.78640
   3734924.03000  22795335.93800                   3011306.39240  22795339.74740
   -823068.57100  25566566.78200                   -561358.78240  25566571.78640
   2852226.58300  22626687.35300                   2293393.55940  22626689.77840
  -2156217.77100  23695851.97000                  -1625501.74740  23695854.71240
 96  9  4  1  9  0.0050000  0  6  1 14 15 22 25 29
  34375241.77300  25708007.40700                  26884418.58640  25708011.45040
   -128599.68300  23124673.79800                    -88593.72640  23124677.26740
   3841164.38600  22815552.68100                   3094091.06540  22815556.72440
   -863758.51200  25558825.15700                   -593065.25840  25558831.15740
   2947026.77800  22644727.23500                   2367263.83940  22644729.64940
  -2151274.74600  23696793.09500                  -1621650.02740  23696795.90740
 96  9  4  1  9 30.0050000  0  6  1 14 15 22 25 29
  34507698.63900  25733214.31300                  26987631.69440  25733217.46640
   -142276.44300  23122070.92300                    -99250.93540  23122074.50940
   3947923.14400  22835868.02400                   3177279.68940  22835872.19640
   -904468.38400  25551077.40700                   -624787.16940  25551083.26740
   3042253.06600  22662848.67300                   2441466.13940  22662851.02840
  -2146203.17200  23697757.67300                  -1617698.13140  23697760.55640
 96  9  4  1 10  0.0050000  0  6  1 14 15 22 25 29
  34640131.56500  25758414.71200                  27090826.11440  25758418.54440
   -155786.39700  23119500.36800                   -109778.17140  23119503.86040
   4055185.81300  22856279.82100                   3260860.97040  22856283.75940
   -945199.41800  25543327.29800                   -656525.59740  25543331.39940
   3137890.94100  22681047.91500                   2515989.15740  22681050.28240
  -2140999.88300  23698747.75900                  -1613643.59940  23698750.66540
 96  9  4  1 10 30.0050000  0  6  1 14 15 22 25 29
  34772520.02500  25783608.72000                  27193985.94840  25783612.73940
   -169120.35600  23116963.32900                   -120168.26840  23116966.75140
   4162937.39400  22876783.87600                   3344823.21540  22876787.88440
   -985940.82800  25535574.38400                   -688272.06840  25535581.18140
   3233906.94700  22699319.29000                   2590806.81840  22699321.57540
  -2135667.49800  23699762.21200                  -1609488.47640  23699765.21240
 96  9  4  1 11  0.0050000  0  6  1 14 15 22 25 29
  34904867.68900  25808791.57100                  27297113.96340  25808796.51740
   -182240.74600  23114465.72000                   -130391.94940  23114469.22440
   4271187.47800  22897383.30600                   3429173.90940  22897387.32540
  -1026673.31700  25527823.05600                   -720011.62940  25527829.64240
   3330316.55500  22717665.08700                   2665931.18740  22717667.45440
  -2130198.02200  23700803.32100                  -1605226.53340  23700806.13440
 96  9  4  1 11 30.0050000  0  6  1 14 15 22 25 29
  35037203.69700  25833976.25900                  27400232.93040  25833978.32140
   -195123.82900  23112014.61800                   -140430.71140  23112018.09940
   4379951.00900  22918080.65700                   3513924.68440  22918084.68840
  -1067380.54100  25520076.90700                   -751731.47640  25520081.77040
   3427142.26400  22736090.77400                   2741379.79240  22736093.31740
  -2124582.85200  23701871.88400                  -1600851.06440  23701874.59140
 96  9  4  1 12  0.0050000  0  6  1 14 15 22 25 29
  35169554.01000  25859160.12600                  27503363.00040  25859166.43140
   -207741.90500  23109613.75100                   -150262.97440  23109617.27840
   4489244.25100  22938878.09500                   3599088.22640  22938882.44240
  -1108051.95400  25512337.60300                   -783423.42940  25512342.97040
   3524396.19800  22754597.14200                   2817162.07240  22754599.59140
  -2118800.82900  23702972.64900                  -1596345.57140  23702975.09940
 96  9  4  1 12 30.0050000  0  6  1 14 15 22 25 29
  35301885.31100  25884344.07900                  27606478.26440  25884349.35340
   -220124.67200  23107257.22000                   -159911.88040  23107260.64240
   4599037.60800  22959770.93100                   3684641.47240  22959774.84540
  -1148724.53500  25504597.64200                   -815116.23440  25504603.06740
   3622055.19700  22773181.32100                   2893259.99440  22773183.77040
  -2112889.35500  23704097.20400                  -1591739.21340  23704100.16940
 96  9  4  1 13  0.0050000  0  6  1 14 15 22 25 29
  35434213.10500  25909524.37600                  27709590.78540  25909527.47040
   -232265.88900  23104946.88400                   -169372.56440  23104950.38840
   4709341.35600  22980761.47000                   3770592.41240  22980765.36040
  -1189388.77100  25496858.54000                   -846802.56540  25496865.18540
   3720148.44000  22791847.86800                   2969696.28540  22791850.21240
  -2106837.27700  23705249.21200                  -1587023.29640  23705252.10640
 96  9  4  1 13 30.0050000  0  6  1 14 15 22 25 29
  35566559.35800  25934708.79800                  27812717.70240  25934710.84940
   -244157.21800  23102684.09500                   -178638.53640  23102687.56340
   4820176.87500  23001852.65700                   3856957.72940  23001857.09940
  -1230003.57000  25489130.11800                   -878450.40240  25489135.56740
   3818697.50800  22810600.82100                   3046487.76440  22810603.42340
  -2100614.32400  23706432.83700                  -1582174.22240  23706435.66140
 96  9  4  1 14  0.0050000  0  6  1 14 15 22 25 29
  35698891.63000  25959891.30600                  27915833.74640  25959896.96640
   -255827.91000  23100462.88400                   -187732.57440  23100466.30640
   4931522.85300  23023041.04800                   3943720.80540  23023045.18540
  -1270583.58600  25481408.14900                   -910071.14640  25481414.25540
   3917680.82200  22829436.86000                   3123617.61940  22829439.48540
  -2094241.37700  23707645.69600                  -1577208.27640  23707648.56740
 96  9  4  1 14 30.0060000  0  6  1 14 15 22 25 29
  35831209.19000  25985069.36500                  28018938.28140  25985074.11140
   -267278.21900  23098283.93600                   -196654.88040  23098287.39340
   5043386.97900  23044328.12300                   4030887.63940  23044332.24840
  -1311102.36300  25473697.88100                   -941644.15840  25473701.10340
   4017109.99400  22848357.64600                   3201094.88840  22848360.06140
  -2087715.19500  23708887.29500                  -1572122.91640  23708890.20140
 96  9  4  1 15  0.0060000  0  6  1 14 15 22 25 29
  35963384.65800  26010222.56800                  28121932.14640  26010225.51040
   -278627.13500  23096124.78700                   -205498.17940  23096128.25640
   5155637.44000  23065688.45100                   4118355.50540  23065692.50640
  -1351663.79900  25465978.60700                   -973250.38840  25465984.17440
   4116848.79900  22867337.42000                   3278813.43740  22867339.79940
  -2081151.07300  23710136.56100                  -1567007.99640  23710139.59640
 96  9  4  1 15 30.0060000  0  6  1 14 15 22 25 29
  36095525.73000  26035368.63900                  28224899.15040  26035370.43240
   -289749.94400  23094008.09200                   -214165.29240  23094011.66640
   5268392.70000  23087145.38900                   4206216.72940  23087149.68940
  -1392155.77100  25458273.49000                  -1004802.52640  25458278.22540
   4216990.28700  22886393.72500                   3356845.75940  22886396.26840
  -2074422.37800  23711417.18600                  -1561764.84040  23711419.97540
 96  9  4  1 16  0.0060000  0  6  1 14 15 22 25 29
  36227649.98900  26060509.45100                  28327853.11140  26060515.04140
   -300620.79700  23091939.13900                   -222636.07240  23091942.64340
   5381663.43100  23108700.06800                   4294479.61140  23108704.27540
  -1432578.53900  25450581.32600                  -1036300.73340  25450587.23240
   4317545.58300  22905528.33400                   3435200.53340  22905531.00640
  -2067525.15300  23712729.74800                  -1556390.35940  23712732.83040
 96  9  4  1 16 30.0060000  0  6  1 14 15 22 25 29
  36359765.41700  26085651.38100                  28430800.15940  26085654.74440
   -311222.90100  23089921.68600                   -230897.43140  23089925.27140
   5495440.78200  23130351.53700                   4383137.26340  23130355.81440
  -1472935.13700  25442901.57600                  -1067747.36940  25442907.33040
   4418501.75600  22924740.05300                   3513867.68140  22924742.50240
  -2060461.34100  23714073.73200                  -1550886.06140  23714076.94340
 96  9  4  1 17  0.0060000  0  6  1 14 15 22 25 29
  36491852.53500  26110786.49000                  28533725.13140  26110790.33440
   -321585.71200  23087949.31800                   -238972.33440  23087952.83440
   5609693.33800  23152092.95100                   4472165.20940  23152097.13540
  -1513267.40900  25435227.18600                  -1099175.01340  25435232.97540
   4519823.08500  22944020.85000                   3592819.35540  22944023.26440
  -2053275.34500  23715441.13900                  -1545286.56940  23715444.12740
 96  9  4  1 17 30.0060000  0  6  1 14 15 22 25 29
  36623926.69000  26135918.12300                  28636640.05640  26135922.88140
   -331696.67400  23086025.69300                   -246850.98440  23086029.03340
   5724433.05600  23173927.02100                   4561572.75940  23173931.21740
  -1553567.90500  25427557.42800                  -1130577.92540  25427563.36940
   4621531.51000  22963375.41200                   3672072.67240  22963377.97840
  -2045971.98900  23716830.36500                  -1539595.61540  23716833.20140
 96  9  4  1 18  0.0060000  0  6  1 14 15 22 25 29
  36756009.64900  26161054.13900                  28739561.81640  26161059.57640
   -341550.96400  23084150.45100                   -254529.63440  23084153.93240
   5839663.28000  23195854.74800                   4651362.52440  23195858.94340
  -1593823.92600  25419897.65400                  -1161946.23940  25419901.82640
   4723656.79000  22982809.27900                   3751650.80840  22982811.70540
  -2038560.23100  23718241.13100                  -1533820.19540  23718243.80340
 96  9  4  1 18 30.0060000  0  6  1 14 15 22 25 29
  36888065.06200  26186183.11500                  28842462.11240  26186186.95940
   -351182.54300  23082317.67800                   -262034.74440  23082321.20540
   5955353.76500  23217869.88100                   4741510.93640  23217874.02940
  -1634061.41600  25412240.60700                  -1193300.03840  25412246.01040
   4826173.50800  23002317.31800                   3831533.96640  23002319.69740
  -2031059.98400  23719668.62300                  -1527975.81940  23719671.50640
 96  9  4  1 19  0.0060000  0  6  1 14 15 22 25 29
  37020117.57200  26211312.20900                  28945360.08840  26211319.06840
   -360557.11600  23080533.49800                   -269339.58740  23080536.93240
   6071541.42900  23239979.51400                   4832046.75440  23239983.68640
  -1674246.44900  25404593.19300                  -1224613.00240  25404599.20540
   4929125.83800  23021908.58400                   3911756.55640  23021911.16240
  -2023423.05200  23721121.88900                  -1522024.94140  23721124.70140
 96  9  4  1 19 30.0060000  0  6  1 14 15 22 25 29
  37152125.65000  26236432.81100                  29048223.54140  26236437.15840
   -369708.58600  23078792.44300                   -276470.59240  23078795.97140
   6188183.65000  23262175.99000                   4922936.77940  23262180.17440
  -1714421.20100  25396948.04500                  -1255917.96040  25396953.57640
   5032468.41600  23041573.96700                   3992283.23440  23041576.36940
  -2015663.01200  23722599.07600                  -1515978.14040  23722601.78340
 96  9  4  1 20  0.0060000  0  6  1 14 15 22 25 29
  37284078.10100  26261542.33400                  29151043.59240  26261548.22840
   -378636.42000  23077093.42800                   -283427.33340  23077096.92040
   6305276.27600  23284457.75600                   5014177.76840  23284462.24440
  -1754576.57400  25389307.10000                  -1287207.80740  25389311.88140
   5136182.30100  23061309.95100                   4073099.24740  23061312.41240
  -2007758.90800  23724102.19300                  -1509819.06640  23724104.94740
 96  9  4  1 20 30.0060000  0  6  1 14 15 22 25 29
  37416028.64200  26286651.70900                  29253862.16740  26286655.78740
   -387278.18900  23075448.70100                   -290161.16540  23075452.19340
   6422875.96500  23306836.24800                   5105813.87340  23306840.39640
  -1794644.44600  25381681.59200                  -1318429.45440  25381685.70540
   5240306.89400  23081124.17800                   4154235.29040  23081126.77940
  -1999639.85500  23725647.81100                  -1503492.51140  23725650.45940
 96  9  4  1 21  0.0060000  0  6  1 14 15 22 25 29
  37547935.27800  26311751.95100                  29356646.59540  26311756.52140
   -395675.54200  23073850.55300                   -296704.54440  23073853.97540
   6540926.62600  23329300.49000                   5197801.37440  23329304.74440
  -1834660.82600  25374066.94300                  -1349610.99440  25374072.92040
   5344776.34200  23101004.03700                   4235640.05240  23101006.43940
  -1991365.48700  23727221.61500                  -1497044.93140  23727224.48640
 96  9  4  1 21 30.0060000  0  6  1 14 15 22 25 29
  37679843.23600  26336853.83400                  29459431.92540  26336859.68240
   -403785.87700  23072307.35700                   -303024.28340  23072310.92040
   6659471.12000  23351858.74000                   5290173.68440  23351862.88940
  -1874548.40500  25366477.39600                  -1380692.14740  25366483.76040
   5449628.91700  23120956.91200                   4317343.35540  23120959.42040
  -1982916.69100  23728829.74000                  -1490461.43740  23728832.44740
 96  9  4  1 22  0.0060000  0  6  1 14 15 22 25 29
  37811753.32900  26361955.98200                  29562219.01740  26361959.07640
   -411599.10600  23070820.48200                   -309112.50440  23070823.93940
   6778509.58800  23374511.39600                   5382930.91040  23374515.70940
  -1914280.33400  25358916.90400                  -1411652.02940  25358921.74440
   5554882.79600  23140986.46700                   4399359.36240  23140988.96340
  -1974313.64400  23730466.96700                  -1483757.74340  23730469.61540
 96  9  4  1 22 30.0060000  0  6  1 14 15 22 25 29
  37943653.44400  26387055.46700                  29664998.31440  26387060.64640
   -419135.47200  23069386.73200                   -314984.99340  23069390.17840
   6898015.01000  23397252.48200                   5476051.99640  23397256.57240
  -1953884.44300  25351380.00600                  -1442512.32240  25351384.78740
   5660529.36800  23161089.49800                   4481681.36440  23161092.17040
  -1965604.20600  23732124.44300                  -1476971.14240  23732127.29140
 96  9  4  1 23  0.0060000  0  6  1 14 15 22 25 29
  38075543.06600  26412152.26400                  29767769.44640  26412157.66640
   -426400.90400  23068003.85700                   -320646.36740  23068007.33840
   7017982.87700  23420081.43600                   5569533.42840  23420085.66640
  -1993359.12900  25343867.75600                  -1473271.75840  25343871.54140
   5766568.68400  23181268.57600                   4564309.39940  23181270.97840
  -1956798.55300  23733800.26400                  -1470109.58340  23733803.04140
 96  9  4  1 23 30.0060000  0  6  1 14 15 22 25 29
  38207415.64100  26437247.28700                  29870527.22040  26437253.00640
   -433394.45000  23066673.09200                   -326095.88240  23066676.68940
   7138412.00900  23442998.35700                   5663374.28840  23443002.60040
  -2032714.53000  25336378.56800                  -1503938.25740  25336383.57240
   5873001.47500  23201521.81800                   4647244.04140  23201524.35040
  -1947890.91200  23735495.04500                  -1463168.54640  23735497.61140
 96  9  4  1 24  0.0060000  0  6  1 14 15 22 25 29
  38339255.67500  26462337.21700                  29973259.69340  26462341.03740
   -440119.08000  23065393.56800                   -331335.85940  23065397.07240
   7259287.18200  23466000.32600                   5757562.70540  23466004.58040
  -2071984.11800  25328905.48200                  -1534537.88540  25328910.00640
   5979816.05200  23221847.95100                   4730476.17740  23221850.43640
  -1938858.20600  23737213.87300                  -1456130.05140  23737216.68640
 96  9  4  1 24 30.0060000  0  6  1 14 15 22 25 29
  38471047.07500  26487414.68600                  30075954.29040  26487420.19340
   -446591.00000  23064161.91200                   -336378.90740  23064165.46340
   7380592.82900  23489083.95900                   5852086.55640  23489088.08440
  -2111190.02700  25321445.56100                  -1565087.85640  25321450.76440
   6086984.45700  23242241.49800                   4813984.02140  23242244.13540
  -1929693.53400  23738958.13900                  -1448988.73140  23738960.91640
 96  9  4  1 25  0.0060000  0  6  1 14 15 22 25 29
  38602784.49900  26512484.84200                  30178606.72740  26512491.18240
   -452809.37000  23062978.81800                   -341224.39540  23062982.39340
   7502325.25700  23512248.90400                   5946942.97440  23512253.22840
  -2150322.83100  25313998.59200                  -1595580.88540  25314002.97540
   6194490.94500  23262699.58400                   4897755.30340  23262702.24440
  -1920384.62800  23740729.16200                  -1441735.02740  23740731.71740
 96  9  4  1 25 30.0060000  0  6  1 14 15 22 25 29
  38734509.94100  26537549.92000                  30281249.89840  26537553.78740
   -458726.31300  23061852.58400                   -345834.99840  23061856.10040
   7624530.93400  23535503.56100                   6042168.14940  23535507.58040
  -2189335.53100  25306574.43600                  -1625980.33340  25306579.24040
   6302392.08700  23283232.35700                   4981834.11640  23283234.71340
  -1910869.34600  23742539.75600                  -1434320.50240  23742542.62740
 96  9  4  1 26  0.0060000  0  6  1 14 15 22 25 29
  38866224.37800  26562614.31800                  30383884.51140  26562618.58440
   -464351.56800  23060782.30300                   -350218.31440  23060785.81840
   7747204.37800  23558847.83400                   6137757.81540  23558851.91240
  -2228226.13500  25299173.35000                  -1656284.63240  25299178.60040
   6410694.25800  23303841.88900                   5066225.41440  23303844.25640
  -1901151.27500  23744388.68600                  -1426747.96540  23744391.52140
 96  9  4  1 26 30.0060000  0  6  1 14 15 22 25 29
  38997925.81800  26587677.44300                  30486508.97740  26587684.07640
   -469709.47200  23059762.42800                   -354393.29840  23059765.99040
   7870327.35500  23582277.59200                   6233697.76440  23582282.06840
  -2267007.44400  25291794.12300                  -1686503.78740  25291799.16240
   6519379.51900  23324523.89600                   5150915.22740  23324526.46340
  -1891283.05300  23746267.45900                  -1419058.42340  23746270.26040
 96  9  4  1 27  0.0060000  0  6  1 14 15 22 25 29
  39129560.85500  26612726.31800                  30589081.67640  26612730.04540
   -474838.99300  23058786.63900                   -358390.33040  23058790.13140
   7993846.57600  23605782.13900                   6329946.49240  23605786.60340
  -2305728.56500  25284425.58400                  -1716676.02640  25284431.65440
   6628404.21500  23345270.10700                   5235869.53140  23345272.66240
  -1881329.27900  23748161.42000                  -1411302.23040  23748164.12740
 96  9  4  1 27 30.0060000  0  6  1 14 15 22 25 29
  39261205.98500  26637776.92800                  30691662.31040  26637779.98640
   -479659.70000  23057868.95900                   -362146.71740  23057872.51040
   8117831.75200  23629376.12300                   6426558.28940  23629380.13140
  -2344330.76500  25277079.56800                  -1746755.58140  25277084.86540
   6737848.84000  23366097.10000                   5321151.05240  23366099.39640
  -1871215.84900  23750085.48200                  -1403421.61940  23750088.17840
 96  9  4  1 28  0.0060000  0  6  1 14 15 22 25 29
  39392829.20600  26662824.17800                  30794225.78940  26662827.55340
   -484187.17400  23057007.52900                   -365674.60840  23057011.06840
   8242241.49100  23653050.27100                   6523500.91640  23653054.76040
  -2382847.39800  25269749.75600                  -1776768.47240  25269754.25640
   6847658.91300  23386993.20900                   5406717.34340  23386995.69340
  -1861003.56400  23752029.20100                  -1395463.98340  23752031.88540
 96  9  4  1 28 30.0060000  0  6  1 14 15 22 25 29
  39524448.70500  26687870.29500                  30896786.41340  26687872.72140
   -488387.21500  23056208.27900                   -368947.35540  23056211.76040
   8367092.08000  23676808.78700                   6620787.06840  23676812.99440
  -2421256.20800  25262440.42800                  -1806697.33640  25262445.90040
   6957835.75700  23407959.06100                   5492569.42440  23407961.51040
  -1850671.17600  23753995.40400                  -1387412.75740  23753998.27540
 96  9  4  1 29  0.0070000  0  6  1 14 15 22 25 29
  39656010.63800  26712905.90900                  30999302.20540  26712911.00740
   -492310.04500  23055462.09700                   -372004.09640  23055465.44840
   8492330.85700  23700640.51900                   6718375.70640  23700644.77240
  -2459602.50200  25255144.24500                  -1836577.54040  25255148.79240
   7068320.90800  23428983.69800                   5578661.74640  23428986.14740
  -1840245.28500  23755979.08100                  -1379288.67940  23755981.80040
 96  9  4  1 29 30.0070000  0  6  1 14 15 22 25 29
  39787571.88000  26737942.08100                  31101817.46740  26737946.71040
   -495915.38900  23054775.30800                   -374813.43740  23054778.78840
   8618000.27300  23724555.18300                   6816299.89940  23724559.58940
  -2497813.34100  25247872.73700                  -1866352.13640  25247878.26940
   7179146.08500  23450073.19800                   5665019.02040  23450075.61240
  -1829665.22100  23757992.40100                  -1371044.45440  23757995.23740
 96  9  4  1 30  0.0070000  0  6  1 14 15 22 25 29
  39919125.00300  26762975.17500                  31204326.31840  26762983.30040
   -499217.57300  23054147.62800                   -377386.55140  23054151.05040
   8744099.50600  23748550.81500                   6914559.02640  23748555.31540
  -2535869.06500  25240630.65100                  -1896005.88540  25240636.22940
   7290317.35500  23471228.12000                   5751645.98340  23471230.56940
  -1818933.25300  23760034.67500                  -1362681.87840  23760037.41740
 96  9  4  1 30 30.0070000  0  6  1 14 15 22 25 29
  40050657.96000  26788005.01900                  31306819.56940  26788009.00340
   -502251.81800  23053569.90900                   -379750.87640  23053573.35440
   8870610.87700  23772625.04200                   7013139.28640  23772629.12040
  -2573780.60300  25233416.72900                  -1925547.28140  25233421.53440
   7401825.83500  23492447.37800                   5838535.70040  23492449.78040
  -1808046.88000  23762106.06500                  -1354198.97640  23762108.85440
 96  9  4  1 31  0.0070000  0  6  1 14 15 22 25 29
  40182150.75500  26813027.44000                  31409281.44740  26813029.96040
   -505039.57900  23053038.94800                   -381923.13640  23053042.32340
   8997508.67500  23796772.76900                   7112020.66940  23796776.83540
  -2611554.25000  25226228.70600                  -1954981.21340  25226233.47640
   7513656.78200  23513728.51900                   5925676.69240  23513730.97940
  -1797030.61700  23764202.76100                  -1345614.85940  23764205.18640
 96  9  4  1 31 30.0070000  0  6  1 14 15 22 25 29
  40313620.55700  26838045.60400                  31511725.37040  26838053.88240
   -507549.27900  23052561.91700                   -383878.72940  23052565.16340
   9124809.47600  23820997.77600                   7211216.07940  23821002.00740
  -2649175.00800  25219069.08900                  -1984296.04140  25219073.48340
   7625835.32800  23535075.71400                   6013088.53940  23535078.04640
  -1785874.55300  23766325.77600                  -1336921.81140  23766328.56540
 96  9  4  1 32  0.0070000  0  6  1 14 15 22 25 29
  40445109.64700  26863067.26900                  31614184.40640  26863070.65540
   -509718.16200  23052149.26900                   -385568.75040  23052152.72640
   9252553.28000  23845306.39400                   7310756.68240  23845310.98740
  -2686606.44100  25211946.12000                  -2013463.34440  25211950.47940
   7738393.42900  23556494.41700                   6100796.14940  23556496.81940
  -1774542.38100  23768481.52600                  -1328091.53740  23768484.24540
 96  9  4  1 32 30.0070000  0  6  1 14 15 22 25 29
  40576561.13100  26888080.49500                  31716614.13140  26888086.58940
   -511599.86500  23051791.03400                   -387034.99840  23051794.51540
   9380669.66200  23869686.44800                   7410587.60740  23869690.60840
  -2723911.51800  25204847.70600                  -2042532.18040  25204852.31140
   7851244.10600  23577969.15900                   6188731.73340  23577971.44440
  -1763108.40100  23770657.40100                  -1319181.92540  23770660.12040
 96  9  4  1 33  0.0070000  0  6  1 14 15 22 25 29
  40707958.00900  26913085.97200                  31819001.27940  26913090.43640
   -513189.22500  23051488.44000                   -388273.44540  23051491.92140
   9509149.38600  23894135.01900                   7510701.66440  23894139.46040
  -2761082.74400  25197774.11200                  -2071496.74740  25197778.55440
   7964380.16600  23599498.44000                   6276889.70040  23599500.78440
  -1751585.80700  23772850.37800                  -1310203.26740  23772853.21440
 96  9  4  1 33 30.0070000  0  5 14 15 22 25 29
   -514498.95000  23051239.30000                   -389293.99440  23051242.72240
   9637986.41800  23918652.60400                   7611094.12440  23918656.71840
  -2798127.47200  25190724.36200                  -2100362.67640  25190730.21040
   8077794.22300  23621080.24500                   6365264.28540  23621082.76540
  -1739985.99600  23775057.55800                  -1301164.43840  23775060.14740
 96  9  4  1 34  0.0070000  0  5 14 15 22 25 29
   -515460.56300  23051056.17500                   -390043.28940  23051059.50340
   9767257.05300  23943251.36200                   7711824.48040  23943255.76940
  -2834950.47400  25183717.23700                  -2129055.86240  25183721.94840
   8191565.38000  23642729.90100                   6453917.13540  23642732.52640
  -1728229.99700  23777295.22200                  -1292003.90040  23777297.94040
 96  9  4  1 34 30.0070000  0  5 14 15 22 25 29
   -516160.80400  23050922.80800                   -390588.91840  23050926.22940
   9896884.35000  23967919.01900                   7812832.74340  23967922.99140
  -2871624.14400  25176738.54200                  -2157632.69940  25176742.98340
   8305638.19100  23664437.58100                   6542805.03640  23664440.24140
  -1716381.29600  23779549.79200                  -1282771.13140  23779552.49940
 96  9  4  1 35  0.0070000  0  5 14 15 22 25 29
   -516534.08600  23050851.87000                   -390879.77940  23050855.38640
  10026927.21900  23992665.12000                   7914164.83040  23992669.37440
  -2908104.99200  25169795.73700                  -2186059.28340  25169800.21440
   8420085.63200  23686215.97900                   6631984.86040  23686218.34740
  -1704377.09900  23781834.32300                  -1273417.18940  23781837.07740
 96  9  4  1 35 30.0070000  0  5 14 15 22 25 29
   -516637.49400  23050832.34700                   -390960.34840  23050835.78040
  10157318.74100  24017477.97200                   8015768.59440  24017482.39040
  -2944473.81100  25162875.24500                  -2214398.54340  25162881.24540
   8534831.32300  23708051.33900                   6721397.08440  23708053.71840
  -1692279.60800  23784136.40100                  -1263990.55540  23784139.12040
 96  9  4  1 36  0.0070000  0  5 14 15 22 25 29
   -516503.29700  23050857.90900                   -390855.77940  23050861.42540
  10288010.86600  24042347.77600                   8117606.59140  24042352.08940
  -2980782.38800  25155966.26900                  -2242690.91840  25155971.34340
   8649824.37400  23729934.12800                   6811002.05440  23729936.53040
  -1680120.02800  23786449.80800                  -1254515.54340  23786452.37440
 96  9  4  1 36 30.0070000  0  5 14 15 22 25 29
   -516034.46600  23050946.67500                   -390490.44640  23050950.10840
  10419082.78500  24067289.90900                   8219740.53140  24067294.42140
  -3016955.53300  25149082.84700                  -2270877.72540  25149087.94440
   8765142.50800  23751877.98700                   6900860.34240  23751880.42540
  -1667814.61000  23788790.89400                  -1244926.89040  23788793.64740
 96  9  4  1 37  0.0070000  0  5 14 15 22 25 29
   -515236.27700  23051098.83900                   -389868.47440  23051102.37840
  10550516.58300  24092300.41700                   8322156.46040  24092304.84740
  -3052996.54100  25142224.21400                  -2298961.56240  25142227.56540
   8880765.59000  23773880.58100                   6990956.25240  23773883.03040
  -1655386.90600  23791155.87800                  -1235242.94040  23791158.52640
 96  9  4  1 37 30.0070000  0  5 14 15 22 25 29
   -514088.32400  23051316.97200                   -388973.96340  23051320.39440
  10682335.29900  24117385.20600                   8424872.32240  24117389.84740
  -3088857.18000  25135400.46400                  -2326904.87340  25135404.64740
   8996703.61800  23795943.12800                   7081297.56940  23795945.44840
  -1642799.20300  23793552.02600                  -1225434.32740  23793554.67540
 96  9  4  1 38  0.0070000  0  5 14 15 22 25 29
   -512599.38200  23051600.82300                   -387813.74440  23051604.16340
  10814533.38200  24142541.29200                   8527883.80040  24142546.40140
  -3124522.44100  25128612.87000                  -2354695.92940  25128617.30040
   9112965.23300  23818066.85400                   7171891.03640  23818069.37440
  -1630056.06100  23795977.01900                  -1215504.59240  23795979.70240
 96  9  4  1 38 30.0070000  0  5 14 15 22 25 29
   -510786.61900  23051945.45600                   -386401.19540  23051948.96040
  10947087.67200  24167765.83100                   8631172.83340  24167770.12040
  -3159993.57400  25121863.22200                  -2382335.69840  25121868.09740
   9229530.29300  23840248.27600                   7262720.94740  23840250.92540
  -1617186.83400  23798425.18300                  -1205476.60840  23798427.76140
 96  9  4  1 39  0.0070000  0  5 14 15 22 25 29
   -508660.43600  23052350.38600                   -384744.42240  23052353.99540
  11079983.55200  24193055.22200                   8734728.03540  24193059.72240
  -3195285.43800  25115147.74500                  -2409835.82440  25115151.29640
   9346375.54300  23862483.19800                   7353769.19340  23862485.63640
  -1604209.36800  23800894.85400                  -1195364.28040  23800897.32740
 96  9  4  1 39 30.0070000  0  5 14 15 22 25 29
   -506214.14000  23052815.76900                   -382838.21240  23052819.09740
  11213223.32800  24218409.72900                   8838551.20440  24218414.19440
  -3230404.19800  25108464.65900                  -2437201.05640  25108469.18340
   9463494.59200  23884770.35400                   7445030.78640  23884772.72240
  -1591120.89100  23803386.08900                  -1185165.45540  23803388.78440
 96  9  4  1 40  0.0070000  0  5 14 15 22 25 29
   -503417.50000  23053347.77600                   -380659.00940  23053351.16340
  11346823.24600  24243833.22900                   8942655.00940  24243837.81140
  -3265333.63300  25101817.98700                  -2464418.73340  25101822.52240
   9580917.63600  23907115.36200                   7536529.25840  23907117.89440
  -1577916.74400  23805898.30800                  -1174876.48740  23805900.96840
 96  9  4  1 40 30.0070000  0  5 14 15 22 25 29
   -500315.33700  23053938.25300                   -378241.73440  23053941.55840
  11480733.26400  24269315.27600                   9047000.44940  24269320.10440
  -3300123.11100  25095197.35400                  -2491527.37340  25095202.04240
   9698591.30800  23929507.71400                   7628223.02240  23929510.32740
  -1564643.69600  23808424.29200                  -1164533.83840  23808426.98740
 96  9  4  1 41  0.0070000  0  5 14 15 22 25 29
   -496866.60600  23054594.51100                   -375554.40140  23054597.99140
  11615001.66500  24294865.96400                   9151625.14440  24294870.33540
  -3334730.70700  25088612.31500                  -2518494.27940  25088616.06540
   9816563.51500  23951957.11200                   7720149.41740  23951959.62040
  -1551256.77300  23810971.52600                  -1154102.45640  23810974.12840
 96  9  4  1 41 30.0070000  0  5 14 15 22 25 29
   -493105.03200  23055310.33900                   -372623.29540  23055313.71440
  11749598.04800  24320478.38600                   9256505.41540  24320483.10840
  -3369163.42100  25082059.22200                  -2545324.90340  25082064.39040
   9934822.58300  23974461.01100                   7812299.33240  23974463.63640
  -1537768.04900  23813538.12800                  -1143591.75140  23813540.65940
 96  9  4  1 42  0.0070000  0  5 14 15 22 25 29
   -488986.87800  23056093.75300                   -369414.33340  23056097.14040
  11884568.85900  24346162.83100                   9361677.44240  24346167.17940
  -3403360.06500  25075552.26900                  -2571971.57840  25075556.54640
  10053430.33200  23997031.47900                   7904720.94340  23997034.17540
  -1524118.35900  23816135.44000                  -1132955.61740  23816138.05440
 96  9  4  1 42 30.0070000  0  5 14 15 22 25 29
   -484577.08200  23056933.34700                   -365978.12540  23056936.66340
  12019848.94900  24371905.37800                   9467090.46640  24371910.15940
  -3437381.64500  25069077.83900                  -2598481.87840  25069081.72940
  10172321.80900  24019655.76900                   7997363.65140  24019658.41740
  -1510358.24400  23818754.33900                  -1122233.44640  23818756.78840
 96  9  4  1 43  0.0070000  0  5 14 15 22 25 29
   -479819.76600  23057838.28400                   -362271.12040  23057841.56540
  12155482.43300  24397715.61200                   9572778.87340  24397719.94840
  -3471178.85700  25062646.09700                  -2624817.28740  25062651.31140
  10291539.06800  24042341.89400                   8090260.20940  24042344.33140
  -1496433.93300  23821403.76900                  -1111383.31840  23821406.44040
 96  9  4  1 43 30.0080000  0  5 14 15 22 25 29
   -474758.40700  23058801.64100                   -358327.19440  23058805.09840
  12291421.43000  24423584.46100                   9678705.32240  24423589.04340
  -3504789.98700  25056250.15600                  -2651007.72940  25056254.02340
  10411039.44400  24065081.88300                   8183377.37840  24065084.50840
  -1482379.43700  23824078.86700                  -1100431.76140  23824081.39840
 96  9  4  1 44  0.0080000  0  5 14 15 22 25 29
   -469374.67700  23059826.05500                   -354132.07640  23059829.45340
  12427667.05400  24449511.12500                   9784870.71640  24449515.96540
  -3538201.07900  25049893.07000                  -2677042.29640  25049897.06640
  10530820.62700  24087875.71900                   8276713.35340  24087878.41440
  -1468198.58100  23826776.97700                  -1089381.73240  23826779.43740
 96  9  4  1 44 30.0080000  0  5 14 15 22 25 29
   -463641.35400  23060917.00800                   -349664.53940  23060920.32440
  12564234.14900  24475499.29700                   9891286.60440  24475504.07840
  -3571396.43500  25043575.60200                  -2702908.76140  25043580.05540
  10650887.07300  24110723.61700                   8370271.61340  24110726.19540
  -1453890.96500  23829499.38300                  -1078232.93240  23829501.90240
 96  9  4  1 45  0.0080000  0  5 14 15 22 25 29
   -457516.26900  23062082.65600                   -344891.74540  23062085.96140
  12701158.79700  24501554.71100                   9997981.10640  24501559.36340
  -3604326.05000  25037309.26600                  -2728568.16540  25037313.51940
  10771264.66400  24133630.58600                   8464072.31940  24133632.98840
  -1439415.50300  23832254.18700                  -1066953.34540  23832256.76640
 96  9  4  1 45 30.0080000  0  5 14 15 22 25 29
   -451052.93500  23063312.27300                   -339855.36740  23063315.73040
  12838381.07300  24527667.44500                  10104907.51540  24527672.13340
  -3637043.07400  25031083.18000                  -2754061.88640  25031087.99640
  10891890.51900  24156585.46900                   8558066.49240  24156587.90640
  -1424842.12800  23835026.90600                  -1055597.46140  23835029.57840
 96  9  4  1 46  0.0080000  0  6 14 15 18 22 25 29
   -444240.69900  23064609.10200                   -334547.12840  23064612.44140
  12975894.89000  24553835.32000                  10212061.11340  24553839.84440
     -4944.01710  27119453.35200
  -3669553.84300  25024896.45300                  -2779394.90640  25024901.03540
  11012749.59200  24179583.83600                   8652242.38340  24179586.10940
  -1410186.96900  23837816.31200                  -1044177.85240  23837818.83240
 96  9  4  1 46 30.0080000  0  6 14 15 18 22 25 29
   -437057.01000  23065975.75800                   -328949.43640  23065979.10940
  13113713.48100  24580061.13300                  10319452.18840  24580065.28140
    -34612.80600  27113807.35900
  -3701846.30100  25018751.22700                  -2804557.83940  25018755.93740
  11133848.75600  24202628.14800                   8746605.36840  24202630.82040
  -1395425.37000  23840624.99200                  -1032675.29140  23840627.55940
 96  9  4  1 47  0.0080000  0  6 14 15 18 22 25 29
   -429478.63000  23067418.19500                   -323044.20440  23067421.43040
  13251865.12100  24606351.05500                  10427102.77140  24606355.39140
    -64240.34200  27108169.74200
  -3733883.91400  25012655.02300                  -2829522.14940  25012659.87540
  11255211.47500  24225722.81200                   8841173.70740  24225725.48440
  -1380509.06700  23843463.93000                  -1021052.19340  23843466.33240
 96  9  4  1 47 30.0080000  0  6 14 15 18 22 25 29
   -421545.98300  23068927.20300                   -316862.90740  23068930.56640
  13390308.35100  24632695.89100                  10534980.57540  24632700.78940
    -93844.38300  27102536.76600                    -13842.86050  27102543.25840
  -3765704.39000  25006599.74200                  -2854317.29440  25006603.63340
  11376810.93400  24248861.98400                   8935926.52740  24248864.51640
  -1365493.53000  23846321.29700                  -1009351.76040  23846323.87540
 96  9  4  1 48  0.0080000  0  6 14 15 18 22 25 29
   -413274.99300  23070501.00800                   -310417.97640  23070504.40640
  13529028.97700  24659093.10900                  10643074.54740  24659097.70340
   -123429.60800  27096907.62500                    -36896.23840  27096916.98040
  -3797310.09800  25000585.37500                  -2878945.06140  25000589.81640
  11498652.30900  24272048.13300                   9030867.85540  24272050.92240
  -1350371.68600  23849198.65600                   -997568.49640  23849201.37540
 96  9  4  1 48 30.0080000  0  6 14 15 18 22 25 29
   -404686.63700  23072135.58600                   -303725.74640  23072139.06640
  13668020.30500  24685542.39100                  10751379.43740  24685547.05540
   -153018.39700  27091277.90600                    -59952.52640  27091278.52740
  -3828696.75800  24994612.71100                  -2903402.13640  24994616.64840
  11620735.59800  24295279.67200                   9125997.68340  24295282.55540
  -1335128.28500  23852099.28100                   -985690.50640  23852101.97740
 96  9  4  1 49  0.0080000  0  6 14 15 18 22 25 29
   -395773.91900  23073831.67200                   -296780.76540  23073835.08240
  13807282.79100  24712043.32800                  10859895.62740  24712047.84040
   -182628.42700  27085642.64800                    -83025.14240  27085653.10540
  -3859844.82500  24988685.05500                  -2927673.34340  24988689.02740
  11743071.88200  24318559.59400                   9221324.65740  24318561.87940
  -1319763.34400  23855023.16400                   -973717.81440  23855025.82440
 96  9  4  1 49 30.0080000  0  6 14 15 18 22 25 29
   -386487.93300  23075598.64800                   -289544.93040  23075602.19940
  13946840.44200  24738600.30500                  10968641.81440  24738604.91040
   -212255.07300  27080004.87500                   -106110.63340  27080007.60540
  -3890729.79000  24982808.14800                  -2951739.47940  24982813.07040
  11865712.49200  24341897.45300                   9316888.76640  24341900.01940
  -1304259.22100  23857973.84400                   -961636.66540  23857976.44540
 96  9  4  1 50  0.0080000  0  6 14 15 18 22 25 29
   -376818.93600  23077438.80500                   -282010.64040  23077442.23840
  14086695.54000  24765214.13300                  11077619.77040  24765218.41040
   -241916.20400  27074360.58600                   -129223.21240  27074366.24640
  -3921351.07000  24976980.71100                  -2975600.17740  24976985.34040
  11988645.82400  24365290.60900                   9412680.96940  24365293.14140
  -1288603.15600  23860952.84400                   -949437.12340  23860955.52740
 96  9  4  1 50 30.0080000  0  6 14 15 18 22 25 29
   -366767.13400  23079351.74200                   -274178.06140  23079355.19940
  14226842.75800  24791883.02300                  11186825.35840  24791888.00440
   -271617.50600  27068707.96900                   -152366.97340  27068716.44540
  -3951707.33900  24971204.03100                  -2999254.33340  24971209.50440
  12111845.24100  24388735.18700                   9508680.50840  24388737.96540
  -1272818.37500  23863956.42200                   -937137.27340  23863958.97740
 96  9  4  1 51  0.0080000  0  6 14 15 18 22 25 29
   -356331.27800  23081337.28100                   -266046.22740  23081340.72740
  14367262.01700  24818603.70300                  11296242.93240  24818608.46140
   -301353.32800  27063050.28900                   -175537.72440  27063053.89840
  -3981811.69000  24965475.60200                  -3022712.22440  24965480.11340
  12235292.42500  24412225.70300                   9604873.11440  24412228.49240
  -1256946.58000  23866976.60200                   -924769.62640  23866979.01640
 96  9  4  1 51 30.0080000  0  5 14 15 22 25 29
   -345534.75300  23083391.85200                   -257633.34940  23083395.20340
  14507932.35800  24845372.96100                  11405856.14540  24845377.53140
  -4011689.52500  24959790.53900                  -3045993.61340  24959794.80540
  12358957.43600  24435759.14800                   9701235.44940  24435761.62140
  -1241009.65900  23870009.71900                   -912351.23140  23870012.26240
 96  9  4  1 52  0.0080000  0  6 14 15 18 22 25 29
   -334380.35600  23085514.32800                   -248941.60540  23085517.83240
  14648869.10300  24872192.07800                  11515676.94840  24872196.37940
    -16870.08510  27051717.85900
  -4041302.75800  24954154.53900                  -3069068.80740  24954158.57040
  12482832.33700  24459331.29700                   9797761.35040  24459333.80540
  -1224978.64600  23873060.11700                   -899859.51140  23873062.55540
 96  9  4  1 52 30.0080000  0  6 14 15 18 22 25 29
   -322824.02400  23087713.86700                   -239936.67140  23087717.11340
  14790100.29000  24899067.75000                  11625727.18940  24899072.56640
    -46598.58800  27046060.50000
  -4070610.78600  24948577.69500                  -3091906.18240  24948582.87540
  12606964.75900  24482953.42200                   9894487.91040  24482955.46140
  -1208805.19700  23876137.64800                   -887256.80440  23876139.98040
 96  9  4  1 53  0.0080000  0  6 14 15 18 22 25 29
   -310899.77100  23089982.67200                   -230645.04840  23089986.01240
  14931569.93600  24925988.27300                  11735963.24440  24925992.89140
    -76331.93600  27040402.27300                         0.34050  27040413.85540
  -4099678.18900  24943046.25000                  -3114556.05340  24943050.62140
  12731324.59900  24506617.70300                   9991391.67940  24506619.85940
  -1192516.95500  23879237.46900                   -874564.65540  23879239.77740
 96  9  4  1 53 30.0080000  0  6 14 15 18 22 25 29
   -298563.38700  23092330.16400                   -221032.27440  23092333.51640
  15073320.80600  24952962.79700                  11846418.42840  24952967.63740
   -106039.16300  27034748.75800                    -23148.06340  27034752.12140
  -4128456.95300  24937569.81200                  -3136981.04340  24937574.12540
  12855951.15200  24530333.47700                  10088503.26840  24530335.77340
  -1176047.34900  23882371.41400                   -861731.17940  23882373.94540
 96  9  4  1 54  0.0080000  0  6 14 15 18 22 25 29
   -285819.47300  23094755.17200                   -211101.95240  23094758.58240
  15215334.64400  24979987.17200                  11957078.52540  24979991.62540
   -135731.94400  27029097.89800                    -46285.18140  27029099.26940
  -4156958.78000  24932145.41400                  -3159190.21340  24932150.54740
  12980831.46800  24554097.36700                  10185812.59440  24554100.01640
  -1159406.31200  23885538.07000                   -848764.12540  23885540.55540
 96  9  4  1 54 30.0080000  0  6 14 15 18 22 25 29
   -272657.95200  23097259.50800                   -200846.21140  23097262.89440
  15357604.53800  25007060.19500                  12067938.13340  25007065.17640
   -165427.95800  27023449.12500                    -69424.86940  27023452.69940
  -4185202.43500  24926771.53100                  -3181198.18340  24926776.09040
  13105962.88000  24577908.89100                  10283317.58540  24577911.30540
  -1142618.43000  23888732.96100                   -835682.64240  23888735.42240
 96  9  4  1 55  0.0080000  0  6 14 15 18 22 25 29
   -259102.17900  23099839.57000                   -190283.27040  23099842.94540
  15500116.60600  25034179.21900                  12178986.46440  25034184.26940
   -195151.47300  27017790.37500                    -92585.96640  27017796.23440
  -4213182.68700  24921446.57000                  -3203000.96240  24921451.14140
  13231307.45200  24601761.61700                  10380988.66840  24601764.01940
  -1125723.45300  23891947.94500                   -822517.70840  23891950.47740
 96  9  4  1 55 30.0080000  0  6 14 15 18 22 25 29
   -245152.65000  23102493.88300                   -179413.50240  23102497.26940
  15642893.63200  25061348.96900                  12290241.24040  25061353.98440
   -224867.66100  27012136.65600                   -115741.40640  27012140.07840
  -4240852.54100  24916181.73400                  -3224561.82340  24916186.26940
  13356864.21800  24625654.38300                  10478825.10940  24625657.16040
  -1108716.12800  23895183.86700                   -809265.22940  23895186.53940
 96  9  4  1 56  0.0080000  0  6 14 15 18 22 25 29
   -230829.67100  23105219.40600                   -168252.73540  23105222.78140
  15785922.08000  25088566.33600                  12401691.94840  25088571.07040
   -254582.05100  27006480.62500                   -138895.35340  27006484.91440
  -4268217.59300  24910974.40600                  -3245885.19640  24910978.70740
  13482622.80700  24649585.05500                  10576818.80640  24649587.56240
  -1091614.29200  23898438.49200                   -795939.11340  23898440.95340
 96  9  4  1 56 30.0080000  0  6 14 15 18 22 25 29
   -216157.65100  23108011.30500                   -156819.99040  23108014.80940
  15929179.30800  25115827.19500                  12513320.90440  25115832.11740
   -284317.22200  27000824.47700                   -162065.48240  27000831.65240
  -4295283.02800  24905823.32800                  -3266975.11440  24905827.39440
  13608561.41500  24673550.46900                  10674952.77840  24673553.05940
  -1074435.82300  23901707.23400                   -782553.28240  23901709.88340
 96  9  4  1 57  0.0080000  0  6 14 15 18 22 25 29
   -201145.27600  23110868.28900                   -145122.02740  23110871.64140
  16072653.28200  25143129.31200                  12625118.76940  25143134.22340
   -314060.78900  26995163.71100                   -185242.23740  26995169.00840
  -4322049.24800  24900729.97700                  -3287831.86340  24900734.93440
  13734678.85500  24697549.72700                  10773226.09140  24697552.19940
  -1057173.06800  23904991.96100                   -769101.77240  23904994.51640
 96  9  4  1 57 30.0080000  0  6 14 15 18 22 25 29
   -185739.85500  23113799.72700                   -133117.79240  23113803.04340
  16216383.83500  25170479.90600                  12737116.56440  25170484.40640
   -343769.13800  26989508.36700                   -208391.55440  26989514.51940
  -4348488.62700  24895698.57800                  -3308433.92840  24895702.32840
  13861040.49400  24721595.21900                  10871689.70240  24721597.82040
  -1039759.44400  23908305.85900                   -755532.70540  23908308.32040
 96  9  4  1 58  0.0080000  0  6 14 15 18 22 25 29
   -169990.99000  23116796.64100                   -120845.93940  23116800.06240
  16360291.24600  25197865.19500                  12849252.16540  25197870.16440
   -373523.31700  26983848.37500                   -231576.52340  26983850.83640
  -4374689.87700  24890712.56200                  -3328850.44240  24890716.66440
  13987585.30700  24745675.94500                  10970296.03540  24745678.76940
  -1022260.04400  23911635.89100                   -741896.80040  23911638.22340
 96  9  4  1 58 30.0090000  0  6 14 15 18 22 25 29
   -153796.50900  23119878.57500                   -108226.85140  23119881.93840
  16504465.07400  25225300.81700                  12961595.36540  25225305.83340
   -403228.29700  26978194.85600                   -254723.20640  26978199.69640
  -4400563.81700  24885789.21600                  -3349011.90840  24885793.58740
  14114409.61100  24769809.79400                  11069120.16740  24769812.70040
  -1004588.38700  23914999.25500                   -728126.67440  23915001.71640
 96  9  4  1 59  0.0090000  0  6 14 15 18 22 25 29
   -137129.89100  23123049.98900                    -95239.86640  23123053.32940
  16648912.80300  25252787.95000                  13074151.98840  25252792.62640
   -432860.49700  26972555.23900                   -277813.18440  26972557.82940
  -4426097.78800  24880929.79400                  -3368908.46440  24880934.54040
  14241514.39700  24793997.48900                  11168162.84840  24794000.14940
   -986725.22200  23918397.94200                   -714207.31340  23918400.41540
 96  9  4  1 59 30.0090000  0  6 14 15 18 22 25 29
   -120094.52300  23126291.77800                    -81965.53940  23126295.20040
  16793532.93400  25280308.56700                  13186842.96640  25280313.17340
   -462536.59700  26966908.26300                   -300937.36540  26966912.85640
  -4451397.17300  24876115.89500                  -3388622.23040  24876120.10240
  14368786.58900  24818216.31700                  11267335.98140  24818219.07140
   -968768.89500  23921815.17700                   -700215.36940  23921817.60240
 96  9  4  2  0  0.0090000  0  6 14 15 18 22 25 29
   -102662.50800  23129608.58300                    -68382.14140  23129612.05240
  16938355.20300  25307867.35600                  13299691.43840  25307872.45440
   -492217.21200  26961259.70800                   -324065.09540  26961263.24740
  -4476412.74100  24871355.56000                  -3408114.82640  24871359.63840
  14496235.82400  24842469.06700                  11366647.07040  24842471.99740
   -950694.86400  23925254.31000                   -686131.70240  23925256.75940
 96  9  4  2  0 30.0090000  0  6 14 15 18 22 25 29
    -84779.26700  23133012.12200                    -54447.13740  23133015.35640
  17083440.54000  25335475.91900                  13412744.90640  25335481.21640
   -521844.14700  26955622.13800                   -347150.98640  26955628.73540
  -4501064.66500  24866664.45000                  -3427324.06940  24866668.83340
  14623915.86900  24866765.81000                  11466138.00640  24866768.50540
   -932435.90900  23928729.10600                   -671903.94140  23928731.50940
 96  9  4  2  1  0.0090000  0  6 14 15 18 22 25 29
    -66482.93200  23136493.92700                    -40190.25140  23136497.37240
  17228755.10000  25363127.81700                  13525977.00040  25363132.76340
   -551459.31700  26949987.90300                   -370227.67840  26949993.69240
  -4525386.81100  24862036.18500                  -3446276.37440  24862039.99340
  14751799.02600  24891101.16900                  11565787.22540  24891104.08740
   -914005.09500  23932235.66100                   -657542.25340  23932238.08740
 96  9  4  2  1 30.0090000  0  6 14 15 18 22 25 29
    -47739.81700  23140060.27000                    -25585.21240  23140063.65740
  17374333.43600  25390831.88000                  13639414.60140  25390836.55640
   -581037.99100  26944358.97400                   -393276.00040  26944364.79840
  -4549331.65300  24857479.48900                  -3464934.63040  24857483.59140
  14879946.27900  24915487.02800                  11665642.21940  24915489.88840
   -895366.76700  23935783.12200                   -643018.88940  23935785.52440
 96  9  4  2  2  0.0090000  0  6 14 15 18 22 25 29
    -28583.36800  23143705.56700                    -10658.09840  23143708.91940
  17520121.50400  25418573.57500                  13753015.66040  25418578.47440
   -610633.44700  26938727.02000                   -416337.34540  26938731.75540
  -4572939.51000  24852987.29400                  -3483330.33740  24852990.56340
  15008316.42400  24939914.97400                  11765670.90140  24939917.32940
   -876588.47800  23939356.00500                   -628386.45640  23939358.59540
 96  9  4  2  2 30.0090000  0  6 14 15 18 22 25 29
     -9030.56900  23147426.13000                      4577.85540  23147429.35240
  17666085.61500  25446349.75500                  13866753.88340  25446354.77040
   -640283.51200  26933085.35600                   -439441.25540  26933091.52040
  -4596251.61700  24848550.91100                  -3501495.57640  24848555.55240
  15136898.93400  24964383.47400                  11865865.06340  24964386.16940
   -857696.22400  23942951.19200                   -613665.21140  23942953.52440
 96  9  4  2  3  0.0090000  0  6 14 15 18 22 25 29
     10922.48000  23151223.30200                     20125.69240  23151226.56040
  17812215.36200  25474157.63800                  13980621.16840  25474162.45440
   -669988.32700  26927431.59100                   -462587.88640  26927437.08740
  -4619289.82500  24844167.09900                  -3519447.36840  24844170.75540
  15265680.30700  24988889.98900                  11966214.18840  24988892.19240
   -838710.88400  23946564.63000                   -598871.42840  23946567.02040
 96  9  4  2  3 30.0090000  0  6 14 15 18 22 25 29
     31324.78000  23155105.47400                     36023.58940  23155108.87240
  17958529.43800  25501999.77800                  14094632.09240  25502004.86440
   -699715.63400  26921774.34900                   -485751.86740  26921779.97440
  -4642019.14700  24839841.09100                  -3537158.52040  24839845.00540
  15394655.21700  25013433.02000                  12066714.10640  25013435.99740
   -819634.39400  23950194.13800                   -584006.62640  23950196.64540
 96  9  4  2  4  0.0090000  0  6 14 15 18 22 25 29
     52200.03700  23159078.48100                     52290.02240  23159081.76340
  18105042.72100  25529880.66900                  14208798.24640  25529885.31040
   -729427.63400  26916121.05200                   -508904.06340  26916126.04440
  -4664418.14600  24835578.87200                  -3554612.22540  24835583.10240
  15523818.79400  25038011.45000                  12167361.05040  25038013.93540
   -800443.14300  23953846.21600                   -569052.38940  23953848.72440
 96  9  4  2  4 30.0090000  0  6 14 15 18 22 25 29
     73544.53100  23163139.73900                     68922.09640  23163143.14940
  18251764.51700  25557801.10600                  14323126.86440  25557806.23940
   -759097.94800  26910474.67700                   -532023.75940  26910479.14240
  -4686464.16800  24831384.27800                  -3571790.89740  24831388.18140
  15653169.86500  25062626.69200                  12268154.09540  25062629.29440
   -781118.45200  23957523.54400                   -553994.17440  23957525.93540
 96  9  4  2  5  0.0090000  0  6 14 15 18 22 25 29
     95305.51900  23167280.91100                     85878.70940  23167284.28640
  18398649.63800  25585752.02800                  14437582.76540  25585757.36040
   -788758.87700  26904830.88800                   -555136.13140  26904835.43540
  -4708173.44400  24827252.31700                  -3588707.18740  24827256.40740
  15782646.33000  25087265.16100                  12369044.84840  25087267.57540
   -761718.74600  23961215.23100                   -538877.50440  23961217.69240
 96  9  4  2  5 30.0090000  0  6 14 15 18 22 25 29
    117508.49800  23171505.71600                    103179.73040  23171509.04440
  18545739.81500  25613742.89500                  14552198.44340  25613748.02840
   -818365.53200  26899197.10600                   -578206.17440  26899203.65740
  -4729476.34000  24823199.04400                  -3605306.81040  24823203.33340
  15912302.93700  25111938.19200                  12470075.95840  25111940.58340
   -742195.09200  23964930.26300                   -523664.24540  23964932.78240
 96  9  4  2  6  0.0090000  0  6 14 15 18 22 25 29
    140160.86400  23175816.63000                    120830.91940  23175820.07540
  18693066.10600  25641777.87200                  14666998.10140  25641783.27440
   -847894.96000  26893577.67700                   -601216.07640  26893582.30640
  -4750341.54900  24819228.22400                  -3621565.37140  24819232.77040
  16042196.54500  25136655.72400                  12571291.75940  25136658.18540
   -722502.51300  23968677.70800                   -508319.36140  23968680.18140
 96  9  4  2  6 30.0090000  0  6 14 15 18 22 25 29
    163192.82100  23180199.42700                    138777.90340  23180202.69640
  18840564.16800  25669846.14500                  14781931.60840  25669851.07940
   -877427.81600  26887957.45000                   -624228.57640  26887961.23540
  -4770835.06400  24815328.55200                  -3637534.31340  24815331.68140
  16172267.00900  25161407.17700                  12672645.35540  25161409.80240
   -702704.09700  23972445.20800                   -492892.00740  23972447.70440
 96  9  4  2  7  0.0090000  0  6 14 15 18 22 25 29
    186637.30200  23184660.87200                    157046.32640  23184664.28240
  18988257.00600  25697951.09100                  14897016.87840  25697956.32940
   -906950.43300  26882338.91900                   -647233.23840  26882342.65740
  -4790939.72000  24811502.55200                  -3653200.24840  24811506.44240
  16302547.50500  25186199.06700                  12774162.63040  25186201.41140
   -682758.65900  23976240.76300                   -477350.08840  23976243.29440
 96  9  4  2  7 30.0090000  0  6 14 15 18 22 25 29
    210481.61400  23189198.11400                    175626.30940  23189201.53640
  19136118.34100  25726087.99700                  15012233.46640  25726093.07140
   -936496.87500  26876715.73900                   -670256.34540  26876718.30640
  -4810689.19600  24807744.87200                  -3668589.40140  24807748.63440
  16433022.55900  25211026.93500                  12875831.50440  25211029.31340
   -662666.81300  23980064.07500                   -461694.08840  23980066.51340
 96  9  4  2  8  0.0090000  0  6 14 15 18 22 25 29
    234725.50100  23193811.58300                    194517.65140  23193814.91140
  19284131.86200  25754254.24700                  15127568.63140  25754259.75540
   -966087.57000  26871084.86400                   -693314.01240  26871090.52440
  -4830098.98300  24804051.43500                  -3683713.86540  24804055.52440
  16563658.41900  25235887.03600                  12977625.67640  25235889.68540
   -642436.69300  23983913.80200                   -445930.34140  23983916.29840
 96  9  4  2  8 30.0090000  0  6 14 15 18 22 25 29
    259413.29900  23198509.40300                    213754.89440  23198512.69640
  19432320.45900  25782453.82500                  15243040.22840  25782458.29040
   -995681.72000  26865453.52000                   -716374.29640  26865457.70440
  -4849135.74900  24800429.04400                  -3698547.67840  24800432.64240
  16694468.56500  25260779.11400                  13079555.64840  25260782.06740
   -622049.42100  23987793.07500                   -430044.14040  23987795.54840
 96  9  4  2  9  0.0090000  0  6 14 15 18 22 25 29
    284570.35800  23203296.74700                    233357.80340  23203300.00540
  19580680.10200  25810685.38800                  15358645.09940  25810690.83740
  -1025262.80400  26859824.52800                   -739424.45440  26859826.60240
  -4867797.38700  24796877.00500                  -3713089.18540  24796880.40340
  16825459.03700  25285705.55200                  13181626.13540  25285708.72740
   -601515.41600  23991700.77800                   -414043.60040  23991703.16940
 96  9  4  2  9 30.0090000  0  6 14 15 18 22 25 29
    310198.08200  23208173.61400                    253327.45940  23208176.86040
  19729205.54300  25838949.35600                  15474379.15440  25838954.25540
  -1054823.89300  26854200.00500                   -762459.02140  26854204.15340
  -4886090.31100  24793396.36400                  -3727343.36240  24793399.90340
  16956621.44800  25310664.40300                  13283830.60340  25310667.28640
   -580854.10700  23995632.41900                   -397943.85540  23995634.84540
 96  9  4  2 10  0.0090000  0  6 14 15 18 22 25 29
    336318.97400  23213144.36400                    273681.40140  23213147.64540
  19877912.70000  25867247.26300                  15590254.83340  25867251.72740
  -1084327.28800  26848585.25500                   -785448.60440  26848589.38040
  -4903995.47900  24789989.17700                  -3741295.40840  24789993.11440
  17087979.17200  25335661.29400                  13386187.27340  25335664.38840
   -560051.26000  23999591.16900                   -381733.83140  23999593.53640
 96  9  4  2 10 30.0090000  0  6 14 15 18 22 25 29
    362906.75300  23218203.51300                    294399.15340  23218206.82940
  20026758.31100  25895571.35600                  15706238.38340  25895576.73540
  -1113799.05800  26842975.96600                   -808413.56540  26842980.93540
  -4921563.56600  24786645.49700                  -3754984.80040  24786649.64540
  17219509.76400  25360690.79400                  13488678.62440  25360693.66540
   -539145.14800  24003569.38800                   -365443.34540  24003571.73140
 96  9  4  2 11  0.0090000  0  6 14 15 18 22 25 29
    389970.75700  23223353.84900                    315487.99340  23223357.25940
  20175755.28500  25923925.47400                  15822339.86840  25923930.70040
  -1143222.54300  26837377.27000                   -831340.90340  26837381.25540
  -4938769.27900  24783371.47400                  -3768391.81940  24783375.65740
  17351234.04100  25385757.59900                  13591320.91740  25385760.38840
   -518099.63100  24007574.31000                   -349044.23240  24007576.58340
 96  9  4  2 11 30.0090000  0  6 14 15 18 22 25 29
    417493.70600  23228591.27800                    336934.44940  23228594.61840
  20324902.56200  25952306.46600                  15938558.48640  25952312.06740
  -1172597.27900  26831787.99700                   -854230.24540  26831792.52040
  -4955586.73700  24780171.34100                  -3781496.29540  24780175.25540
  17483145.08300  25410858.97400                  13694108.72840  25410861.83340
   -496895.69000  24011609.48100                   -332521.66740  24011611.82540
 96  9  4  2 12  0.0090000  0  6 14 15 18 22 25 29
    445474.25200  23233915.91900                    358737.47040  23233919.23540
  20474201.18200  25980717.44200                  16054895.02640  25980722.45840
  -1201937.27500  26826203.73900                   -877092.52640  26826209.34140
  -4971987.08300  24777050.01300                  -3794275.76640  24777054.10240
  17615249.29900  25435997.43500                  13797047.08040  25436000.18840
   -475525.25200  24015676.00500                   -315869.36840  24015678.45440
 96  9  4  2 12 30.0090000  0  6 14 15 18 22 25 29
    473870.06700  23239319.23900                    380864.08340  23239322.60240
  20623606.81100  26009147.91900                  16171314.93640  26009153.54440
  -1231308.98700  26820614.97400                   -899979.53040  26820619.22740
  -4987989.96100  24774005.58300                  -3806745.50040  24774009.67340
  17747497.80900  25461163.56000                  13900097.85540  25461166.48940
   -454034.54300  24019765.39500                   -299123.35340  24019767.76340
 96  9  4  2 13  0.0090000  0  6 14 15 18 22 25 29
    502725.65400  23244810.25500                    403348.96140  23244813.61840
  20773171.49100  26037609.48100                  16287858.80540  26037614.29840
  -1260670.48000  26815027.61400                   -922858.58440  26815030.82540
  -5003520.25300  24771048.90300                  -3818846.98740  24771053.34540
  17879929.81800  25486365.05200                  14003291.61440  25486367.77040
   -432373.14300  24023887.41900                   -282244.33440  24023889.77440
 96  9  4  2 13 30.0100000  0  6 14 15 18 22 25 29
    532040.28600  23250388.91600                    426191.53240  23250392.13940
  20922893.31200  26066100.86900                  16404525.10640  26066106.14340
  -1290046.75400  26809437.60300                   -945749.14340  26809442.83040
  -5018601.27500  24768179.79100                  -3830598.41240  24768183.24840
  18012536.61200  25511599.41600                  14106621.56640  25511602.14640
   -410569.88600  24028036.45500                   -265254.77640  24028038.86940
 96  9  4  2 14  0.0100000  0  6 14 15 18 22 25 29
    561809.93400  23256053.36100                    449388.66440  23256056.77140
  21072742.08000  26094615.77500                  16521290.33840  26094621.44740
  -1319450.64000  26803842.50200                   -968661.19140  26803846.96740
  -5033271.51900  24765387.76800                  -3842029.73440  24765392.05740
  18145290.03400  25536861.72800                  14210065.79840  25536864.20140
   -388654.26000  24032207.01800                   -248177.65740  24032209.44340
 96  9  4  2 14 30.0100000  0  6 14 15 18 22 25 29
    592023.98700  23261803.18900                    472932.08840  23261806.49440
  21222691.41700  26123150.90000                  16638133.91740  26123154.94340
  -1348885.58800  26798241.57200                   -991597.47640  26798246.47140
  -5047585.66000  24762663.75200                  -3853183.57740  24762668.41640
  18278157.60500  25562145.22100                  14313598.96140  25562147.72840
   -366654.70400  24036393.15800                   -231035.13740  24036395.51440
 96  9  4  2 15  0.0100000  0  6 14 15 18 22 25 29
    622669.66800  23267634.98600                    496811.83940  23267638.22140
  21372727.87600  26151701.28300                  16755045.38540  26151706.45140
  -1378342.91400  26792636.08800                  -1014551.21440  26792640.90440
  -5061574.77000  24760001.87700                  -3864084.14240  24760005.66240
  18411124.51400  25587448.11100                  14417209.53040  25587450.63140
   -344577.16400  24040594.37700                   -213831.85540  24040596.74440
 96  9  4  2 15 30.0100000  0  6 14 15 18 22 25 29
    653768.10900  23273552.65000                    521044.40240  23273556.15440
  21522860.74000  26180270.76000                  16872031.97240  26180276.09240
  -1407795.91400  26787029.92400                  -1037501.53240  26787034.29540
  -5075229.29000  24757403.59600                  -3874724.00040  24757407.70940
  18544213.55500  25612774.04100                  14520915.27340  25612776.58440
   -322409.55700  24044812.53300                   -196558.38740  24044814.76040
 96  9  4  2 16  0.0100000  0  6 14 15 18 22 25 29
    685393.12100  23279570.69700                    545687.27240  23279573.87340
  21673155.44400  26208871.21300                  16989144.67440  26208876.63940
  -1437158.77700  26781443.12700                  -1060381.62540  26781448.10740
  -5088458.85600  24754885.97800                  -3885032.70040  24754889.95140
  18677492.12700  25638136.08000                  14624768.71040  25638138.86940
   -300065.58700  24049064.69700                   -179147.49740  24049066.99440
 96  9  4  2 16 30.0100000  0  6 14 15 18 22 25 29
    717516.13600  23285683.42400                    570718.19540  23285686.70540
  21823589.58700  26237497.22100                  17106366.03740  26237502.30740
  -1466455.82800  26775868.37700                  -1083210.46740  26775872.31440
  -5101265.94400  24752448.99400                  -3895012.23240  24752452.76840
  18810934.72100  25663529.45500                  14728749.94240  25663532.26840
   -277557.35800  24053347.87700                   -161608.60740  24053350.16240
 96  9  4  2 17  0.0100000  0  6 14 15 18 22 25 29
    750100.63100  23291884.03300                    596108.71240  23291887.35040
  21974138.00600  26266146.23600                  17223676.42340  26266151.60340
  -1495723.26500  26770299.09600                  -1106016.21140  26770302.97540
  -5113655.92900  24750091.15800                  -3904666.72440  24750095.02540
  18944521.81600  25688950.39300                  14832843.79440  25688953.29940
   -254895.84600  24057660.00200                   -143950.28440  24057662.40440
 96  9  4  2 17 30.0100000  0  6 14 15 18 22 25 29
    783144.03300  23298171.95500                    621856.82340  23298175.21340
  22124783.31200  26294812.98600                  17341062.32440  26294818.34240
  -1524985.16200  26764731.51800                  -1128817.66040  26764735.06840
  -5125635.26800  24747811.88500                  -3914001.25340  24747815.35340
  19078227.72200  25714393.32200                  14937030.22040  25714395.57240
   -232087.80500  24062000.29900                   -126177.78140  24062002.63140
 96  9  4  2 18  0.0100000  0  6 14 15 18 22 25 29
    816621.80300  23304542.79100                    647943.40240  23304546.11940
  22275493.31100  26323492.40800                  17458498.61440  26323497.84640
  -1554284.62500  26759154.93200                  -1151648.36140  26759157.72140
  -5137237.13700  24745603.98600                  -3923041.63340  24745607.43240
  19212009.82400  25739851.18900                  15041276.01440  25739853.36940
   -209150.25000  24066365.37700                   -108304.36040  24066367.76840
 96  9  4  2 18 30.0100000  0  6 14 15 18 22 25 29
    850522.21000  23310993.67400                    674359.31040  23310997.03740
  22426249.01100  26352180.53300                  17575970.51740  26352185.93540
  -1583642.80600  26753567.76800                  -1174524.80740  26753572.04540
  -5148478.80900  24743464.21300                  -3931801.34440  24743468.38540
  19345856.50600  25765321.51800                  15145572.13140  25765323.92040
   -186103.93600  24070750.73600                    -90346.18540  24070752.97540
 96  9  4  2 19  0.0100000  0  6 14 15 18 22 25 29
    884925.63500  23317540.54100                    701167.17740  23317543.82240
  22577112.77600  26380888.82200                  17693526.65440  26380893.93240
  -1612985.96500  26747983.66600                  -1197389.56840  26747987.99040
  -5159285.28200  24741408.08000                  -3940221.93440  24741412.15840
  19479844.51400  25790818.85300                  15249978.37340  25790821.27940
   -162883.50900  24075169.43900                    -72252.33740  24075171.81840
 96  9  4  2 19 30.0100000  0  6 14 15 18 22 25 29
    919918.60700  23324199.51800                    728434.43540  23324202.81040
  22728156.70100  26409631.11100                  17811223.13340  26409636.03340
  -1642230.20200  26742418.51800                  -1220177.24040  26742422.86540
  -5169565.91500  24739452.05700                  -3948232.77940  24739455.47840
  19614043.14400  25816355.60300                  15354548.74340  25816358.47540
   -139426.45200  24079633.33800                    -53974.10640  24079635.71740
 96  9  4  2 20  0.0100000  0  6 14 15 18 22 25 29
    955461.38400  23330963.09600                    756130.11240  23330966.36540
  22879345.90500  26438401.99400                  17929032.85140  26438407.19740
  -1671391.94800  26736868.75200                  -1242900.62240  26736874.04940
  -5179339.84200  24737591.50200                  -3955848.79740  24737595.39340
  19748447.05600  25841931.08800                  15459279.06440  25841934.46340
   -115782.15800  24084132.23600                    -35549.97540  24084134.59240
 96  9  4  2 20 30.0100000  0  6 14 15 18 22 25 29
    991445.69200  23337810.36100                    784169.84040  23337813.74840
  23030586.53800  26467182.36100                  18046882.61740  26467188.46740
  -1700548.54800  26731321.78300                  -1265620.02740  26731326.90440
  -5188689.14300  24735812.71300                  -3963133.92340  24735816.65040
  19882971.69700  25867530.55700                  15564103.45640  25867534.24840
    -92051.75200  24088648.52500                    -17058.74940  24088650.90440
 96  9  4  2 21  0.0100000  0  6 14 15 18 22 25 29
   1027943.11800  23344756.07200                    812609.39440  23344759.33040
  23181949.37300  26495985.58000                  18164827.60140  26495990.06840
  -1729633.69400  26725786.21300                  -1288283.71740  26725790.18540
  -5197546.83200  24734127.53300                  -3970035.97540  24734131.09640
  20017680.79000  25893165.51000                  15669071.58640  25893167.97140
    -68160.63200  24093194.72100                      1557.71740  24093197.08840
 96  9  4  2 21 30.0100000  0  6 14 15 18 22 25 29
   1064911.27300  23351790.61900                    841415.75540  23351793.84240
  23333398.70700  26524804.37700                  18282840.02240  26524810.00240
  -1758685.30000  26720258.26000                  -1310921.30540  26720262.39640
  -5205962.81600  24732525.40800                  -3976593.85040  24732528.90040
  20152528.63300  25918825.94700                  15774147.83840  25918828.77140
    -44141.16100  24097765.44700                     20274.20140  24097767.82640
 96  9  4  2 22  0.0100000  0  6 14 15 18 22 25 29
   1102336.16400  23358912.13500                    870578.01240  23358915.41640
  23484928.74900  26553640.71300                  18400915.29740  26553646.31440
  -1787712.76600  26714733.40000                  -1333540.06240  26714737.38540
  -5213949.58300  24731006.08000                  -3982817.27640  24731009.74840
  20287507.28800  25944511.75200                  15879326.01240  25944514.23640
    -19984.41100  24102362.39300                     39097.65640  24102364.63140
 96  9  4  2 22 30.0100000  0  6 14 15 18 22 25 29
   1140221.87500  23366121.57200                    900099.34940  23366124.94740
  23636538.27300  26582490.95500                  18519052.53940  26582496.28740
  -1816732.17900  26709212.00200                  -1356152.56340  26709216.65440
  -5221506.60600  24729568.04900                  -3988705.82640  24729571.68240
  20422590.54400  25970217.08000                  15984585.70440  25970219.10740
      4325.97700  24106988.20500                     58040.81840  24106990.53740
 96  9  4  2 23  0.0100000  0  6 14 15 18 22 25 29
   1178605.15300  23373425.73600                    930008.39840  23373428.99440
  23788248.55000  26611359.60300                  18637268.23340  26611364.92440
  -1845722.92500  26703695.68900                  -1378742.73040  26703698.64340
  -5228601.80700  24728217.55700                  -3994234.52240  24728221.42440
  20557801.32300  25995947.01800                  16089944.75140  25995950.11140
     28815.10400  24111648.62700                     77123.26140  24111650.84240
 96  9  4  2 23 30.0100000  0  6 14 15 18 22 25 29
   1217393.24600  23380806.98600                    960232.88640  23380810.19740
  23939965.02000  26640231.54100                  18755488.79540  26640236.04140
  -1874771.62900  26698166.96300                  -1401378.06040  26698171.27540
  -5235311.08500  24726940.10300                  -3999462.50840  24726944.06440
  20693054.79000  26021684.86100                  16195337.05740  26021687.72140
     53394.97300  24116326.14300                     96276.41640  24116328.55740
 96  9  4  2 24  0.0100000  0  6 14 15 18 22 25 29
   1256672.34000  23388281.47800                    990839.97140  23388284.78340
  24091764.36300  26669118.15800                  18873773.93640  26669123.67840
  -1903805.57000  26692642.57200                  -1424001.87140  26692645.84240
  -5241532.81700  24725756.51800                  -4004310.58440  24725760.46740
  20828432.46600  26047446.85300                  16300826.17040  26047449.18540
     78137.86100  24121034.29100                    115556.60440  24121036.65840
 96  9  4  2 24 30.0100000  0  6 14 15 18 22 25 29
   1296560.37100  23395872.21300                   1021921.54940  23395875.43540
  24243748.19100  26698039.28300                  18992202.83240  26698044.10040
  -1932720.09700  26687140.33000                  -1446532.64440  26687143.52940
  -5247157.83000  24724686.42400                  -4008693.66640  24724690.18540
  20964051.31100  26073253.58800                  16406503.19340  26073256.57640
    103134.95100  24125791.43200                    135034.86140  24125793.74040
 96  9  4  2 25  0.0100000  0  6 14 15 18 22 25 29
   1337009.28700  23403569.14300                   1053440.18040  23403572.41240
  24395857.98000  26726984.98600                  19110729.85140  26726990.33040
  -1961563.33400  26681651.46300                  -1469007.88040  26681655.56440
  -5252232.66600  24723720.14300                  -4012648.07040  24723724.16240
  21099865.24200  26099098.36900                  16512332.22940  26099100.90040
    128325.46600  24130584.81400                    154663.84540  24130587.12340
 96  9  4  2 25 30.0100000  0  6 14 15 18 22 25 29
   1377941.05400  23411358.39300                   1085335.06340  23411361.73240
  24548009.09000  26755938.54100                  19229289.10640  26755944.23640
  -1990421.29200  26676160.76000                  -1491494.57440  26676164.77940
  -5256835.32500  24722844.68900                  -4016234.52040  24722848.31040
  21235780.06500  26124961.65000                  16618239.88740  26124964.53340
    153626.38500  24135399.17400                    174378.85840  24135401.54140
 96  9  4  2 26  0.0100000  0  6 14 15 18 22 25 29
   1419323.10200  23419233.06400                   1117580.80740  23419236.39340
  24700171.04500  26784894.29100                  19347856.77540  26784899.27140
  -2019307.46000  26670662.53300                  -1514003.24840  26670666.07240
  -5260985.09800  24722055.06400                  -4019468.08540  24722058.68540
  21371767.52000  26150839.55700                  16724204.12640  26150842.28740
    179006.09000  24140228.91600                    194155.25640  24140231.34240
 96  9  4  2 26 30.0100000  0  6 14 15 18 22 25 29
   1461225.70100  23427206.75200                   1150232.17840  23427210.18540
  24852408.38700  26813863.76800                  19466483.18540  26813868.98240
  -2048139.09600  26665176.91600                  -1536469.45440  26665180.04540
  -5264613.04000  24721364.72800                  -4022295.03240  24721368.13940
  21507895.72000  26176743.91600                  16830278.05540  26176746.60040
    204543.02600  24145088.52500                    214054.18240  24145090.89340
 96  9  4  2 27  0.0100000  0  6 14 15 18 22 25 29
   1503649.99500  23435279.84600                   1183290.06540  23435283.08040
  25004717.20900  26842846.80700                  19585165.33340  26842852.15040
  -2076910.50600  26659700.89300                  -1558888.71340  26659704.84240
  -5267722.05000  24720772.97800                  -4024717.59440  24720776.96340
  21644151.03400  26202671.90000                  16936451.01940  26202675.22840
    230251.28500  24149980.62700                    234086.60140  24149982.99440
 96  9  4  2 27 30.0100000  0  6 14 15 18 22 25 29
   1546603.17600  23443453.68200                   1216760.06940  23443457.02140
  25157102.14700  26871845.40800                  19703906.74240  26871851.33840
  -2105605.79800  26654241.21300                  -1581248.66340  26654244.63540
  -5270322.25600  24720277.80700                  -4026743.70540  24720281.39340
  21780533.10600  26228624.40000                  17042722.75940  26228627.44740
    256147.37100  24154908.58000                    254265.37840  24154910.87740
 96  9  4  2 28  0.0100000  0  6 14 15 18 22 25 29
   1590023.31300  23451716.17400                   1250593.93740  23451719.60740
  25309488.19100  26900843.74400                  19822649.05540  26900849.60340
  -2134297.20400  26648781.99400                  -1603605.58840  26648785.29940
  -5272506.12500  24719862.60300                  -4028445.40640  24719866.13140
  21916977.90400  26254589.83000                  17149043.38340  26254592.67840
    282168.58300  24159860.05700                    274541.66040  24159862.31840
 96  9  4  2 28 30.0100000  0  6 14 15 18 22 25 29
   1633970.98900  23460079.09600                   1284838.87640  23460082.34240
  25461909.02100  26929847.61900                  19941418.44640  26929853.51440
  -2162962.45300  26643326.69700                  -1625942.11640  26643330.45940
  -5274260.32400  24719528.54100                  -4029812.27340  24719532.32640
  22053528.75300  26280574.82200                  17255446.63940  26280577.68240
    308364.84700  24164844.91600                    294954.34540  24164847.14340
 96  9  4  2 29  0.0100000  0  6 14 15 18 22 25 29
   1678474.84100  23468548.01800                   1319517.19840  23468551.34640
  25614397.38700  26958865.90000                  20060240.47240  26958872.20540
  -2191576.20700  26637881.67400                  -1648238.53140  26637885.38940
  -5275562.15200  24719280.81400                  -4030826.66440  24719284.41240
  22190208.71700  26306583.77500                  17361950.50940  26306585.94340
    334773.84200  24169870.53300                    315532.79640  24169872.79540
 96  9  4  2 29 30.0110000  0  6 14 15 18 22 25 29
   1723514.63900  23477118.72600                   1354613.14240  23477122.11240
  25766938.48700  26987893.47600                  20179103.56440  26987899.64040
  -2220165.44100  26632441.39700                  -1670515.83440  26632445.08940
  -5276415.07500  24719118.67100                  -4031491.26440  24719121.92940
  22327013.39600  26332616.74900                  17468551.55040  26332619.59740
    361372.93000  24174932.15500                    336259.37040  24174934.37040
 96  9  4  2 30  0.0110000  0  6 14 15 18 22 25 29
   1769059.56600  23485785.85800                   1390102.69440  23485789.12840
  25919492.41200  27016923.51500                  20297976.69740  27016929.19840
  -2248761.55800  26626999.44400                  -1692798.52740  26627002.93640
  -5276820.52300  24719041.65500                  -4031807.16740  24719045.52240
  22463910.58800  26358667.18600                  17575224.68340  26358670.10440
    388128.01300  24180023.34300                    357107.49540  24180025.58140
 96  9  4  2 30 30.0110000  0  6 14 15 18 22 25 29
   1815092.93600  23494545.70200                   1425972.85140  23494549.08940
  26072055.72900  27045955.64000                  20416857.11740  27045960.92540
  -2277357.47600  26621558.31100                  -1715081.03740  26621562.15540
  -5276753.08600  24719054.36600                  -4031754.59040  24719057.95240
  22600880.13600  26384731.78800                  17681954.20140  26384734.40140
    415028.65600  24185142.72600                    378069.04640  24185144.96440
 96  9  4  2 31  0.0110000  0  6 14 15 18 22 25 29
   1861593.45800  23503394.36600                   1462207.02540  23503397.71840
  26224624.42800  27074988.28000                  20535741.75440  27074994.01140
  -2305948.13400  26616117.36600                  -1737359.46240  26616121.52640
  -5276191.90700  24719161.00700                  -4031317.28740  24719164.45240
  22737911.12100  26410808.36600                  17788731.58440  26410810.24140
    442061.02000  24190286.63200                    399133.24340  24190288.91740
 96  9  4  2 31 30.0110000  0  6 14 15 18 22 25 29
   1908632.46300  23512345.52200                   1498860.79540  23512348.83940
  26377258.52100  27104033.78000                  20654677.33340  27104040.33140
  -2334462.20600  26610691.22600                  -1759578.21540  26610695.05840
  -5275058.07500  24719376.89700                  -4030433.75740  24719380.44840
  22875074.19800  26436909.39700                  17895611.90140  26436911.67140
    469279.39200  24195465.70200                    420342.37240  24195467.83540
 96  9  4  2 32  0.0110000  0  6 14 15 18 22 25 29
   1956181.59900  23521393.75700                   1535912.07340  23521397.02640
  26529925.82900  27133084.87400                  20773638.77940  27133090.96840
  -2362915.55800  26605276.64700                  -1781749.61940  26605280.11640
  -5273384.40000  24719695.41300                  -4029129.56240  24719698.89340
  23012331.38800  26463028.79600                  18002565.54540  26463031.36240
    496649.62200  24200674.43600                    441669.83440  24200676.74540
 96  9  4  2 32 30.0110000  0  6 14 15 18 22 25 29
   2004223.26800  23530535.92900                   1573347.13740  23530539.12840
  26682612.08600  27162140.71800                  20892615.01040  27162146.44840
  -2391322.27700  26599869.85800                  -1803884.69640  26599873.14040
  -5271192.96200  24720112.01500                  -4027421.93340  24720115.53040
  23149676.25700  26489164.19400                  18109587.51540  26489167.68640
    524158.26700  24205908.92900                    463105.15140  24205911.24940
 96  9  4  2 33  0.0110000  0  6 14 15 18 22 25 29
   2052777.35500  23539775.41300                   1611181.49540  23539778.69440
  26835332.72300  27191202.04600                  21011618.02640  27191207.13240
  -2419672.03800  26594475.49900                  -1825975.39440  26594479.62440
  -5268480.85300  24720628.30400                  -4025308.56240  24720631.76140
  23287140.35000  26515323.13200                  18216702.38240  26515326.13240
    551827.16200  24211174.39700                    484665.33740  24211176.62440
 96  9  4  2 33 30.0110000  0  6 14 15 18 22 25 29
   2101793.25600  23549102.86600                   1649375.70340  23549106.13640
  26988029.01700  27220259.48300                  21130602.05540  27220265.44840
  -2448015.93600  26589082.72600                  -1848061.51640  26589086.44040
  -5265307.11500  24721231.98300                  -4022835.50940  24721235.62840
  23424651.92200  26541490.41300                  18323854.23840  26541493.53040
    579604.80800  24216460.17900                    506310.26340  24216462.46440
 96  9  4  2 34  0.0110000  0  6 14 15 18 22 25 29
   2151307.60000  23558524.92900                   1687958.31340  23558528.26840
  27140733.94300  27249318.91300                  21249592.82740  27249323.63640
  -2476321.61500  26583696.37400                  -1870117.85840  26583700.28840
  -5261644.49200  24721929.01500                  -4019981.48340  24721932.69440
  23562236.29100  26567672.34300                  18431062.83340  26567675.33140
    607535.39300  24221775.30400                    528074.36340  24221777.53040
 96  9  4  2 34 30.0110000  0  6 14 15 18 22 25 29
   2201292.29100  23568036.74100                   1726907.42440  23568039.88240
  27293409.69800  27278371.48300                  21368560.87340  27278376.94440
  -2504631.93400  26578308.96000                  -1892177.79940  26578312.82740
  -5257532.76800  24722711.71000                  -4016777.52540  24722714.99140
  23699853.99700  26593860.15500                  18538297.39840  26593862.81540
    635599.96200  24227115.97600                    549942.86540  24227118.24940
 96  9  4  2 35  0.0110000  0  6 14 15 18 22 25 29
   2251745.20100  23577637.60100                   1766221.38240  23577640.81140
  27446045.09100  27307417.35100                  21487497.47740  27307423.01140
  -2532950.13700  26572920.19400                  -1914243.91340  26572923.85140
  -5252976.13700  24723579.04600                  -4013226.87040  24723582.64340
  23837483.28800  26620050.03800                  18645540.98940  26620052.47640
    663797.10200  24232481.49100                    571914.67040  24232483.75340
 96  9  4  2 35 30.0110000  0  6 14 15 18 22 25 29
   2302728.10000  23587339.36600                   1805948.31840  23587342.62440
  27598688.13200  27336464.71800                  21606440.01840  27336470.80040
  -2561228.47500  26567538.67900                  -1936278.94640  26567543.24940
  -5247907.68500  24724543.28800                  -4009277.40140  24724547.08540
  23975175.71100  26646251.75700                  18752833.77140  26646254.52240
    692167.16000  24237880.11600                    594021.21340  24237882.48340
 96  9  4  2 36  0.0110000  0  6 14 15 18 22 25 29
   2354243.42500  23597142.59300                   1846090.13140  23597146.06140
  27751331.81400  27365511.48300                  21725383.07240  27365516.88640
  -2589475.86400  26562163.91300                  -1958289.85240  26562167.88640
  -5242318.59200  24725606.66300                  -4004922.23640  24725610.36640
  24112953.04800  26672469.96000                  18860192.74640  26672473.12440
    720708.78100  24243311.20200                    616261.44640  24243313.55840
 96  9  4  2 36 30.0110000  0  6 14 15 18 22 25 29
   2406297.42600  23607047.99100                   1886651.69240  23607051.31940
  27903980.77900  27394560.23300                  21844330.22140  27394566.66740
  -2617685.49900  26556795.39700                  -1980271.33340  26556799.15940
  -5236183.17900  24726774.30400                  -4000141.37240  24726777.63240
  24250833.81500  26698707.81100                  18967632.28940  26698710.35440
    749421.07600  24248775.05400                    638634.67240  24248777.38640
 96  9  4  2 37  0.0110000  0  6 14 15 18 22 25 29
   2458852.72400  23617048.94400                   1927603.86840  23617052.20240
  28056594.50800  27423601.55400                  21963249.94140  27423606.94440
  -2645882.86500  26551430.33500                  -2002243.26640  26551433.42940
  -5229522.34200  24728042.11600                  -3994951.08240  24728045.71440
  24388786.91400  26724959.28800                  19075128.20240  26724961.42140
    778241.04300  24254259.38200                    661091.79440  24254261.63240
 96  9  4  2 37 30.0110000  0  6 14 15 18 22 25 29
   2511935.74300  23627150.31900                   1968967.25440  23627153.60140
  28209183.44500  27452637.66300                  22082150.33840  27452644.05040
  -2674053.22500  26546068.46800                  -2024194.16640  26546071.80840
  -5222320.37800  24729412.18600                  -3989339.14140  24729415.81940
  24526835.60200  26751229.70200                  19182698.62240  26751232.23340
    807189.57200  24259768.19400                    683649.09940  24259770.42140
 96  9  4  2 38  0.0110000  0  6 14 15 18 22 25 29
   2565572.40500  23637356.71800                   2010762.05340  23637360.10440
  28361768.96200  27481674.21000                  22201048.03340  27481679.07340
  -2702175.95200  26540716.27200                  -2046107.91840  26540719.63640
  -5214562.73400  24730888.13200                  -3983294.20340  24730891.80040
  24664994.50900  26777520.21800                  19290354.89440  26777522.65540
    836312.69700  24265309.92100                    706342.45240  24265312.22940
 96  9  4  2 38 30.0110000  0  6 14 15 18 22 25 29
   2619743.51400  23647665.31900                   2052973.30340  23647668.64740
  28514325.44300  27510705.41300                  22319923.15940  27510711.49540
  -2730268.35800  26535371.14700                  -2067998.06940  26535374.75740
  -5206292.53600  24732462.10100                  -3976849.86740  24732465.55840
  24803216.46400  26803823.11600                  19398060.31640  26803825.74140
    865596.55600  24270882.31100                    729161.05440  24270884.58540
 96  9  4  2 39  0.0110000  0  6 14 15 18 22 25 29
   2674477.27900  23658081.16300                   2095622.98540  23658084.49140
  28666876.73500  27539734.25700                  22438794.19940  27539738.78040
  -2758301.35800  26530037.40500                  -2089841.91540  26530041.46040
  -5197499.18200  24734135.56900                  -3969997.87140  24734138.97940
  24941525.11800  26830142.54600                  19505833.27240  26830145.48740
    895091.35400  24276495.35100                    752144.02140  24276497.53040
 96  9  4  2 39 30.0110000  0  6 14 15 18 22 25 29
   2729762.18400  23668601.41300                   2138702.13240  23668604.72940
  28819415.83600  27568762.60100                  22557655.72340  27568768.28440
  -2786292.11200  26524710.28800                  -2111652.85440  26524713.97940
  -5188187.16200  24735907.42100                  -3962741.73440  24735910.94840
  25079909.57700  26856476.01500                  19613665.33340  26856478.69840
    924825.08900  24282153.46800                    775313.17040  24282155.76540
 96  9  4  2 40  0.0110000  0  6 14 15 18 22 25 29
   2785540.73600  23679215.39000                   2182165.93340  23679218.77640
  28971903.17700  27597778.57700                  22676476.98340  27597783.97940
  -2814271.29700  26519386.28000                  -2133454.75040  26519389.67940
  -5178386.35100  24737772.51500                  -3955104.70540  24737775.94840
  25218319.76100  26882814.42900                  19721517.41640  26882817.92140
    954743.74000  24287846.71800                    798626.41540  24287848.97940
 96  9  4  2 40 30.0110000  0  6 14 15 18 22 25 29
   2841791.95200  23689919.84300                   2225998.04740  23689923.08940
  29124329.14100  27626784.97600                  22795250.36440  27626791.64340
  -2842229.37900  26514066.00700                  -2155240.23040  26514069.89740
  -5168095.99500  24739730.66300                  -3947086.22440  24739734.29640
  25356752.74800  26909157.68600                  19829387.25740  26909159.57340
    984819.70700  24293569.97600                    822062.24540  24293572.23740
 96  9  4  2 41  0.0110000  0  6 14 15 18 22 25 29
   2898577.21300  23700725.97600                   2270246.29240  23700729.28040
  29276756.59700  27655791.49100                  22914024.87140  27655796.57740
  -2870096.47500  26508762.84300                  -2176954.80040  26508767.21440
  -5157228.56800  24741798.56100                  -3938618.07140  24741801.86640
  25495285.33800  26935517.87400                  19937334.73040  26935520.72240
   1015092.21100  24299330.76500                    845651.21440  24299333.07340
 96  9  4  2 41 30.0110000  0  6 14 15 18 22 25 29
   2955887.92500  23711631.43600                   2314903.98640  23711634.89340
  29429169.02500  27684794.13200                  23032787.74940  27684799.35840
  -2897884.43500  26503475.06100                  -2198607.72040  26503478.84740
  -5145795.59200  24743973.96000                  -3929709.24040  24743977.33540
  25633893.01400  26961895.29600                  20045340.69540  26961898.67140
   1045521.78900  24305120.90500                    869362.58240  24305123.27240
 96  9  4  2 42  0.0110000  0  6 14 15 18 22 25 29
   3013707.32300  23722633.98300                   2359958.06040  23722637.24140
  29581537.14400  27713789.54600                  23151516.05640  27713795.13640
  -2925610.49500  26498198.35100                  -2220212.40940  26498201.87840
  -5133826.10700  24746252.04600                  -3920382.34040  24746255.69040
  25772559.10100  26988282.34300                  20153392.19740  26988284.47640
   1076064.03200  24310933.08500                    893161.73640  24310935.31140
 96  9  4  2 42 30.0110000  0  6 14 15 18 22 25 29
   3072045.73400  23733735.74900                   2405416.55440  23733739.01840
  29733854.76500  27742772.63200                  23270205.01540  27742779.26540
  -2953282.06600  26492933.06100                  -2241774.63040  26492936.51840
  -5121323.82600  24748630.73300                  -3910640.29040  24748634.51840
  25911289.56100  27014682.35800                  20261493.83440  27014684.49140
   1106726.33000  24316767.96000                    917054.43840  24316770.22240
 96  9  4  2 43  0.0110000  0  6 14 15 18 22 25 29
   3130884.27000  23744932.36600                   2451264.76340  23744935.70640
  29886090.29200  27771744.19400                  23388829.96740  27771749.29240
  -2980938.30800  26487670.64700                  -2263324.90440  26487674.79640
  -5108308.93700  24751107.56900                  -3900498.78940  24751110.83940
  26050050.87000  27041087.13200                  20369619.51340  27041088.97240
   1137507.33100  24322625.29600                    941039.64140  24322627.55840
 96  9  4  2 43 30.0110000  0  6 14 15 18 22 25 29
   3190287.99200  23756236.61600                   2497553.37740  23756240.02640
  30038302.34400  27800709.23300                  23507436.70940  27800715.67940
  -3008526.65900  26482420.10100                  -2284822.29340  26482423.68640
  -5094719.91900  24753693.43600                  -3889909.91940  24753696.87040
  26188890.63200  27067508.96800                  20477806.33540  27067511.19440
   1168495.69600  24328522.11600                    965186.42140  24328524.47240
 96  9  4  2 44  0.0110000  0  6 14 15 18 22 25 29
   3250239.55100  23767644.96000                   2544268.87540  23767648.27640
  30190474.46100  27829666.42900                  23626012.25340  27829671.03440
  -3036069.40700  26477179.02200                  -2306284.13540  26477182.84340
  -5080557.11300  24756388.65500                  -3878873.94540  24756391.77240
  26327784.46000  27093938.09300                  20586035.28440  27093940.82340
   1199683.05800  24334456.95200                    989488.26840  24334459.24940
 96  9  4  2 44 30.0110000  0  6 14 15 18 22 25 29
   3310754.34200  23779160.35800                   2591423.25140  23779163.67540
  30342608.68500  27858616.42900                  23744558.31440  27858622.21840
  -3063571.92700  26471945.18600                  -2327714.65640  26471949.26540
  -5065815.05300  24759193.82700                  -3867386.59940  24759197.63640
  26466719.81600  27120376.04600                  20694296.56940  27120379.57340
   1231076.57200  24340430.87400                   1013950.74540  24340433.21840
 96  9  4  2 45  0.0120000  0  6 14 15 18 22 25 29
   3371824.28300  23790781.75400                   2639010.21740  23790785.05940
  30494688.77000  27887556.23800                  23863062.15340  27887561.87540
  -3091053.68400  26466716.12900                  -2349128.96840  26466719.49240
  -5050512.52300  24762105.86300                  -3855462.52140  24762109.23840
  26605669.35600  27146818.16800                  20802568.94540  27146821.57840
   1262647.29700  24346438.87900                   1038551.32240  24346441.15240
 96  9  4  2 45 30.0120000  0  6 14 15 18 22 25 29
   3433475.69200  23802513.35500                   2687050.27140  23802516.73040
  30646735.06100  27916489.62900                  23981539.63940  27916496.25040
  -3118483.77900  26461495.43400                  -2370503.02740  26461499.04340
  -5034623.12200  24765129.40200                  -3843081.14640  24765132.97640
  26744659.71000  27173266.95700                  20910873.10540  27173269.88740
   1294406.50600  24352482.54300                   1063298.76140  24352484.79340
 96  9  4  2 46  0.0120000  0  6 14 15 18 22 25 29
   3495635.69000  23814342.28500                   2735486.62940  23814345.63740
  30798690.23600  27945406.47300                  24099946.21340  27945412.88340
  -3145912.08600  26456276.60500                  -2391875.70340  26456280.60140
  -5018209.18600  24768252.94100                  -3830291.03740  24768256.36340
  26883654.56200  27199716.81600                  21019180.78840  27199719.39440
   1326283.49300  24358548.62900                   1088137.98040  24358550.90240
 96  9  4  2 46 30.0120000  0  6 14 15 18 22 25 29
   3558290.84400  23826265.02700                   2784308.82540  23826268.35540
  30950552.48700  27974304.74600                  24218280.36240  27974308.88340
  -3173312.76100  26451062.16000                  -2413226.83940  26451065.91040
  -5001278.00100  24771474.44900                  -3817097.88540  24771477.98840
  27022675.25100  27226170.38700                  21127508.59540  27226173.15240
   1358288.80900  24364638.76900                   1113077.19740  24364641.04340
 96  9  4  2 47  0.0120000  0  6 14 15 18 22 25 29
   3621469.18500  23838287.49600                   2833538.69740  23838290.85940
  31102377.26800  28003194.98000                  24336585.21340  28003202.61340
  -3200604.23100  26445867.71500                  -2434492.88040  26445871.74640
  -4983768.83500  24774806.36300                  -3803454.35140  24774809.77340
  27161784.45600  27252642.51900                  21235905.36840  27252644.73440
   1390492.59600  24370766.70700                   1138171.06840  24370768.96940
 96  9  4  2 47 30.0120000  0  6 14 15 18 22 25 29
   3685148.89300  23850405.36300                   2883159.24540  23850408.66840
  31254150.93900  28032077.16000                  24454850.31240  28032083.94540
  -3227791.87500  26440694.98000                  -2455678.02340  26440698.69540
  -4965696.81400  24778245.87900                  -3789372.23640  24778248.84440
  27300981.64000  27279131.16800                  21344370.70640  27279134.05140
   1422903.31500  24376934.60500                   1163426.18240  24376936.86740
 96  9  4  2 48  0.0120000  0  6 14 15 18 22 25 29
   3749321.33600  23862617.16000                   2933163.74340  23862620.38340
  31405852.67500  28060946.08200                  24573059.31440  28060950.92240
  -3254876.26600  26435541.47300                  -2476782.69440  26435544.30940
  -4947080.38900  24781788.19100                  -3774865.90340  24781791.46140
  27440241.74400  27305632.08200                  21452885.05840  27305633.61740
   1455503.43700  24383137.86300                   1188828.88840  24383140.26640
 96  9  4  2 48 30.0120000  0  7  4 14 15 18 22 25 29
      6735.74110  28269094.98000
   3814073.15400  23874938.98800                   2983619.70240  23874942.34040
  31557537.80000  28089810.68400                  24691255.43840  28089817.24640
  -3281806.69100  26430416.65200                  -2497767.41640  26430420.37940
  -4927853.65800  24785446.97300                  -3759884.01540  24785450.41840
  27579607.39900  27332152.75400                  21561481.67340  27332154.21940
   1488358.62800  24389390.29300                   1214430.33940  24389392.49640
 96  9  4  2 49  0.0120000  0  7  4 14 15 18 22 25 29
     25450.84700  28272660.71500
   3879392.64900  23887368.88700                   3034518.00340  23887372.22640
  31709163.62300  28118663.87100                  24809405.28340  28118670.85940
  -3308651.53700  26425307.84800                  -2518685.43340  26425311.97340
  -4908054.23700  24789214.51900                  -3744455.87740  24789217.69540
  27719032.30600  27358682.98000                  21670124.47140  27358686.70740
   1521422.70400  24395681.67600                   1240194.56540  24395683.93740
 96  9  4  2 49 30.0120000  0  6 14 15 18 22 25 29
   3945292.88800  23899909.00400                   3085868.83640  23899912.33240
  31860715.88800  28147502.64400                  24927497.85740  28147509.09040
  -3335452.27200  26420207.50400                  -2539569.07040  26420211.19540
  -4887698.29700  24793088.37100                  -3728594.08440  24793091.47640
  27858506.75600  27385224.88700                  21778805.87440  27385227.54740
   1554669.43400  24402008.77700                   1266101.11740  24402011.08640
 96  9  4  2 50  0.0120000  0  6 14 15 18 22 25 29
   4011762.01700  23912557.76900                   3137662.95340  23912561.08640
  32012177.74300  28176325.93400                  25045519.96040  28176330.77340
  -3362230.62700  26415111.49600                  -2560435.28740  26415115.51640
  -4866776.69800  24797069.26200                  -3712291.52240  24797072.88340
  27998017.42700  27411773.92600                  21887515.48640  27411775.40240
   1588076.71400  24408365.73000                   1292132.77540  24408367.98040
 96  9  4  2 50 30.0120000  0  8  4 14 15 18 19 22 25 29
     11554.08710  28283935.26200
   4078810.32400  23925316.67600                   3189908.38440  23925320.02740
  32163563.02300  28205134.31600                  25163482.40040  28205140.89140
  -3388989.69800  26410019.78500                  -2581286.48240  26410022.83240
     -7314.75710  28404760.86300
  -4845276.89500  24801160.63700                  -3695538.39740  24801163.94140
  28137586.42500  27438331.12100                  21996270.56140  27438333.59440
   1621672.95200  24414758.89400                   1318311.66940  24414761.14440
 96  9  4  2 51  0.0120000  0  8  4 14 15 18 19 22 25 29
     32300.12600  28287884.01900
   4146376.90400  23938174.24600                   3242557.65440  23938177.70340
  32314822.12800  28233916.96500                  25281346.53940  28233925.41840
  -3415772.56800  26404923.15200                  -2602156.21040  26404926.35140
    -51191.42500  28396410.56600
  -4823248.11900  24805352.83200                  -3678373.09940  24805356.12540
  28277167.63900  27464892.84000                  22105035.13540  27464896.87140
   1655413.62600  24421179.83200                   1344603.11240  24421182.05940
 96  9  4  2 51 30.0120000  0  8  4 14 15 18 19 22 25 29
     53545.88700  28291925.66000                      3337.41650  28291929.17640
   4214500.69700  23951137.50400                   3295641.12240  23951140.89140
  32466005.74300  28262685.48000                  25399151.81140  28262693.80540
  -3442505.38500  26399835.22300                  -2622986.94940  26399838.80940
    -94946.86500  28388086.22300
  -4800609.59800  24809660.58200                  -3660732.67240  24809663.68740
  28416803.44900  27491465.23000                  22213842.26340  27491467.05940
   1689362.10200  24427640.04300                   1371056.47740  24427642.35140
 96  9  4  2 52  0.0120000  0  8  4 14 15 18 19 22 25 29
     75267.55800  28296061.46500                     20263.42840  28296067.03140
   4283149.28800  23964201.16800                   3349133.52540  23964204.61340
  32617092.85700  28291437.86300                  25516881.87440  28291445.47340
  -3469188.28400  26394758.60500                  -2643778.77640  26394761.80540
   -138582.45800  28379782.19900
  -4777366.95900  24814083.59800                  -3642621.50340  24814086.57440
  28556463.71000  27518041.41000                  22322668.46340  27518044.41040
   1723515.81900  24434138.88700                   1397669.77040  24434141.04340
 96  9  4  2 52 30.0120000  0  8  4 14 15 18 19 22 25 29
     97495.26400  28300289.03500                     37583.66640  28300294.74240
   4352330.66800  23977365.76200                   3403041.08740  23977369.31240
  32768096.50400  28320172.91000                  25634546.92540  28320176.87140
  -3495790.35300  26389696.73800                  -2664507.64040  26389699.93740
   -182081.13000  28371504.28500
  -4753524.40000  24818620.60500                  -3624042.85940  24818623.84040
  28696148.55500  27544622.77700                  22431513.80440  27544624.66440
   1757898.48200  24440681.66800                   1424461.46140  24440683.94140
 96  9  4  2 53  0.0120000  0  8  4 14 15 18 19 22 25 29
    120223.31800  28304615.23000                     55293.86740  28304620.23440
   4422016.79100  23990626.72300                   3457341.95440  23990630.02740
  32919003.67500  28348889.83200                  25752136.79240  28348897.27740
  -3522305.10000  26384650.69100                  -2685168.45040  26384653.64440
   -225462.61800  28363249.62900
  -4729073.71700  24823273.13700                  -3604990.36440  24823276.54740
  28835839.05800  27571205.66800                  22540363.56640  27571207.68440
   1792494.07300  24447264.95700                   1451419.07240  24447267.16040
 96  9  4  2 53 30.0120000  0  8  4 14 15 18 19 22 25 29
    143459.42400  28309036.94100                     73399.95540  28309043.14140
   4492207.85500  24003983.63700                   3512036.28140  24003987.05940
  33069821.84300  28377589.32400                  25869657.37640  28377597.08640
  -3548722.49400  26379624.12900                  -2705753.39940  26379627.58640
   -268701.28800  28355020.44900
  -4704009.32100  24828042.76200                  -3585459.64140  24828046.23040
  28975543.86600  27597790.15200                  22649224.44340  27597794.09040
   1827313.10000  24453891.31600                   1478550.78740  24453893.43740
 96  9  4  2 54  0.0120000  0  8  4 14 15 18 19 22 25 29
    167212.33700  28313556.63700                     91908.69440  28313559.87140
   4562912.29500  24017438.20700                   3567130.64240  24017441.51240
  33220556.31100  28406273.87100                  25987112.65040  28406279.51940
  -3575034.30700  26374616.77700                  -2726256.08340  26374620.22340
   -311787.81300  28346820.72300
  -4678356.97500  24832924.02700                  -3565470.78540  24832927.13340
  29115285.14100  27624382.59800                  22758113.74840  27624384.23840
   1862351.09300  24460558.31600                   1505853.12640  24460560.59040
 96  9  4  2 54 30.0120000  0  8  4 14 15 18 19 22 25 29
    191449.37800  28318168.37100                    110794.69240  28318172.98840
   4634129.78500  24030990.46500                   3622624.78540  24030993.84040
  33371187.69000  28434936.63700                  26104487.59740  28434940.07040
  -3601256.04900  26369626.80900                  -2746688.56640  26369630.40640
   -354751.65800  28338647.42600
  -4652141.31200  24837913.04300                  -3545042.96740  24837916.62940
  29255058.67200  27650978.98800                  22867028.21440  27650983.75840
   1897577.68900  24467261.84800                   1533302.42340  24467264.10940
 96  9  4  2 55  0.0120000  0  8  4 14 15 18 19 22 25 29
    216144.63300  28322867.35500                    130037.70240  28322870.70740
   4705875.13600  24044643.25400                   3678530.24640  24044646.57040
  33521702.61100  28463579.98800                  26221771.82940  28463587.19940
  -3627412.50100  26364648.84000                  -2767070.19540  26364652.22640
   -397601.54400  28330490.86300
  -4625366.51500  24843008.71500                  -3524179.46240  24843011.76240
  29394860.36100  27677583.32400                  22975964.59940  27677586.20740
   1932974.80000  24473997.71500                   1560884.59140  24473999.98840
 96  9  4  2 55 30.0120000  0  8  4 14 15 18 19 22 25 29
    241301.01500  28327654.32400                    149640.07540  28327657.47640
   4778182.58300  24058402.69100                   3734873.70540  24058405.97340
  33672100.70700  28492199.47300                  26338964.96540  28492205.78940
  -3653509.64000  26359682.92600                  -2787405.59540  26359686.34840
   -440330.24800  28322360.09000
  -4598048.10000  24848207.19900                  -3502892.37040  24848210.26940
  29534694.12700  27704192.69100                  23084925.96840  27704195.73840
   1968540.00800  24480765.51200                   1588597.74540  24480767.73840
 96  9  4  2 56  0.0120000  0  8  4 14 15 18 19 22 25 29
    266910.70600  28332527.82400                    169595.67240  28332532.68740
   4851045.18700  24072268.33200                   3791649.74840  24072271.67240
  33822361.56500  28520794.09000                  26456051.23840  28520799.08240
  -3679565.84800  26354724.97300                  -2807709.10240  26354728.52340
   -482969.58700  28314245.63700                    -23254.18250  28314249.96140
  -4570202.56600  24853505.52700                  -3481194.52840  24853508.78540
  29674538.48100  27730805.00400                  23193895.58340  27730808.26240
   2004249.57900  24487560.55900                   1616423.39140  24487562.78540
 96  9  4  2 56 30.0120000  0  8  4 14 15 18 19 22 25 29
    293018.85000  28337497.24600                    189939.65740  28337499.63740
   4924504.21600  24086247.19100                   3848890.54540  24086250.50840
  33972518.03500  28549367.94100                  26573056.18840  28549374.90640
  -3705557.28800  26349778.01200                  -2827962.14940  26349781.03540
   -525484.77200  28306157.58200                    -56382.74240  28306162.75040
  -4541774.11600  24858915.27700                  -3459042.47940  24858918.38340
  29814416.12600  27757421.70700                  23302891.16440  27757423.04340
   2040151.22600  24494392.66800                   1644398.70340  24494394.93040
 96  9  4  2 57  0.0120000  0  7  4 14 18 19 22 25 29
    319658.91600  28342565.88700                    210698.14440  28342569.29740
   4998575.52700  24100342.53500                   3906608.44240  24100345.94540
  -3731471.59600  26344847.56600                  -2848155.08540  26344850.82440
   -567839.24200  28298093.89400                    -89386.08640  28298101.62140
  -4512727.69800  24864442.42600                  -3436408.87540  24864445.66040
  29954344.83700  27784050.22300                  23411926.49740  27784053.96140
   2076283.14200  24501268.47300                   1672553.45040  24501270.65240
 96  9  4  2 57 30.0120000  0  7  4 14 18 19 22 25 29
    346779.77700  28347726.33200                    231831.29740  28347727.68040
   5073183.26800  24114539.78500                   3964744.33840  24114543.24240
  -3757359.36800  26339921.33200                  -2868327.33040  26339925.04740
   -610079.48400  28290058.51900                   -122300.34440  28290062.87940
  -4483108.46200  24870078.80100                  -3413328.93740  24870082.00040
  30094259.61700  27810676.09000                  23520951.03340  27810679.58240
   2112591.33700  24508177.69900                   1700845.55240  24508179.87940
 96  9  4  2 58  0.0120000  0  7  4 14 18 19 22 25 29
    374409.57800  28352984.06600                    253361.01740  28352988.28540
   5148342.27000  24128842.05900                   4023309.78640  24128845.44540
  -3783184.81900  26335007.61300                  -2888451.04140  26335010.66040
   -652161.55300  28282050.19100                   -155091.40340  28282055.69940
  -4452855.43200  24875835.57400                  -3389755.12440  24875839.12540
  30234178.40700  27837300.76900                  23629978.63440  27837303.92240
   2149117.40900  24515128.16000                   1729307.42940  24515130.38740
 96  9  4  2 58 30.0120000  0  7  4 14 18 19 22 25 29
    402504.77200  28358330.69900                    275253.31340  28358334.12140
   5224013.57900  24143241.69900                   4082274.43440  24143245.15640
  -3808973.69200  26330099.67600                  -2908546.24540  26330102.67640
   -694119.43200  28274065.23800                   -187785.67040  28274070.46540
  -4421994.46000  24881708.41000                  -3365707.59840  24881711.62140
  30374063.07500  27863919.72300                  23738979.66540  27863922.48840
   2185833.45000  24522114.69900                   1757917.33340  24522116.86740
 96  9  4  2 59  0.0120000  0  7  4 14 18 19 22 25 29
    431101.94000  28363773.00400                    297536.84140  28363775.10140
   5300211.50300  24157741.71500                   4141649.42940  24157745.06640
  -3834689.49100  26325206.17600                  -2928584.49840  26325209.49240
   -735927.36200  28266107.99600                   -220363.11840  28266113.09440
  -4390503.40500  24887700.90200                  -3341169.09540  24887704.21940
  30513937.78600  27890536.28500                  23847972.94140  27890539.67240
   2222758.78500  24529141.80900                   1786690.32040  24529144.00040
 96  9  4  2 59 30.0120000  0  7  4 14 18 19 22 25 29
    460226.15500  28369315.16800                    320230.99540  28369319.28140
   5376943.04300  24172343.22300                   4201440.23140  24172346.68040
  -3860298.42600  26320333.12100                  -2948539.48140  26320336.68440
   -777569.04000  28258184.20700                   -252811.04040  28258184.46540
  -4358365.75300  24893816.51900                  -3316126.75140  24893820.02340
  30653820.49500  27917156.35500                  23956972.42340  27917158.72340
   2259901.13200  24536209.86300                   1815632.41340  24536212.05540
 96  9  4  3  0  0.0120000  0  7  4 14 18 19 22 25 29
    489850.74100  28374952.73800                    343315.05840  28374956.41840
   5454178.13200  24187040.77700                   4261623.40840  24187044.03540
  -3885824.07500  26315475.25400                  -2968429.58140  26315478.99240
   -819080.56700  28250285.66000                   -285157.59840  28250288.55540
  -4325628.15700  24900046.01900                  -3290616.91640  24900049.38340
  30793715.83200  27943775.75400                  24065981.76240  27943778.14440
   2297236.64700  24543314.39400                   1844725.02340  24543316.60940
 96  9  4  3  0 30.0120000  0  7  4 14 18 19 22 25 29
    520003.75700  28380690.23000                    366810.87940  28380694.07440
   5531935.67200  24201837.48800                   4322213.68740  24201840.95740
  -3911244.29400  26310638.37900                  -2988237.51840  26310641.88340
   -860460.51000  28242410.07400                   -317401.63540  28242415.68740
  -4292303.99900  24906387.65200                  -3264650.03240  24906391.01640
  30933676.48900  27970411.74600                  24175042.03840  27970411.66440
   2334781.91200  24550459.09000                   1873981.07040  24550461.24640
 96  9  4  3  1  0.0130000  0  7  4 14 18 19 22 25 29
    550694.35500  28386531.32900                    390725.60440  28386533.05240
   5610224.46800  24216735.30600                   4383217.93840  24216738.71640
  -3936558.30200  26305820.79000                  -3007962.71340  26305824.03640
   -901693.44400  28234564.38400                   -349531.04140  28234571.11040
  -4258384.63000  24912842.11800                  -3238219.34140  24912845.20040
  31073721.08100  27997060.82100                  24284167.67440  27997062.30940
   2372539.34600  24557643.92300                   1903402.44840  24557646.20840
 96  9  4  3  1 30.0130000  0  7  4 14 18 19 22 25 29
    581858.09400  28392460.27400                    415009.03340  28392464.24740
   5689019.34000  24231729.35200                   4444616.53840  24231732.86840
  -3961795.32600  26301018.19600                  -3027627.91440  26301021.39540
   -942807.05500  28226741.81300                   -381567.53540  28226743.85240
  -4223909.15200  24919402.96200                  -3211355.31140  24919405.91540
  31213811.36700  28023718.26700                  24393328.94440  28023721.44240
   2410472.34300  24564862.61000                   1932960.62640  24564864.69640
 96  9  4  3  2  0.0130000  0  7  4 14 18 19 22 25 29
    613495.15900  28398481.06300                    439661.31840  28398483.59540
   5768343.55400  24246824.03200                   4506427.60540  24246827.43140
  -3986959.35600  26296229.37600                  -3047236.23540  26296232.82140
   -983809.89100  28218936.89900                   -413517.74040  28218941.72740
  -4188878.06400  24926068.52400                  -3184058.35040  24926071.75940
  31353951.26800  28050386.22000                  24502528.84440  28050388.63440
   2448588.13300  24572115.61800                   1962661.24440  24572117.75140
 96  9  4  3  2 30.0130000  0  7  4 14 18 19 22 25 29
    645674.50000  28404603.86000                    464736.09940  28404606.06340
   5848276.68600  24262034.98500                   4568713.15440  24262038.40740
  -4011979.93000  26291468.29800                  -3066732.77040  26291471.69640
  -1024634.32100  28211168.72700                   -445328.76440  28211182.41940
  -4153209.48000  24932856.93100                  -3156264.62740  24932859.79040
  31494161.66000  28077067.56300                  24611783.70040  28077069.60240
   2486952.02400  24579416.11800                   1992555.18440  24579418.33340
 96  9  4  3  3  0.0130000  0  7  4 14 18 19 22 25 29
    678503.71800  28410852.08700                    490317.31840  28410853.98540
   5928948.96600  24277386.75900                   4631574.66140  24277390.19240
  -4036737.92900  26286756.76700                  -3086024.69740  26286760.35240
  -1065150.69100  28203459.05600                   -476899.95340  28203458.42340
  -4116769.65000  24939790.68100                  -3127869.94340  24939794.23140
  31634524.00000  28103778.29800                  24721156.93540  28103780.53640
   2525686.67400  24586787.11000                   2022738.02840  24586789.23140
 96  9  4  3  3 30.0130000  0  7  4 14 18 19 22 25 29
    711820.40300  28417193.47000                    516278.35040  28417197.14940
   6010198.60400  24292847.72000                   4694886.05840  24292851.25940
  -4061403.13600  26282062.82100                  -3105244.31640  26282066.27840
  -1105529.66600  28195775.57900                   -508364.04140  28195779.29440
  -4079736.89800  24946837.68800                  -3099013.23340  24946841.15740
  31774857.80100  28130481.19600                  24830507.99740  28130485.13440
   2564645.06400  24594200.75100                   2053095.21940  24594202.91940
 96  9  4  3  4  0.0130000  0  7  4 14 18 19 22 25 29
    745683.03700  28423635.72700                    542664.78940  28423639.22040
   6092048.63900  24308423.64900                   4758665.29440  24308426.94240
  -4085946.54700  26277393.33700                  -3124369.04440  26277396.29040
  -1145737.38300  28188124.67300                   -539694.68740  28188128.64540
  -4042078.05100  24954004.14900                  -3069668.65940  24954007.04440
  31915190.31300  28157185.52400                  24939857.96940  28157188.73540
   2603872.27000  24601665.03200                   2083661.87640  24601667.28240
 96  9  4  3  4 30.0130000  0  7  4 14 18 19 22 25 29
    780056.50600  28430176.70400                    569449.27940  28430182.15340
   6174463.14600  24324106.33700                   4822884.38040  24324109.80640
  -4110395.36700  26272740.45400                  -3143420.04940  26272744.00540
  -1185791.65200  28180502.57100                   -570905.74940  28180510.66140
  -4003812.29700  24961285.70400                  -3039851.17440  24961288.96240
  32055484.68100  28183882.97700                  25049178.27740  28183888.25140
   2643345.54100  24609176.93800                   2114420.27040  24609179.05940
 96  9  4  3  5  0.0130000  0  7  4 14 18 19 22 25 29
    814952.89800  28436818.06300                    596641.28640  28436823.58340
   6257445.46100  24339897.44600                   4887545.91840  24339900.88040
  -4134739.89100  26268107.72700                  -3162389.80240  26268111.30240
  -1225671.33100  28172914.07100                   -601980.83540  28172919.18140
  -3964916.37700  24968687.61000                  -3009542.64740  24968690.47040
  32195772.98000  28210579.37600                  25158493.80340  28210583.23140
   2683090.72900  24616740.18800                   2145390.54940  24616742.42740
 96  9  4  3  5 30.0130000  0  7  4 14 18 19 22 25 29
    850344.82300  28443552.71200                    624219.40740  28443556.38040
   6340941.83300  24355785.92300                   4952608.01440  24355789.56740
  -4159021.94500  26263487.15700                  -3181310.85740  26263490.52040
  -1265415.71100  28165349.20400                   -632950.35740  28165354.53640
  -3925421.99100  24976202.81300                  -2978767.78940  24976206.13040
  32336034.01600  28237270.64900                  25267788.16540  28237273.00540
   2723059.99500  24624345.80600                   2176535.43640  24624347.91540
 96  9  4  3  6  0.0130000  0  7  4 14 18 19 22 25 29
    886242.39900  28450383.50100                    652191.51040  28450387.22740
   6424964.65100  24371774.91500                   5018080.32940  24371778.31340
  -4183219.54100  26258882.45400                  -3200166.10640  26258885.71240
  -1305006.24100  28157816.53200                   -663800.11940  28157825.95840
  -3885294.01300  24983839.13400                  -2947499.22440  24983842.66140
  32476297.54600  28263960.84500                  25377084.39540  28263963.10640
   2763247.99700  24631993.34500                   2207850.77040  24631995.50140
 96  9  4  3  6 30.0130000  0  7  4 14 18 19 22 25 29
    922600.48200  28457302.36800                    680522.51640  28457306.04840
   6509482.56800  24387858.58700                   5083938.43340  24387862.02040
  -4207363.27200  26254288.09500                  -3218979.38040  26254291.39940
  -1344478.06700  28150303.22000                   -694557.37240  28150307.30940
  -3844548.91700  24991592.31300                  -2915749.78140  24991595.31340
  32616537.72600  28290649.17300                  25486362.41340  28290651.56340
   2803620.40500  24639675.99300                   2239309.78840  24639678.17340
 96  9  4  3  7  0.0130000  0  7  4 14 18 19 22 25 29
    959424.17600  28464310.32900                    709216.26240  28464313.10640
   6594486.22400  24404033.92300                   5150175.04040  24404037.36840
  -4231458.20000  26249703.58700                  -3237754.61740  26249706.90340
  -1383840.47500  28142814.22700                   -725229.35440  28142817.40340
  -3803200.14800  24999460.99300                  -2883529.95040  24999464.07540
  32756765.22800  28317331.97000                  25595630.63740  28317334.02040
   2844170.98200  24647392.36000                   2270907.64740  24647394.57540
 96  9  4  3  7 30.0130000  0  7  4 14 18 19 22 25 29
    996695.81900  28471401.70400                    738259.09040  28471406.86040
   6679962.13700  24420299.57100                   5216779.63740  24420303.00540
  -4255516.30800  26245124.69600                  -3256501.18240  26245128.00140
  -1423108.44300  28135342.46200                   -755827.66240  28135349.08340
  -3761277.26900  25007438.70400                  -2850862.75340  25007442.07940
  32896976.58500  28344014.89200                  25704886.22140  28344018.09140
   2884870.99600  24655137.66500                   2302621.94440  24655139.88040
 96  9  4  3  8  0.0130000  0  7  4 14 18 19 22 25 29
   1034465.86100  28478589.59500                    767690.27740  28478592.22040
   6765968.08900  24436665.96200                   5283797.25240  24436669.34940
  -4279474.66000  26240565.48500                  -3275170.00640  26240568.57940
  -1462225.30800  28127898.12600                   -786308.23440  28127904.33740
  -3718731.93700  25015534.25900                  -2817710.53340  25015537.29440
  33037220.49800  28370702.18800                  25814167.20640  28370703.57140
   2925775.01700  24662921.22000                   2334495.21840  24662923.37640
 96  9  4  3  8 30.0130000  0  7  4 14 18 19 22 25 29
   1072760.44200  28485876.86000                    797530.19440  28485881.58340
   6852524.12200  24453137.00900                   5351243.49840  24453140.47740
  -4303312.64000  26236029.79000                  -3293745.03140  26236032.75540
  -1501171.88100  28120486.93800                   -816656.17840  28120493.46640
  -3675571.14100  25023748.00900                  -2784078.72340  25023750.84540
  33177497.48700  28397394.79800                  25923473.94840  28397399.76740
   2966910.33700  24670748.86800                   2366548.72040  24670751.11840
 96  9  4  3  9  0.0130000  0  7  4 14 18 19 22 25 29
   1111574.88800  28493262.30600                    827775.19740  28493268.22440
   6939629.92000  24469712.94600                   5419118.13440  24469716.21640
  -4327026.24000  26231516.52400                  -3312223.12640  26231520.00540
  -1539946.81200  28113107.67300                   -846870.43340  28113110.39240
  -3631813.58900  25032074.75100                  -2749981.92040  25032077.65740
  33317800.11500  28424094.58700                  26032800.68040  28424096.89540
   3008264.69200  24678618.25900                   2398772.90040  24678620.43840
 96  9  4  3  9 30.0130000  0  7  4 14 18 19 22 25 29
   1150900.91800  28500746.91500                    858418.88940  28500750.25540
   7027291.87500  24486394.43100                   5487426.14240  24486397.91140
  -4350611.08000  26227028.60200                  -3330600.89940  26227031.83740
  -1578551.50900  28105762.50900                   -876951.88640  28105767.98140
  -3587457.03400  25040515.53200                  -2715418.34940  25040518.96640
  33458108.14900  28450793.97700                  26142131.59440  28450797.97440
   3049836.30300  24686529.08700                   2431166.37540  24686531.32540
 96  9  4  3 10  0.0130000  0  7  4 14 18 19 22 25 29
   1190736.92500  28508326.80600                    889459.90240  28508330.52040
   7115511.94500  24503181.98500                   5556169.04040  24503185.41940
  -4374064.31400  26222565.44600                  -3348876.11240  26222568.75140
  -1616994.22900  28098446.95400                   -906907.15940  28098451.52440
  -3542489.40200  25049072.50900                  -2680378.61940  25049075.67340
  33598401.39100  28477490.97000                  26251450.99940  28477493.64240
   3091630.21000  24694482.62600                   2463733.06240  24694484.70040
 96  9  4  3 10 30.0130000  0  7  4 14 18 19 22 25 29
   1231037.82900  28515995.68800                    920863.17440  28515998.63040
   7204255.72700  24520069.27400                   5625320.02740  24520072.59140
  -4397421.95500  26218121.37600                  -3367076.84340  26218124.62240
  -1655314.73300  28091154.10200                   -936767.22940  28091157.84140
  -3496937.73000  25057740.75100                  -2644883.80240  25057743.93840
  33738643.96900  28504177.67300                  26360730.93740  28504180.41540
   3133628.55900  24702474.50100                   2496459.05540  24702476.77440
 96  9  4  3 11  0.0130000  0  7  4 14 18 19 22 25 29
   1271812.71700  28523755.25100                    952635.81140  28523758.54440
   7293526.69000  24537057.11000                   5694881.79740  24537060.59140
  -4420674.53300  26213695.93100                  -3385195.69640  26213699.47040
  -1693511.92500  28083885.73500                   -966531.22840  28083890.11840
  -3450778.73900  25066524.29800                  -2608915.74040  25066527.42740
  33878855.79900  28530858.43800                  26469986.87540  28530860.55940
   3175838.08300  24710506.82900                   2529349.60340  24710509.05640
 96  9  4  3 11 30.0130000  0  7  4 14 18 19 22 25 29
   1313063.16200  28531604.72000                    984778.99340  28531607.46240
   7383307.89800  24554141.83700                   5764841.17340  24554145.24740
  -4443837.05100  26209288.64200                  -3403244.38040  26209291.65340
  -1731588.29800  28076640.60200                   -996201.01340  28076645.37240
  -3404013.18000  25075423.63400                  -2572475.02940  25075426.62240
  34019024.88300  28557532.71200                  26579209.54040  28557536.11040
   3218255.18800  24718578.53200                   2562401.90040  24718580.66540
 96  9  4  3 12  0.0130000  0  7  4 14 18 19 22 25 29
   1354835.87800  28539553.93100                   1017329.15140  28539558.14940
   7473633.64400  24571330.37600                   5835224.85840  24571333.78640
  -4466875.87000  26204904.05600                  -3421196.67040  26204907.20840
  -1769496.02500  28069425.72700                  -1025739.43840  28069430.28640
  -3356606.54800  25084444.32900                  -2535534.79040  25084447.23540
  34159191.09000  28584205.99300                  26688429.96240  28584211.57140
   3260918.92700  24726697.04000                   2595646.37740  24726699.25540
 96  9  4  3 12 30.0130000  0  7  4 14 18 19 22 25 29
   1397088.22200  28547594.40700                   1050253.06440  28547596.59940
   7564453.89200  24588613.02400                   5905993.87540  24588616.49340
  -4489848.97800  26200532.54800                  -3439097.76840  26200535.46640
  -1807279.56500  28062236.16500                  -1055181.04340  28062239.92740
  -3308626.00500  25093575.19600                  -2498147.34140  25093578.22040
  34299304.08600  28610867.15700                  26797608.95040  28610869.94640
   3303778.14000  24734852.68100                   2629043.17340  24734854.81340
 96  9  4  3 13  0.0130000  0  7  4 14 18 19 22 25 29
   1439881.48600  28555737.36800                   1083598.47040  28555739.04440
   7655814.50800  24605998.15700                   5977183.95740  24606001.63840
  -4512716.60900  26196181.25100                  -3456916.65840  26196184.16940
  -1844887.32300  28055079.72000                  -1084485.70340  28055084.93440
  -3260029.03200  25102822.72000                  -2460279.55240  25102825.80240
  34439408.87100  28637529.16500                  26906781.46940  28637532.31740
   3346870.47100  24743053.07100                   2662621.61640  24743055.16940
 96  9  4  3 13 30.0130000  0  7  4 14 18 19 22 25 29
   1483218.21200  28563983.57900
   7747731.31600  24623489.51700                   6048807.43040  24623492.95040
  -4535471.07400  26191851.45400                  -3474647.38740  26191854.74740
  -1882299.81200  28047960.62600                  -1113638.18440  28047964.49340
  -3210801.63400  25112190.64900                  -2421920.52840  25112193.81340
  34579505.24300  28664189.39900                  27015947.49340  28664192.57540
   3390217.43600  24751301.75100                   2696398.47540  24751303.93140
 96  9  4  3 14  0.0130000  0  7  4 14 18 19 22 25 29
   1527083.69400  28572331.50900
   7840206.43900  24641086.89900                   6120865.95640  24641090.39240
  -4558117.09800  26187542.37600                  -3492293.60440  26187545.68140
  -1919535.02600  28040873.68800                  -1142652.55340  28040879.47740
  -3160957.55000  25121675.39200                  -2383080.96840  25121678.66140
  34719584.95500  28690845.94600                  27125100.55840  28690848.79440
   3433814.09400  24759598.17300                   2730369.90340  24759600.27040
 96  9  4  3 14 30.0130000  0  7  4 14 18 19 22 25 29
   1571458.43800  28580776.14900                      1156.87650  28580780.62640
   7933215.52800  24658786.14200                   6193340.55740  24658789.54040
  -4580666.43500  26183251.07900                  -3509864.47940  26183254.16140
  -1956617.23100  28033817.61800                  -1171547.66340  28033823.27840
  -3110501.43600  25131276.86000                  -2343764.50540  25131280.10640
  34859650.61000  28717498.40700                  27234242.65140  28717499.98940
   3477655.55000  24767940.52400                   2764532.07840  24767942.73940
 96  9  4  3 15  0.0130000  0  7  4 14 18 19 22 25 29
   1616342.23500  28589317.61000                     36131.26540  28589320.95040
   8026753.95800  24676585.89900                   6266227.63640  24676589.43840
  -4603104.67100  26178980.82100                  -3527348.79140  26178984.12640
  -1993535.77500  28026792.50900                  -1200315.27440  28026795.54440
  -3059419.67500  25140997.28200                  -2303960.52840  25141000.57540
  34999718.72700  28744152.40700                  27343386.65340  28744153.43840
   3521750.29500  24776331.75900                   2798891.61940  24776333.86840
 96  9  4  3 15 30.0130000  0  6  4 14 18 19 22 29
   1661676.50400  28597943.83700                     71456.65640  28597947.65740
   8120775.29500  24694477.15700                   6339491.00440  24694480.82540
  -4625467.94300  26174725.50900                  -3544774.68640  26174728.83740
  -2030322.68200  28019792.36800                  -1228980.27740  28019796.57540
  -3007760.86800  25150828.04800                  -2263706.90040  25150830.90740
   3566050.01300  24784761.33700                   2833410.88640  24784763.54040
 96  9  4  3 16  0.0130000  0  6  4 14 18 19 22 29
   1707448.43500  28606653.16500                    107123.08940  28606657.03240
   8215248.88400  24712455.00100                   6413106.77840  24712458.61040
  -4647770.45900  26170480.68800                  -3562153.24840  26170483.65340
  -2066992.41400  28012813.77400                  -1257553.99840  28012819.51740
  -2955545.37200  25160764.06300                  -2223019.49240  25160767.14540
   3610530.86000  24793225.93800                   2868071.28840  24793227.98940
 96  9  4  3 16 30.0130000  0  6  4 14 18 19 22 29
   1753748.29800  28615464.36000                    143200.87640  28615466.36440
   8310255.02400  24730534.35200                   6487137.52540  24730537.92740
  -4669917.86600  26166266.39900                  -3579410.94040  26166269.47040
  -2103436.62900  28005877.86800                  -1285952.06040  28005882.14540
  -2902675.68900  25170824.87600                  -2181822.32540  25170827.87640
   3655279.70300  24801741.39200                   2902940.52040  24801743.63040
 96  9  4  3 17  0.0130000  0  6  4 14 18 19 22 29
   1800545.84200  28624370.07900                    179666.48940  28624375.38840
   8405778.15600  24748711.62600                   6561571.12040  24748715.02440
  -4691937.84700  26162075.67300                  -3596569.33640  26162078.73140
  -2139670.72200  27998983.71200                  -1314186.24540  27998990.82940
  -2849185.48500  25181003.50900                  -2140141.63840  25181006.43840
   3700256.39800  24810300.23500                   2937987.28940  24810302.45040
 96  9  4  3 17 30.0140000  0  6  4 14 18 19 22 29
   1847784.93600  28633359.42000                    216476.14940  28633362.37340
   8501774.09700  24766979.19300                   6636373.13540  24766982.52140
  -4713877.35900  26157900.67000                  -3613665.04040  26157903.88140
  -2175756.52600  27992117.14600                  -1342304.98240  27992120.55740
  -2795117.15900  25191292.39600                  -2098010.46940  25191295.58440
   3745413.00700  24818893.00600                   2973174.26440  24818895.10340
 96  9  4  3 18  0.0140000  0  6  4 14 18 19 22 29
   1895452.26200  28642430.56000                    253619.50040  28642435.62340
   8598229.49200  24785334.02900                   6711533.16640  24785337.61540
  -4735744.71900  26153740.05300                  -3630704.52440  26153743.26440
  -2211725.81500  27985271.44300                  -1370332.96240  27985277.11540
  -2740486.19300  25201688.45900                  -2055440.86940  25201691.47140
   3790740.10200  24827518.49800                   3008494.07840  24827520.76040
 96  9  4  3 18 30.0140000  0  6  4 14 18 19 22 29
   1943545.48700  28651582.28700                    291094.72340  28651586.98640
   8695170.14500  24803781.08400                   6787071.32740  24803784.52940
  -4757531.76000  26149594.50600                  -3647681.42440  26149597.69340
  -2247584.99400  27978447.37300                  -1398275.08840  27978452.68240
  -2685291.68600  25212191.53700                  -2012432.15240  25212194.81840
   3836250.58100  24836178.96700                   3043956.78840  24836181.18240
 96  9  4  3 19  0.0140000  0  6  4 14 18 19 22 29
   1992134.37700  28660827.40400                    328956.17340  28660831.18940
   8792674.50600  24822335.81800                   6863048.73640  24822339.07640
  -4779161.06500  26145478.41200                  -3664535.40740  26145481.51740
  -2283273.80900  27971656.31800                  -1426084.50640  27971663.13940
  -2629461.24000  25222815.33400                  -1968927.90140  25222818.53340
   3882041.81000  24844892.86500                   3079638.26240  24844894.99840
 96  9  4  3 19 30.0140000  0  6  4 14 18 19 22 29
   2041201.90200  28670164.60000                    367190.58840  28670168.80740
   8890719.29400  24840992.61500                   6939447.26340  24840996.23640
  -4800652.07600  26141389.13900                  -3681281.62740  26141392.35040
  -2318820.64100  27964892.17000                  -1453783.24140  27964896.68240
  -2573018.54700  25233556.02100                  -1924946.56640  25233559.25640
   3928105.21300  24853658.60700                   3115531.82440  24853660.81040
 96  9  4  3 20  0.0140000  0  6  4 14 18 19 22 29
   2090748.33200  28679593.07600                    405798.15540  28679597.63540
   8989297.94200  24859751.73200                   7016261.78240  24859755.08440
  -4822027.89900  26137320.79500                  -3697938.11340  26137323.85340
  -2354228.42100  27958155.35000                  -1481373.63140  27958158.92440
  -2515985.65200  25244409.35000                  -1880505.34740  25244412.03340
   3974437.43500  24862474.87300                   3151634.85140  24862477.14640
 96  9  4  3 20 30.0140000  0  6  4 14 18 19 22 29
   2140739.24700  28689107.22500                    444752.08440  28689111.52540
   9088355.77900  24878602.03700                   7093449.68940  24878605.47140
  -4843346.80400  26133263.91200                  -3714550.23640  26133267.06440
  -2389520.10600  27951438.63900                  -1508873.64240  27951445.14240
  -2458392.68200  25255369.25600                  -1835627.69340  25255372.10340
   4020997.34900  24871335.23200                   3187915.30640  24871337.33040
 96  9  4  3 21  0.0140000  0  6  4 14 18 19 22 29
   2191206.62800  28698710.79500                    484077.28440  28698716.77140
   9187897.78000  24897544.16200                   7171014.87640  24897547.80740
  -4864589.84600  26129221.42800                  -3731103.25640  26129224.42840
  -2424661.46400  27944752.27100                  -1536256.43140  27944758.65840
  -2400211.90000  25266440.22500                  -1790292.01140  25266443.16640
   4067792.41600  24880239.99800                   3224378.98840  24880242.28340
 96  9  4  3 21 30.0140000  0  6  4 14 18 19 22 29
   2242142.80000  28708403.02900                    523767.74740  28708407.28340
   9287913.00700  24916576.44300                   7248948.80940  24916579.83040
  -4885779.90300  26125188.61500                  -3747614.99040  26125191.59240
  -2459663.32800  27938089.77900                  -1563530.55440  27938095.97840
  -2341454.49200  25277621.60700                  -1744507.00840  25277624.60740
   4114783.46100  24889181.85700                   3260995.38840  24889184.02540
 96  9  4  3 22  0.0140000  0  6  4 14 18 19 22 29
   2293580.33000  28718192.38100                    563848.93340  28718195.47540
   9388430.89100  24935704.35000                   7327274.41540  24935707.92440
  -4906883.84300  26121173.37300                  -3764059.60940  26121176.44340
  -2494480.67200  27931464.76400                  -1590660.91840  27931470.74040
  -2282077.14700  25288920.81800                  -1698238.94040  25288923.92440
   4162000.27500  24898167.31000                   3297787.69840  24898169.46740
 96  9  4  3 22 30.0140000  0  6  4 14 18 19 22 29
   2345522.11600  28728074.61500                    604323.03340  28728078.51740
   9489450.49800  24954927.72500                   7405990.98640  24954931.14640
  -4927870.51600  26117179.63100                  -3780412.86240  26117182.40840
  -2529103.00100  27924876.90400                  -1617639.33440  27924880.80740
  -2222069.41000  25300339.76400                  -1651479.65140  25300342.71740
   4209441.17300  24907194.63900                   3334754.62940  24907196.86540
 96  9  4  3 23  0.0140000  0  6  4 14 18 19 22 29
   2397952.58400  28738053.05300                    645177.89840  28738054.95140
   9590969.43200  24974245.99800                   7485096.63240  24974249.83040
  -4948725.12300  26113211.90400                  -3796663.20740  26113215.11540
  -2563550.73600  27918320.93500                  -1644481.68140  27918326.32640
  -2161454.55000  25311874.24000                  -1604247.28140  25311877.40440
   4257093.30300  24916262.58400                   3371886.15840  24916264.83440
 96  9  4  3 23 30.0140000  0  6  4 14 18 19 22 29
   2450878.64900  28748123.74000                    686418.95940  28748127.76040
   9693012.66100  24993664.72500                   7564610.82540  24993668.14640
  -4969420.55600  26109272.49800                  -3812789.51440  26109275.49840
  -2597820.60500  27911800.75600                  -1671185.43540  27911806.80340
  -2100209.45300  25323529.08400                  -1556523.82440  25323531.97840
   4304988.39700  24925376.84200                   3409207.01140  24925378.90440
 96  9  4  3 24  0.0140000  0  6  4 14 18 19 22 29
   2504268.97900  28758284.21700                    728021.82940  28758286.27940
   9795546.41400  25013175.59200                   7644507.24640  25013179.37740
  -4989961.79100  26105363.79500                  -3828795.67640  26105367.27540
  -2631940.31300  27905307.10000                  -1697772.18540  27905313.61540
  -2038361.37800  25335298.06800                  -1508330.51040  25335301.20940
   4353107.70400  24934533.68500                   3446702.56840  24934535.95940
 96  9  4  3 24 30.0140000  0  6  4 14 18 19 22 29
   2558126.98300  28768532.26400                    769989.06840  28768535.43940
   9898575.99500  25032781.84200                   7724790.02340  25032785.47540
  -5010332.19600  26101487.68500                  -3844668.71940  26101490.87340
  -2665910.98400  27898842.69300                  -1724242.78940  27898847.99040
  -1975911.16400  25347182.03700                  -1459667.99540  25347184.95540
   4401464.55500  24943735.50600                   3484383.23340  24943737.70940
 96  9  4  3 25  0.0140000  0  6  4 14 18 19 22 29
   2612455.57200  28778872.10000                    812322.97540  28778874.95940
  10002110.61200  25052483.67800                   7805466.33540  25052487.24040
  -5030525.61000  26097644.88900                  -3860403.84440  26097647.81840
  -2699729.27600  27892407.78700                  -1750594.67340  27892411.81840
  -1912848.26400  25359182.45900                  -1410528.06640  25359185.54140
   4450077.79800  24952986.38900                   3522263.67940  24952988.52140
 96  9  4  3 25 30.0140000  0  6  4 14 18 19 22 29
   2667228.19200  28789294.10000                    855002.89640  28789299.39640
  10106113.55700  25072275.03700                   7886507.57340  25072278.62340
  -5050584.06100  26093828.31000                  -3876033.80440  26093831.56840
  -2733416.16500  27885996.49800                  -1776844.14140  27886001.88940
  -1849206.79700  25371293.42000                  -1360937.29340  25371296.29140
   4498919.35900  24962280.75600                   3560322.03740  24962282.95940
 96  9  4  3 26  0.0140000  0  6  4 14 18 19 22 29
   2722472.97700  28799807.21700                    898050.74440  28799812.27940
  10210597.68200  25092157.47500                   7967923.76440  25092161.17840
  -5070496.26900  26090039.01400                  -3891549.81240  26090042.06040
  -2766936.77900  27879618.97500                  -1802964.08540  27879624.07240
  -1784979.52000  25383514.86500                  -1310890.05640  25383518.01740
   4548006.92600  24971621.71700                   3598572.08640  24971623.90840
 96  9  4  3 26 30.0140000  0  6  4 14 18 19 22 29
   2778170.51800  28810405.84200                    941451.40440  28810410.01440
  10315542.68600  25112127.92000                   8049699.08340  25112131.63540
  -5090299.52500  26086270.20900                  -3906980.92040  26086273.04540
  -2800310.61700  27873267.97500                  -1828969.63740  27873273.22540
  -1720194.90900  25395843.24800                  -1260408.53140  25395846.47140
   4597329.16300  24981007.31800                   3637005.00040  24981009.43940
 96  9  4  3 27  0.0140000  0  6  4 14 18 19 22 29
   2834311.33200  28821089.21700                    985197.45140  28821092.41640
  10420949.55300  25132186.38900                   8131834.29140  25132189.95140
  -5110011.14600  26082520.30300                  -3922340.62440  26082523.57240
  -2833536.78800  27866944.25600                  -1854860.10040  27866949.89240
  -1654858.37700  25408276.19300                  -1209496.93840  25408279.26440
   4646867.49200  24990434.10700                   3675606.29240  24990436.25240
 96  9  4  3 27 30.0140000  0  6  4 14 18 19 22 29
   2890870.54300  28831852.56000                   1029269.57140  28831855.95940
  10526791.41900  25152326.87300                   8214308.46440  25152330.69340
  -5129686.32800  26078775.45100                  -3937671.92840  26078778.47540
  -2866645.88500  27860643.70900                  -1880659.37340  27860647.89240
  -1588998.98600  25420808.80300                  -1158177.92240  25420811.74440
   4696581.62300  24999894.14600                   3714344.58140  24999896.27940
 96  9  4  3 28  0.0140000  0  6  4 14 18 19 22 29
   2947871.40000  28842699.18500                   1073685.80140  28842702.04540
  10633097.53000  25172556.42800                   8297144.37740  25172560.13140
  -5149303.85500  26075042.24000                  -3952958.31540  26075045.35740
  -2899599.00100  27854372.81000                  -1906337.10040  27854377.53340
  -1522577.22100  25433448.42000                  -1106420.69340  25433451.40840
   4746508.16200  25009395.17800                   3753248.38340  25009397.60340
 96  9  4  3 28 30.0140000  0  6  4 14 18 19 22 29
   3005291.52200  28853626.35000                   1118428.72040  28853630.13540
  10739847.00300  25192870.37300                   8380325.77240  25192873.93540
  -5168877.79200  26071317.39600                  -3968210.72240  26071320.67840
  -2932414.99500  27848129.42800                  -1931907.93240  27848133.75240
  -1455607.06400  25446192.63100                  -1054236.14540  25446195.61940
   4796621.77100  25018931.29500                   3792297.95040  25018933.54540
 96  9  4  3 29  0.0140000  0  6  4 14 18 19 22 29
   3063243.85500  28864654.15400                   1163586.37240  28864657.83440
  10847148.06100  25213289.39600                   8463936.96540  25213293.07640
  -5188284.51300  26067624.60700                  -3983332.83640  26067627.70140
  -2964975.90500  27841932.67800                  -1957280.01740  27841937.91640
  -1387958.43100  25459065.56800                  -1001522.91940  25459068.40440
   4847024.98500  25028523.02100                   3831573.19040  25028525.17840
 96  9  4  3 29 30.0140000  0  6  4 14 18 19 22 29
   3121689.39000  28875776.20100                   1209128.33940  28875780.88940
  10954936.38600  25233800.55300                   8547927.86140  25233804.18540
  -5207556.41800  26063957.29500                  -3998349.89040  26063960.15440
  -2997341.81700  27835772.09200                  -1982500.19140  27835776.73240
  -1319670.22200  25472060.34200                   -948311.32140  25472063.57640
   4897678.70300  25038161.98200                   3871043.62140  25038164.16240
 96  9  4  3 30  0.0140000  0  6  4 14 18 19 22 29
   3180624.36700  28886990.74800                   1255051.68840  28886994.04140
  11063216.43800  25254405.53700                   8632301.91340  25254409.15840
  -5226654.49900  26060323.15400                  -4013231.49540  26060326.38940
  -3029509.87700  27829651.27100                  -2007566.17340  27829655.77140
  -1250743.32800  25485177.04500                   -894602.04840  25485180.11540
   4948602.44400  25047852.40400                   3910724.45840  25047854.59640
 96  9  4  3 30 30.0140000  0  6  4 14 18 19 22 29
   3240045.85200  28898299.02900                   1301354.12540  28898301.31440
  11171991.88900  25275104.88100                   8717061.98840  25275108.68940
  -5245558.24400  26056725.57600                  -4027961.67140  26056728.37740
  -3061509.69900  27823562.59200                  -2032501.03940  27823567.59640
  -1181180.87600  25498414.06000                   -840397.53040  25498417.15440
   4999793.01900  25057593.65400                   3950613.22640  25057595.88140
 96  9  4  3 31  0.0140000  0  6  4 14 18 19 22 29
   3299915.02100  28909690.54500                   1348005.36340  28909694.78740
  11281224.94500  25295891.21700                   8802178.65240  25295894.86140
  -5264311.83500  26053157.16200                  -4042574.84340  26053159.99840
  -3093393.08500  27817494.76400                  -2057345.16440  27817499.58040
  -1111026.75900  25511764.37300                   -785731.97640  25511767.46740
   5051229.12500  25067381.52100                   3990693.31140  25067383.84240
 96  9  4  3 31 30.0140000  0  6  4 14 18 19 22 29
   3360218.40800  28921166.10000                   1394994.98040  28921170.20140
  11390910.37600  25316763.81800                   8887647.80240  25316767.26440
  -5282928.92300  26049614.38900                  -4057081.64740  26049617.21340
  -3125164.63500  27811449.45900                  -2082102.17540  27811454.60340
  -1040318.81600  25525219.20900                   -730634.87240  25525222.33840
   5102919.80600  25077218.02900                   4030971.77040  25077220.19740
 96  9  4  3 32  0.0140000  0  6  4 14 18 19 22 29
   3420989.81000  28932731.76400                   1442349.31440  28932735.13940
  11501094.63800  25337731.24800                   8973505.65740  25337734.99840
  -5301377.30100  26046104.25600                  -4071456.98440  26046107.44340
  -3156774.21900  27805434.24000                  -2106732.95840  27805439.04540
   -969036.32200  25538783.99800                   -675090.06840  25538787.12740
   5154911.58500  25087111.71700                   4071484.85340  25087114.01440
 96  9  4  3 32 30.0140000  0  6  4 14 18 19 22 29
   3482188.37800  28944376.88900                   1490036.47840  28944380.51040
  11611721.59700  25358782.66200                   9059708.46740  25358786.37740
  -5319722.10000  26042612.63100                  -4085751.60740  26042615.57240
  -3188257.04300  27799442.83400                  -2131264.95940  27799447.54540
   -897227.55700  25552448.66200                   -619135.17940  25552451.68540
   5207147.63400  25097051.71700                   4112188.27840  25097054.10740
 96  9  4  3 33  0.0140000  0  6  4 14 18 19 22 29
   3543800.49200  28956100.81800                   1538045.90440  28956103.40840
  11722771.23800  25379914.63900                   9146240.64640  25379918.28340
  -5337992.15700  26039135.98200                  -4099987.99140  26039138.83040
  -3219600.92000  27793478.85000                  -2155688.69440  27793484.68540
   -824917.07400  25566208.72500                   -562789.33740  25566211.92440
   5259611.29900  25107035.42800                   4153069.06140  25107037.60740
 96  9  4  3 33 30.0140000  0  6  4 14 18 19 22 29
   3605905.34800  28967919.15400                   1586439.30040  28967923.68940
  11834337.30800  25401145.03700                   9233175.22340  25401148.95140
  -5356090.02600  26035692.06000                  -4114090.19940  26035694.89640
  -3250705.96600  27787559.26400                  -2179926.35040  27787563.95140
   -752019.85000  25580080.73200                   -505986.30340  25580083.62740
   5312368.16800  25117074.92000                   4194178.30940  25117077.07640
 96  9  4  3 34  0.0150000  0  6  4 14 18 19 22 29
   3668422.78200  28979815.29200                   1635154.14440  28979818.49140
  11946347.62100  25422460.03400                   9320455.97140  25422463.58540
  -5374091.85000  26032266.47200                  -4128117.56540  26032269.29640
  -3281649.13000  27781671.61200                  -2204037.84640  27781677.20240
   -678588.30700  25594054.69000                   -448766.90740  25594057.60840
   5365332.30300  25127153.45600                   4235449.06840  25127155.67140
 96  9  4  3 34 30.0150000  0  6  4 14 18 19 22 29
   3731369.03100  28991794.40900                   1684203.18740  28991797.55040
  12058817.45900  25443862.12800                   9408094.79640  25443866.05440
  -5391961.76900  26028866.05000                  -4142042.13640  26028869.01540
  -3312397.45100  27775819.43300                  -2227997.50540  27775824.97540
   -604582.64400  25608136.81500                   -391100.15340  25608140.08540
   5418527.09600  25137276.17500                   4276899.55740  25137278.51840
 96  9  4  3 35  0.0150000  0  6  4 14 18 19 22 29
   3794752.14700  29003855.25300                   1733592.59040  29003859.96440
  12171762.41700  25465355.01100                   9496103.84140  25465358.67940
  -5409677.92900  26025494.92500                  -4155846.90440  26025497.90140
  -3342946.59900  27770006.87800                  -2251801.95640  27770011.63640
   -529981.58000  25622333.12800                   -332969.44440  25622336.17540
   5471973.50300  25147446.76100                   4318546.10640  25147449.01140
 96  9  4  3 35 30.0150000  0  6  4 14 18 19 22 29
   3858519.06900  29015989.81500                   1783281.04140  29015994.38640
  12285129.05900  25486927.98700                   9584441.46540  25486931.67940
  -5427283.17400  26022144.16700                  -4169565.24540  26022147.05040
  -3373360.11100  27764218.40100                  -2275500.74840  27764223.85040
   -454814.71600  25636637.13600                   -274397.85640  25636639.96040
   5525625.18300  25157656.27600                   4360352.61040  25157658.62040
 96  9  4  3 36  0.0150000  0  6  4 14 18 19 22 29
   3922717.65300  29028207.23700                   1833305.96740  29028211.25740
  12398930.16300  25508583.41700                   9673117.63340  25508587.05040
  -5444735.81300  26018823.37000                  -4183164.67440  26018826.25340
  -3403602.91500  27758464.32300                  -2299066.50840  27758469.60840
   -379028.21100  25651058.61200                   -215343.43340  25651061.80040
   5579539.10700  25167915.70600                   4402363.45340  25167917.99140
 96  9  4  3 36 30.0150000  0  6  4 14 18 19 22 29
   3987350.95300  29040506.20600                   1883669.54640  29040510.91740
  12513145.53300  25530318.28400                   9762116.59640  25530322.01140
  -5462033.93000  26015531.14300                  -4196643.69540  26015533.89740
  -3433697.33100  27752736.82300                  -2322516.63140  27752741.15940
   -302635.47400  25665595.38600                   -155816.61540  25665598.42140
   5633704.96100  25178223.33900                   4444570.60940  25178225.48340
 96  9  4  3 37  0.0150000  0  6  4 14 18 19 22 29
   4052435.25000  29052891.01800                   1934384.54340  29052895.44840
  12627783.10900  25552132.92500                   9851444.56640  25552136.45240
  -5479180.21700  26012268.87800                  -4210004.40140  26012271.81940
  -3463650.31700  27747037.02600                  -2345856.57640  27747042.81540
   -225647.55200  25680245.94000                    -95826.02040  25680248.97540
   5688117.92400  25188577.57300                   4486970.31540  25188579.77640
 96  9  4  3 37 30.0150000  0  6  4 14 18 19 22 29
   4117997.96300  29065366.30800                   1985472.34740  29065371.33540
  12742861.21900  25574031.92500                   9941115.79840  25574035.58140
  -5496151.11700  26009039.12000                  -4223228.45440  26009041.92140
  -3493444.14200  27741368.01100                  -2369072.45940  27741373.41340
   -148059.25100  25695010.22900                    -35367.59840  25695013.20640
   5742790.39800  25198981.29200                   4529572.23940  25198983.49540
 96  9  4  3 38  0.0150000  0  6  4 14 18 19 22 29
   4184040.30100  29077934.09700                   2036933.90440  29077939.73340
  12858382.20300  25596014.59700                  10031132.14040  25596018.17140
  -5512953.66700  26005841.30800                  -4236321.31640  26005844.22540
  -3523072.74400  27735730.31500                  -2392159.63040  27735734.72240
    -69905.25300  25709882.62000                     25531.62840  25709885.65540
   5797718.43600  25209433.97900                   4572373.29640  25209436.13640
 96  9  4  3 38 30.0150000  0  6  4 14 18 19 22 29
   4250518.09700  29090585.47900                   2088734.74040  29090589.33540
  12974338.33700  25618080.18300                  10121487.54840  25618083.86240
  -5529633.49900  26002667.86200                  -4249318.56740  26002670.68640
  -3552569.32800  27730115.28400                  -2415143.92440  27730120.92140
      8750.34400  25724850.55800                     86821.70340  25724853.41740
   5852869.72100  25219928.65100                   4615348.32240  25219930.83140
 96  9  4  3 39  0.0150000  0  6  4 14 18 19 22 29
   4317472.72800  29103326.77600                   2140907.12140  29103328.56940
  13090782.15500  25640238.64300                  10212222.97440  25640242.37040
  -5546156.04400  25999523.22200                  -4262193.25040  25999526.24540
  -3581866.34100  27724541.45600                  -2437972.72140  27724546.16740
     87948.40100  25739921.30000                    148534.48040  25739924.48740
   5908298.99500  25230476.80800                   4658539.95540  25230478.90540
 96  9  4  3 39 30.0150000  0  6  4 14 18 19 22 29
   4384872.22000  29116151.78400                   2193426.24440  29116153.76540
  13207688.55300  25662485.10400                  10303318.85840  25662488.83140
  -5562526.55000  25996408.01100                  -4274949.46840  25996410.81140
  -3610955.30600  27719005.14300                  -2460639.39640  27719009.93640
    167680.63600  25755094.10400                    210663.50040  25755096.82340
   5964009.62000  25241077.98700                   4701950.82540  25241080.13240
 96  9  4  3 40  0.0150000  0  6  4 14 18 19 22 29
   4452675.49800  29129054.89300                   2246259.91240  29129056.74540
  13325040.08000  25684816.34700                  10394761.59740  25684820.14340
  -5578764.86800  25993318.22900                  -4287602.68440  25993321.20640
  -3639850.84300  27713506.56500                  -2483155.33340  27713511.72240
    247937.74100  25770366.17500                    273201.50840  25770369.19840
   6019996.25000  25251731.78400                   4745576.76940  25251733.97540
 96  9  4  3 40 30.0150000  0  6  4 14 18 19 22 29
   4520902.12000  29142038.12800                   2299423.48740  29142043.08540
  13442859.08300  25707236.63600                  10486568.60540  25707240.45640
  -5594818.65300  25990263.52600                  -4300112.10540  25990266.30440
  -3668526.92000  27708049.54200                  -2505500.28840  27708054.22940
    328778.84500  25785749.62800                    336194.58140  25785752.86240
   6076296.39800  25262445.51100                   4789447.01540  25262447.86640
 96  9  4  3 41  0.0150000  0  6  4 14 18 19 22 29
   4589529.89600  29155096.83900                   2352899.69740  29155102.38240
  13561110.54900  25729738.99500                  10578712.59540  25729742.79240
  -5610687.93600  25987243.38600                  -4312477.76440  25987246.18640
  -3697001.75200  27702630.88600                  -2527688.41740  27702635.53840
    410217.77300  25801247.15100                    399653.49240  25801250.08140
   6132875.47000  25273212.22900                   4833534.60140  25273214.30440
 96  9  4  3 41 30.0150000  0  6  4 14 18 19 22 29
   4658577.53800  29168235.98700                   2406703.01440  29168239.51540
  13679829.85500  25752330.83100                  10671221.13440  25752334.48740
  -5626337.91900  25984265.32300                  -4324672.54240  25984268.30040
  -3725261.23200  27697253.85400                  -2549708.76340  27697259.37440
    492284.29500  25816863.66700                    463601.44640  25816866.51540
   6189758.40800  25284036.57300                   4877858.96840  25284038.72940
 96  9  4  3 42  0.0150000  0  6  4 14 18 19 22 29
   4728066.58100  29181459.06500                   2460850.23540  29181461.12840
  13799024.86800  25775012.97200                  10764100.35140  25775016.65140
  -5641774.46100  25981327.96400                  -4336701.00340  25981330.80040
  -3753321.06100  27691913.68300                  -2571573.50040  27691918.44040
    574985.41200  25832601.42500                    528043.87840  25832604.58940
   6246928.14500  25294915.80800                   4922406.81040  25294918.10440
 96  9  4  3 42 30.0150000  0  6  4 14 18 19 22 29
   4797984.16600  29194763.72900                   2515331.50340  29194771.42140
  13918651.60400  25797776.99500                  10857315.98540  25797780.97940
  -5657036.60800  25978423.39300                  -4348593.58040  25978426.27640
  -3781208.97100  27686607.06500                  -2593304.30540  27686611.05040
    658284.29800  25848452.65900                    592952.11440  25848455.91740
   6304335.32100  25305839.63600                   4967139.67940  25305841.95640
 96  9  4  3 43  0.0150000  0  6  4 14 18 19 22 29
   4868307.29300  29208146.26100                   2570128.71740  29208150.79640
  14038671.26600  25820616.24500                  10950837.79340  25820619.80840
  -5672180.92900  25975541.99500                  -4360394.34440  25975544.69040
  -3808954.36700  27681327.29200                  -2614924.04740  27681332.21440
    742130.28900  25864407.76800                    658286.65940  25864410.67540
   6361943.09600  25316802.43300                   5012028.84940  25316804.70640
 96  9  4  3 43 30.0150000  0  6  4 14 18 19 22 29
   4939081.98200  29221614.94000                   2625277.81340  29221619.82740
  14159120.44800  25843536.53400                  11044694.28640  25843540.69440
  -5687175.21600  25972688.31500                  -4372078.20340  25972691.23340
  -3836520.72900  27676081.54200                  -2636404.29540  27676085.96040
    826541.06500  25880471.01800                    724061.29940  25880474.25340
   6419812.41700  25327814.33900                   5057121.83440  25327816.58940
 96  9  4  3 44  0.0150000  0  6  4 14 18 19 22 29
   5010339.33500  29235174.33100                   2680803.03140  29235180.26140
  14280020.64200  25866543.56500                  11138902.22740  25866546.84740
  -5701977.35000  25969871.46400                  -4383612.33640  25969874.25340
  -3863869.19000  27670877.33900                  -2657714.75140  27670882.31940
    911543.58900  25896646.25300                    790297.04040  25896649.28840
   6477984.49600  25338884.30000                   5102450.72640  25338886.47940
 96  9  4  3 44 30.0150000  0  6  4 14 18 19 22 29
   5081991.52800  29248809.35400                   2736635.86740  29248813.64340
  14401311.66600  25889624.07300                  11233414.70640  25889627.91740
  -5716642.20700  25967080.80000                  -4395039.49440  25967083.62440
  -3891067.75300  27665701.90900                  -2678908.40440  27665706.25740
    997054.55400  25912918.44800                    856928.97540  25912921.60040
   6536408.33200  25350002.05800                   5147975.79540  25350004.31940
 96  9  4  3 45  0.0150000  0  6  4 14 18 19 22 29
   5154077.47200  29262526.84700                   2792806.72540  29262529.39040
  14523050.92400  25912790.80800                  11328276.45340  25912794.51140
  -5731105.67800  25964328.63600                  -4406309.72740  25964331.40140
  -3918081.67100  27660560.64300                  -2699958.16840  27660564.88640
   1083119.35400  25929296.02600                    923992.46640  25929298.88640
   6595143.87800  25361179.01800                   5193743.75440  25361181.30440
 96  9  4  3 45 30.0150000  0  6  4 14 18 19 22 29
   5226565.35100  29276320.84700                   2849290.69540  29276326.01540
  14645233.94100  25936041.32300                  11423483.99740  25936044.82740
  -5745367.60400  25961614.72900                  -4417422.92140  25961617.69440
  -3944925.34700  27655452.56500                  -2720875.28240  27655457.18340
   1169715.42900  25945774.82300                    991469.93340  25945777.76540
   6654165.17000  25372410.44000                   5239734.37440  25372412.65540
 96  9  4  3 46  0.0150000  0  6  4 14 18 19 22 29
   5299435.55200  29290188.10400                   2906072.63640  29290192.73340
  14767839.56500  25959372.02600                  11519020.83140  25959375.95240
  -5759447.71400  25958934.87800                  -4428394.44340  25958938.06540
  -3971618.50300  27650373.58100                  -2741675.12840  27650377.97540
   1256824.30100  25962350.76100                   1059346.98840  25962354.00740
   6713436.14600  25383689.00300                   5285919.55140  25383691.24140
 96  9  4  3 46 30.0150000  0  6  4 14 18 19 22 29
   5372698.05200  29304129.05000                   2963160.27640  29304132.92940
  14890859.41600  25982782.18300                  11614880.44040  25982786.26140
  -5773347.64700  25956290.05000                  -4439225.55540  25956293.08540
  -3998158.00200  27645322.88600                  -2762355.22940  27645326.83540
   1344461.25900  25979027.72200                   1127635.54140  25979030.37040
   6772956.10700  25395015.25300                   5332298.75040  25395017.53840
 96  9  4  3 47  0.0150000  0  6  4 14 18 19 22 29
   5446361.87500  29318146.48700                   3020560.63940  29318150.26140
  15014277.50100  26006267.72900                  11711050.36640  26006271.28040
  -5787084.16400  25953676.26100                  -4449929.33540  25953679.09740
  -4024530.92400  27640304.90100                  -2782905.52140  27640308.99140
   1432629.69300  25995805.51800                   1196338.22740  25995808.47240
   6832717.00800  25406387.48700                   5378865.68240  25406389.66740
 96  9  4  3 47 30.0150000  0  6  4 14 18 19 22 29
   5520527.37300  29332259.45600                   3078351.90540  29332264.49540
  15138177.25200  26029845.49500                  11807595.60540  26029849.14040
  -5800571.63400  25951109.85400                  -4460439.04740  25951112.73740
  -4050627.16000  27635337.90900                  -2803240.22540  27635342.24540
   1521421.67200  26012702.38600                   1265526.78840  26012705.17540
   6892823.23100  25417825.22900                   5425701.70540  25417827.51540
 96  9  4  3 48  0.0150000  0  6  4 14 18 19 22 29
   5595114.04700  29346453.51100                   3136471.34040  29346458.09340
  15262445.87900  26053492.69000                  11904428.28940  26053496.49940
  -5813907.36900  25948571.50300                  -4470830.52940  25948574.59740
  -4076552.72000  27630404.45600                  -2823441.92740  27630408.88640
   1610751.02500  26029700.84700                   1335134.07940  26029703.94040
   6953196.54100  25429313.76800                   5472745.84840  25429315.90140
 96  9  4  3 48 30.0150000  0  6  4 14 18 19 22 29
   5670109.00400  29360724.24500                   3194908.93940  29360728.38240
  15387085.54300  26077211.08100                  12001550.08640  26077214.79640
  -5827087.09700  25946064.12000                  -4481100.44140  25946066.90940
  -4102302.26700  27625504.87000                  -2843506.48140  27625508.91340
   1700608.02700  26046799.92500                   1405152.53040  26046803.33540
   7013834.49800  25440852.98700                   5519996.20540  25440855.22540
 96  9  4  3 49  0.0150000  0  6  4 14 18 19 22 29
   5745526.27900  29375075.76800                   3253675.57240  29375076.57740
  15512129.30800  26101005.65100                  12098986.76840  26101009.29640
  -5840078.05400  25943591.87000                  -4491223.25940  25943594.82340
  -4127853.89200  27620641.78400                  -2863416.81140  27620645.80440
   1790998.56200  26064000.86200                   1475586.72140  26064003.97940
   7074762.66500  25452446.99500                   5567472.70340  25452449.28040
 96  9  4  3 49 30.0150000  0  6  4 14 18 19 22 29
   5821287.14800  29389494.18300                   3312709.99440  29389498.24940
  15637522.32000  26124867.12800                  12196695.58740  26124871.32340
  -5852925.46300  25941147.31500                  -4501234.22240  25941150.25740
  -4153285.76600  27615803.39300                  -2883233.83340  27615807.50740
   1881867.63700  26081292.67500                   1546393.79140  26081295.49940
   7135929.37000  25464086.94000                   5615135.06840  25464089.13240
 96  9  4  3 50  0.0150000  0  6  4 14 18 19 22 29
   5897395.49300  29403976.44000                   3372015.22840  29403983.56940
  15763290.74100  26148800.67500                  12294696.93640  26148804.28440
  -5865609.62700  25938733.61200                  -4511117.97540  25938736.53040
  -4178583.47500  27610988.87800                  -2902946.30040  27610993.30840
   1973235.20200  26098679.59700                   1617589.30440  26098682.42140
   7197343.64300  25475773.44800                   5662990.34740  25475775.54640
 96  9  4  3 50 30.0160000  0  6  4 14 18 19 22 29
   5973893.61100  29418533.85900                   3431624.06140  29418537.52740
  15889503.59300  26172818.18000                  12393044.59940  26172822.01240
  -5878074.54100  25936361.50800                  -4520830.87240  25936364.28540
  -4203674.43900  27606214.10100                  -2922497.66840  27606218.59040
   2065156.41400  26116171.40600                   1689216.22240  26116174.19540
   7259062.37500  25487518.49200                   5711082.86640  25487520.68340
 96  9  4  3 51  0.0160000  0  6  4 14 18 19 22 29
   6050777.87800  29433164.07800                   3491533.89440  29433171.74640
  16016154.04600  26196918.63300                  12491733.25040  26196922.94540
  -5890328.93300  25934029.33600                  -4530379.73940  25934032.13740
  -4228562.93300  27601477.46100                  -2941891.27240  27601482.06640
   2157637.49300  26133769.92200                   1761279.41140  26133772.96940
   7321105.50200  25499324.67200                   5759428.15940  25499327.00440
 96  9  4  3 51 30.0160000  0  6  4 14 18 19 22 29
   6128057.49000  29447868.88300                   3551751.64940  29447874.76640
  16143230.90100  26221100.47600                  12590754.15940  26221104.35540
  -5902378.94500  25931736.25000                  -4539769.34240  25931738.96940
  -4253250.57400  27596780.25800                  -2961128.36940  27596784.69940
   2250689.97700  26151477.52300                   1833787.84440  26151480.32440
   7383460.93300  25511190.67200                   5808016.80740  25511192.76940
 96  9  4  3 52  0.0160000  0  6  4 14 18 19 22 29
   6205716.73600  29462648.07800                   3612265.28140  29462654.00840
  16270682.63600  26245353.89100                  12690067.19340  26245357.61740
  -5914265.97300  25929474.53100                  -4549031.94540  25929477.32040
  -4277766.22000  27592114.93700                  -2980231.43040  27592119.18040
   2344259.86700  26169282.80500                   1906699.45340  26169285.84040
   7446080.23100  25523106.71900                   5856811.06240  25523108.74640
 96  9  4  3 52 30.0160000  0  6  4 14 18 19 22 29
   6283779.73000  29477502.04700                   3673093.57740  29477503.47640
  16398517.60900  26269680.12500                  12789678.84040  26269684.33240
  -5925967.10000  25927247.32800                  -4558149.68640  25927250.28140
  -4302097.93400  27587484.40600                  -2999191.16340  27587488.95340
   2438363.87500  26187190.28100                   1980027.26040  26187193.18740
   7508985.26300  25535077.08600                   5905827.97040  25535079.27740
 96  9  4  3 53  0.0160000  0  6  4 14 18 19 22 29
   6362248.92100  29492433.84400                   3734238.40040  29492440.12540
  16526721.94000  26294076.39100                  12889578.31340  26294080.19940
  -5937471.24900  25925058.65600                  -4567113.94040  25925061.32840
  -4326265.91800  27582885.93700                  -3018023.32140  27582890.29740
   2533000.79800  26205199.10900                   2053770.31640  26205201.72340
   7572171.80600  25547101.02300                   5955064.24040  25547103.22640
 96  9  4  3 53 30.0160000  0  6  4 14 18 19 22 29
   6441131.62400  29507445.24200                   3795705.40740  29507449.51940
  16655292.60100  26318542.73400                  12989763.23040  26318546.39140
  -5948757.12500  25922910.67200                  -4575908.11140  25922913.35540
  -4350261.27000  27578319.88300                  -3036720.96340  27578324.57040
   2628163.03500  26223308.02300                   2127922.71840  26223311.07040
   7635628.72600  25559176.52300                   6004511.18840  25559178.70340
 96  9  4  3 54  0.0160000  0  6  4 14 18 19 22 29
   6520417.03300  29522533.52300                   3857486.20340  29522538.97340
  16784252.22600  26343083.35100                  13090251.23540  26343086.89140
  -5959817.68500  25920805.99200                  -4584526.70740  25920808.75840
  -4374061.42200  27573790.19500                  -3055266.49940  27573794.66040
   2723854.64400  26241517.10100                   2202487.61440  26241520.10140
   7699391.89000  25571310.48400                   6054196.77340  25571312.57040
 96  9  4  3 54 30.0160000  0  6  4 14 18 19 22 29
   6600041.33300  29537684.75800                   3919531.06440  29537685.30840
  16913559.69400  26367689.35900                  13191010.28840  26367692.95740
  -5970675.42800  25918740.17200                  -4592987.27540  25918742.98440
  -4397707.84900  27569290.54700                  -3073692.23840  27569294.98840
   2820046.63300  26259822.03900                   2277442.41440  26259825.19140
   7763422.69000  25583494.99200                   6104090.90140  25583497.27740
 96  9  4  3 55  0.0160000  0  6  4 14 18 19 22 29
   6680041.62100  29552908.81200                   3981868.85240  29552912.36340
  17043248.38200  26392368.43000                  13292066.39840  26392371.93340
  -5981291.94700  25916719.73400                  -4601259.86640  25916722.50040
  -4421156.87900  27564828.75800                  -3091964.16240  27564832.95340
   2916758.18700  26278225.76600                   2352802.08140  26278228.54340
   7827744.58100  25595735.13300                   6154211.85940  25595737.24240
 96  9  4  3 55 30.0160000  0  6  4 14 18 19 22 29
   6760411.35200  29568202.46900                   4044494.63540  29568207.22640
  17173304.25800  26417117.09400                  13393408.62540  26417121.23040
  -5991702.08700  25914738.42200                  -4609371.65440  25914741.12940
  -4444395.44600  27560406.21100                  -3110072.09940  27560410.34840
   3013975.71700  26296725.82800                   2428555.99240  26296728.55840
   7892349.13600  25608028.98400                   6204553.06940  25608031.12940
 96  9  4  3 56  0.0160000  0  6  4 14 18 19 22 29
   6841097.45600  29583556.64800                   4107366.88240  29583560.35140
  17303662.68600  26441923.28100                  13494986.62140  26441926.96140
  -6001977.02200  25912783.32000                  -4617378.08340  25912786.25040
  -4467473.47600  27556014.68700                  -3128054.93340  27556019.14140
   3111650.80800  26315312.34400                   2504666.46440  26315315.63740
   7957183.84600  25620366.53100                   6255073.62240  25620368.67640
 96  9  4  3 56 30.0160000  0  6  4 14 18 19 22 29
   6922182.71200  29598987.46900                   4170550.11740  29598990.83240
  17434378.62400  26466797.88300                  13596843.17940  26466801.72640
  -6012046.39500  25910867.31200                  -4625224.33540  25910870.07840
  -4490338.74400  27551663.39800                  -3145871.98640  27551667.65240
   3209852.39000  26334000.19500                   2581187.17840  26334003.20740
   8022296.90300  25632757.39100                   6305811.07040  25632759.48840
 96  9  4  3 57  0.0160000  0  6  4 14 18 19 22 29
   7003710.56300  29614501.39100                   4234078.30340  29614503.99240
  17565510.97500  26491751.64100                  13699024.22840  26491755.54340
  -6021888.29400  25908994.22600                  -4632893.33340  25908997.19140
  -4512938.87900  27547362.53900                  -3163482.43340  27547366.65240
   3308626.85100  26352796.12500                   2658154.29740  26352799.11340
   8087746.60300  25645211.55500                   6356810.84140  25645213.92240
 96  9  4  3 57 30.0160000  0  6  4 14 18 19 22 29
   7085551.76600  29630075.75000                   4297850.59040  29630079.26640
  17696956.99300  26516764.69500                  13801449.68440  26516768.72640
  -6031608.60100  25907144.86700                  -4640467.58140  25907147.80840
  -4535390.17800  27543090.53100                  -3180976.90740  27543094.63340
   3407880.54700  26371683.39100                   2735494.84840  26371686.53140
   8153433.71100  25657711.59400                   6407995.60040  25657713.97340
 96  9  4  3 58  0.0160000  0  6  4 14 18 19 22 29
   7167732.54900  29645713.36700                   4361887.47340  29645720.32040
  17828775.23400  26541849.48400                  13904165.18840  26541853.44540
  -6041127.03000  25905332.88300                  -4647884.52240  25905335.64840
  -4557676.93400  27538849.32000                  -3198343.17140  27538853.38740
   3507652.43900  26390669.55500                   2813239.18440  26390672.36740
   8219394.79500  25670263.41400                   6459393.85040  25670265.61740
 96  9  4  3 58 30.0160000  0  6  4 14 18 19 22 29
   7250280.78800  29661420.96900                   4426210.85040  29661426.74640
  17961016.66000  26567014.00800                  14007210.44240  26567017.46540
  -6050375.07300  25903573.77300                  -4655090.78840  25903576.69140
  -4579772.96500  27534644.52300                  -3215560.80140  27534649.24640
   3607967.91600  26409758.55500                   2891407.09440  26409761.74240
   8285680.95800  25682877.42200                   6511045.40240  25682879.54340
 96  9  4  3 59  0.0160000  0  6  4 14 18 19 22 29
   7333138.53400  29677189.72600                   4490775.28440  29677194.83640
  18093633.60800  26592249.77300                  14110548.31740  26592253.71140
  -6059404.17000  25901855.21100                  -4662126.42840  25901857.90640
  -4601723.38200  27530467.62500                  -3232664.98440  27530471.84440
   3708755.49300  26428937.80500                   2969942.87340  26428940.84040
   8352256.84500  25695546.35100                   6562922.71640  25695548.46140
 96  9  4  3 59 30.0160000  0  6  4 14 18 19 22 29
   7416355.96200  29693024.78100                   4555619.95040  29693028.42640
  18226635.59800  26617559.38300                  14214186.21440  26617563.23840
  -6068170.35900  25900187.15600                  -4668957.20940  25900189.98040
  -4623504.03700  27526323.03900                  -3249636.87940  27526326.93040
   3810029.71400  26448209.43700                   3048857.85340  26448212.51940
   8419159.40300  25708277.50800                   6615054.57840  25708279.67640
 96  9  4  4  0  0.0160000  0  6  4 14 18 19 22 29
   7499911.09500  29708924.03100                   4620727.82740  29708929.03540
  18359977.65100  26642933.89100                  14318089.11140  26642937.37140
  -6076709.04500  25898562.00000                  -4675610.71840  25898564.82440
  -4645148.20200  27522204.12500                  -3266502.42940  27522208.42640
   3911746.77700  26467565.53900                   3128117.91140  26467568.76240
   8486353.81800  25721064.25000                   6667413.86240  25721066.30140
 96  9  4  4  0 30.0160000  0  7  3  4 14 18 19 22 29
    -14619.10010  29731674.44500
   7583845.09500  29724897.30500                   4686130.90540  29724897.52740
  18493676.30900  26668375.46900                  14422269.87040  26668379.31240
  -6085008.33100  25896982.67200                  -4682077.68340  25896985.47340
  -4666595.03600  27518122.89100                  -3283214.19940  27518126.82840
   4013926.59600  26487009.55500                   3207738.54740  26487012.43740
   8553877.00000  25733913.49200                   6720029.32640  25733915.68340
 96  9  4  4  1  0.0160000  0  7  3  4 14 18 19 22 29
    -40351.77900  29726777.11700
   7668146.16400  29740939.82800                   4751820.08540  29740944.29340
  18627704.19900  26693880.32000                  14526707.18540  26693884.46940
  -6093100.91800  25895442.80500                  -4688383.57440  25895445.48840
  -4687849.57300  27514078.17200                  -3299776.13540  27514082.75440
   4116576.05400  26506542.96900                   3287725.14940  26506546.13340
   8621700.44200  25746819.57800                   6772878.76640  25746821.85140
 96  9  4  4  1 30.0160000  0  7  3  4 14 18 19 22 29
    -65932.20700  29721910.01600                         0.17550  29721913.70740
   7752838.93000  29757055.65600                   4817814.18940  29757059.71140
  18762088.21400  26719452.60100                  14631421.99540  26719456.42240
  -6100944.98300  25893950.27300                  -4694495.82640  25893953.00440
  -4708888.76000  27510074.25800                  -3316170.27240  27510078.65240
   4219753.39300  26526177.46100                   3368123.08340  26526180.64840
   8689829.17700  25759784.21900                   6825966.09640  25759786.30540
 96  9  4  4  2  0.0160000  0  7  3  4 14 18 19 22 29
    -91370.94500  29717068.27300                    -19822.18340  29717071.98840
   7837880.27800  29773239.24200                   4884080.28840  29773246.31240
  18896807.37800  26745089.11700                  14736397.95340  26745093.11340
  -6108568.31500  25892499.40600                  -4700436.06640  25892502.18340
  -4729740.85900  27506106.14100                  -3332418.62740  27506110.18340
   4323441.50300  26545908.56200                   3448919.01740  26545911.77340
   8758219.86400  25772798.43700                   6879257.53840  25772800.74640
 96  9  4  4  2 30.0160000  0  7  3  4 14 18 19 22 29
   -116641.04000  29712259.83600                    -39513.12740  29712261.75840
   7923297.18100  29789493.23400                   4950638.82340  29789496.84440
  19031890.35800  26770794.35900                  14841657.41140  26770798.32040
  -6115934.62800  25891097.68000                  -4706176.03740  25891100.37540
  -4750368.09100  27502181.09400                  -3348491.75640  27502184.90240
   4427676.97900  26565744.05500                   3530141.47240  26565746.82040
   8826924.24600  25785872.62500                   6932793.42240  25785874.75840
 96  9  4  4  3  0.0160000  0  7  3  4 14 18 19 22 29
   -141785.01800  29707474.18700                    -59105.82040  29707478.01940
   8009072.29800  29805816.82000                   5017476.52440  29805817.00840
  19167325.04300  26796566.83600                  14947190.92040  26796570.97340
  -6123062.12400  25889741.18700                  -4711729.91240  25889744.03540
  -4770804.34700  27498292.26600                  -3364416.07040  27498296.29740
   4532458.12700  26585683.28100                   3611789.12340  26585685.93040
   8895924.94900  25799002.60100                   6986560.20940  25799004.85140
 96  9  4  4  3 30.0160000  0  6  3 14 18 19 22 29
   -166821.74200  29702711.10900                    -78614.98240  29702714.94140
  19303111.98200  26822406.06200                  15052998.92340  26822410.03540
  -6129951.27600  25888430.45300                  -4717098.07640  25888433.35940
  -4791045.42800  27494440.63300                  -3380188.30440  27494444.98040
   4637751.99700  26605719.87500                   3693836.29240  26605722.80540
   8965226.58400  25812190.50800                   7040561.48140  25812192.69940
 96  9  4  4  4  0.0160000  0  6  3 14 18 19 22 29
   -191763.94100  29697964.21900                    -98050.45040  29697968.48440
  19439262.62700  26848314.89800                  15159090.32340  26848318.71940
  -6136592.12000  25887166.44500                  -4722272.75140  25887169.25840
  -4811056.87500  27490632.50800                  -3395781.60340  27490637.00840
   4743543.86500  26625851.53100                   3776271.51240  26625854.74240
   9034858.83100  25825441.35100                   7094820.37040  25825443.39140
 96  9  4  4  4 30.0160000  0  6  3 14 18 19 22 29
   -216649.95300  29693228.79700                   -117442.17840  29693232.71140
  19575745.99200  26874286.79700                  15265440.98540  26874290.40640
  -6143019.78700  25885943.34400                  -4727281.31440  25885946.13340
  -4830866.24600  27486862.85100                  -3411217.44240  27486866.96540
   4849788.32500  26646069.39800                   3859059.41640  26646072.52740
   9104780.91400  25838747.06200                   7149305.10740  25838749.18340
 96  9  4  4  5  0.0160000  0  6  3 14 18 19 22 29
   -241476.76000  29688503.59400                   -136787.70440  29688508.39840
  19712565.79000  26900322.66400                  15372053.80240  26900326.59040
  -6149234.77400  25884760.77300                  -4732124.15440  25884763.41040
  -4850481.51900  27483130.04700                  -3426502.02940  27483134.62940
   4956479.36800  26666371.92200                   3942195.29340  26666374.47640
   9174967.12700  25852102.85100                   7203995.66140  25852105.12540
 96  9  4  4  5 30.0160000  0  6  3 14 18 19 22 29
   -266181.24800  29683804.51600                   -156037.91540  29683810.18740
  19849755.67800  26926429.38300                  15478955.00740  26926433.44940
  -6155187.55400  25883628.33600                  -4736762.67540  25883631.00840
  -4869854.37900  27479444.02300                  -3441597.71740  27479448.31240
   5063652.93400  26686766.07800                   4025707.15440  26686768.73840
   9245468.30500  25865518.60100                   7258931.64940  25865520.88740
 96  9  4  4  6  0.0160000  0  6  3 14 18 19 22 29
   -290792.50300  29679120.08600                   -175215.52140  29679122.59440
  19987265.67400  26952596.50800                  15586105.63940  26952600.04740
  -6160913.81600  25882538.47600                  -4741224.69140  25882541.23040
  -4889033.93200  27475793.78100                  -3456542.78540  27475798.21140
   5171282.23500  26707247.25800                   4109574.15240  26707250.30540
   9316254.44000  25878988.82800                   7314089.67440  25878991.13740
 96  9  4  4  6 30.0160000  0  6  3 14 18 19 22 29
   -315318.60600  29674452.89800                   -194326.70040  29674455.54740
  20125055.91000  26978817.21900                  15693474.64740  26978821.03940
  -6166451.38400  25881484.75800                  -4745539.66840  25881487.40640
  -4908073.91300  27472170.56200                  -3471379.09440  27472174.47640
   5279343.68900  26727810.75800                   4193777.88340  26727813.91040
   9387307.82400  25892510.04700                   7369455.94340  25892512.43740
 96  9  4  4  7  0.0160000  0  6  3 14 18 19 22 29
   -339648.24100  29669822.64100                   -213284.89340  29669825.16040
  20263209.72500  27005106.75000                  15801126.95640  27005110.92240
  -6171689.21300  25880488.25000                  -4749621.08640  25880490.78140
  -4926871.66500  27468592.99200                  -3486026.64740  27468596.85940
   5387942.25200  26748476.29700                   4278400.14040  26748479.30840
   9458756.08300  25906106.14100                   7425129.90940  25906108.30840
 96  9  4  4  7 30.0170000  0  6  3 14 18 19 22 29
   -363808.13300  29665225.54400                   -232110.76340  29665230.14940
  20401682.76600  27031457.52800                  15909028.02840  27031461.04440
  -6176654.63500  25879543.00500                  -4753490.23240  25879545.72440
  -4945462.89500  27465055.66900                  -3500513.27640  27465059.74740
   5497024.27200  26769234.13000                   4363399.11440  26769237.04840
   9530584.12500  25919774.78600                   7481099.80940  25919776.95440
 96  9  4  4  8  0.0170000  0  6  3 14 18 19 22 29
   -387829.66800  29660654.67700                   -250828.81640  29660657.61840
  20540436.47100  27057861.20800                  16017147.79040  27057864.86440
  -6181369.88600  25878645.77800                  -4757164.45140  25878648.56740
  -4963884.69500  27461549.54400                  -3514867.88440  27461553.96240
   5606537.88200  26790073.68400                   4448734.39340  26790076.72040
   9602751.99400  25933507.90300                   7537334.50740  25933510.21240
 96  9  4  4  8 30.0170000  0  6  3 14 18 19 22 29
   -411679.05700  29656116.04400                   -269412.72240  29656120.40340
  20679517.41100  27084327.84900                  16125522.54040  27084331.80940
  -6185789.22000  25877804.92700                  -4760608.08240  25877807.64540
  -4982108.78700  27458081.66900                  -3529068.42840  27458085.66540
   5716518.83500  26811002.04400                   4534433.84040  26811005.02040
   9675280.03800  25947309.09100                   7593849.86740  25947311.44640
 96  9  4  4  9  0.0170000  0  6  3 14 18 19 22 29
   -435401.56200  29651602.20000                   -287897.78640  29651605.72740
  20818900.90600  27110851.30200                  16234133.05940  27110855.29840
  -6189930.47500  25877016.48900                  -4763835.02040  25877019.26640
  -5000158.15500  27454647.48100                  -3543132.83040  27454651.46640
   5826935.88300  26832014.38000                   4620473.09840  26832017.11040
   9748117.39700  25961169.75500                   7650606.25240  25961171.98140
 96  9  4  4  9 30.0170000  0  6  3 14 18 19 22 29
   -459039.42500  29647103.17700                   -306316.89440  29647107.91140
  20958564.42900  27137428.10600                  16342961.77840  27137432.04440
  -6193835.16700  25876273.72400                  -4766877.62840  25876276.45440
  -5018069.36000  27451238.99700                  -3557089.57240  27451243.08740
   5937755.12900  26853102.59100                   4706825.75440  26853105.55640
   9821208.06000  25975078.40300                   7707560.01240  25975080.48940
 96  9  4  4 10  0.0170000  0  6  3 14 18 19 22 29
   -482505.98200  29642637.92700                   -324602.48940  29642640.18840
  21098595.94700  27164075.65300                  16452077.23440  27164079.61440
  -6197427.11100  25875590.20000                  -4769676.53840  25875592.88440
  -5035747.71700  27447874.80200                  -3570864.85940  27447878.48140
   6049100.84100  26874290.54400                   4793588.64540  26874293.39140
   9894629.97200  25989050.11400                   7764771.89340  25989052.47040
 96  9  4  4 10 30.0170000  0  6  3 14 18 19 22 29
   -505844.34600  29638197.52000                   -342788.17740  29638201.72740
  21238939.32500  27190782.25500                  16561435.71840  27190785.80640
  -6200762.15500  25874955.10600                  -4772275.26540  25874957.77840
  -5053236.57800  27444546.91100                  -3584492.49340  27444550.64940
   6160925.06600  26895570.17700                   4880724.40640  26895572.91940
   9968326.89300  26003074.18400                   7822198.05940  26003076.38840
 96  9  4  4 11  0.0170000  0  6  3 14 18 19 22 29
   -529021.64200  29633786.77000                   -360848.37940  29633789.78240
  21379605.66600  27217549.34100                  16671045.85340  27217553.31340
  -6203828.51400  25874371.99700                  -4774664.62840  25874374.70440
  -5070500.75400  27441262.12200                  -3597945.05740  27441265.75540
   6273241.13600  26916943.34100                   4968243.42340  26916946.18840
  10042335.40100  26017157.63800                   7879867.02740  26017159.70040
 96  9  4  4 11 30.0170000  0  6  3 14 18 19 22 29
   -552044.64400  29629405.45000                   -378788.38740  29629408.02840
  21520564.17400  27244373.87200                  16780883.63940  27244377.35240
  -6206654.80600  25873833.91900                  -4776866.92340  25873836.67340
  -5087558.52000  27438015.30200                  -3611236.76540  27438019.29840
   6386028.72400  26938406.13000                   5056129.85640  26938409.07140
  10116652.68500  26031299.83300                   7937776.59540  26031302.00140
 96  9  4  4 12  0.0170000  0  6  3 14 18 19 22 29
   -574934.27600  29625048.87200                   -396624.40240  29625054.77840
  21661782.62400  27271246.44200                  16890924.00240  27271250.02840
  -6209268.42500  25873336.55900                  -4778903.49540  25873339.33740
  -5104444.92900  27434801.42700                  -3624394.97740  27434805.01340
   6499240.94400  26959949.29400                   5144347.16840  26959952.27040
  10191249.60200  26045494.95800                   7995904.06440  26045497.19640
 96  9  4  4 12 30.0170000  0  6  3 14 18 19 22 29
   -597678.61800  29620721.27800                   -414347.25940  29620724.23140
  21803291.77900  27298174.85600                  17001190.87040  27298179.12240
  -6211649.24400  25872883.80900                  -4780758.66340  25872886.55240
  -5121129.31500  27431626.73900                  -3637395.75440  27431630.53640
   6612871.11600  26981572.95800                   5232890.16040  26981575.81740
  10266150.93700  26059748.15300                   8054268.74040  26059750.64940
 96  9  4  4 13  0.0170000  0  6  3 14 18 19 22 29
   -620277.35700  29616420.31700                   -431956.69040  29616422.47440
  21945089.22700  27325157.67700                  17111682.38540  27325161.76640
  -6213793.99400  25872475.66900                  -4782429.88340  25872478.45840
  -5137612.42900  27428490.65300                  -3650239.70340  27428494.49740
   6726933.47300  27003278.16100                   5321769.91840  27003280.95040
  10341373.09700  26074062.83300                   8112883.40540  26074065.07140
 96  9  4  4 13 30.0170000  0  6  3 14 18 19 22 29
   -642787.51600  29612137.12200                   -449497.02140  29612138.95040
  22087124.23800  27352186.40300                  17222359.01540  27352190.45840
  -6215747.16600  25872104.06700                  -4783951.82740  25872106.76340
  -5153956.66500  27425380.23100                  -3662975.44240  27425384.04040
   6841374.25100  27025055.68400                   5410944.55340  27025058.81340
  10416856.44100  26088426.56700                   8171701.59040  26088428.79440
 96  9  4  4 14  0.0170000  0  6  3 14 18 19 22 29
   -665086.27800  29607893.97400                   -466872.66340  29607899.17740
  22229519.41700  27379282.85600                  17333316.29640  27379286.75940
  -6217367.83000  25871795.38800                  -4785214.66540  25871798.13040
  -5170040.93700  27422319.20000                  -3675508.61240  27422323.02040
   6956312.48900  27046927.42700                   5500506.82440  27046930.26340
  10492719.63100  26102862.85600                   8230815.76440  26102865.10640
 96  9  4  4 14 30.0170000  0  6  3 14 18 19 22 29
   -687216.12600  29603682.88800                   -484116.73140  29603686.94240
  22372203.23600  27406434.73100                  17444498.48640  27406439.03240
  -6218693.67700  25871543.13800                  -4786247.78040  25871545.90340
  -5185921.43400  27419297.86400                  -3687882.97840  27419302.08340
   7071713.87000  27068887.59100                   5590429.98440  27068890.42740
  10568926.19800  26117364.65300                   8290197.50140  26117366.78640
 96  9  4  4 15  0.0170000  0  6  3 14 18 19 22 29
   -709185.50200  29599501.88800                   -501235.65240  29599506.23540
  22515133.77500  27433634.02000                  17555872.92140  27433637.80640
  -6219732.74900  25871345.54400                  -4787057.43640  25871348.14540
  -5201640.82100  27416306.43400                  -3700131.82240  27416309.93840
   7187547.02900  27090929.62200                   5680689.58640  27090932.96240
  10645443.14100  26131925.27800                   8349821.08740  26131927.21240
 96  9  4  4 15 30.0170000  0  6  3 14 18 19 22 29
   -730975.11000  29595355.91100                   -518214.55740  29595359.08740
  22658323.71400  27460881.85600                  17667449.50140  27460885.48940
  -6220462.35700  25871206.50500                  -4787625.94940  25871209.17740
  -5217171.83200  27413350.14500                  -3712233.86540  27413353.86040
   7303815.34800  27113055.20000                   5771288.28440  27113058.14140
  10722275.52700  26146545.92700                   8409690.47840  26146548.23540
 96  9  4  4 16  0.0170000  0  6  3 14 18 19 22 29
   -752574.01300  29591246.27000                   -535044.82840  29591249.66940
  22801778.03000  27488180.35600                  17779232.06940  27488184.02440
  -6220882.07400  25871126.15300                  -4787952.98940  25871128.98940
  -5232508.51800  27410432.04400                  -3724184.50240  27410435.80640
   7420520.58900  27135263.15300                   5862227.43540  27135266.34140
  10799421.98100  26161226.48900                   8469804.59340  26161228.61040
 96  9  4  4 16 30.0170000  0  6  3 14 18 19 22 29
   -773977.02400  29587173.24700                   -551722.47840  29587176.36440
  22945515.22200  27515532.83300                  17891235.06740  27515536.36040
  -6221000.04500  25871104.16900                  -4788044.90540  25871107.04040
  -5247629.49000  27407554.25500                  -3735967.03840  27407558.34540
   7537656.98800  27157553.41100                   5953502.55840  27157556.90340
  10876891.11100  26175968.40300                   8530170.14440  26175970.53640
 96  9  4  4 17  0.0170000  0  7  3 14 18 19 22 28 29
   -795206.41100  29583132.79400                   -568264.83640  29583135.95840
  23089533.03200  27542938.31700                  18003456.75140  27542941.48140
        97.39310  25871134.80900
  -5262541.81200  27404716.38800                  -3747586.98640  27404720.44240
   7655189.30600  27179919.20000                   6045086.19540  27179922.62240
                  29972672.09900
  10954660.90700  26190767.52800                   8590769.98140  26190769.82540
 96  9  4  4 17 30.0170000  0  7  3 14 18 19 22 28 29
   -816269.63800  29579124.36400                   -584677.75540  29579131.36440
  23233822.14800  27570395.07500                  18115889.81240  27570399.11840
       511.36200  25871213.28600                       151.93050  25871215.92340
  -5277252.66200  27401917.35600                  -3759049.94640  27401921.38840
   7773117.32500  27202360.20000                   6136978.15140  27202362.89540
     29002.67900  29978379.59900                     22600.07010  29978382.48100
  11032731.54100  26205623.83300                   8651604.24440  26205626.07140
 96  9  4  4 18  0.0170000  0  7  3 14 18 19 22 28 29
   -837145.79000  29575152.78600                   -600944.86740  29575155.24740
  23378410.60500  27597909.60600                  18228556.14240  27597913.67340
      1202.30500  25871344.80900                       690.34040  25871347.56340
  -5291759.87000  27399156.80900                  -3770354.22140  27399160.43140
   7891449.37400  27224877.77800                   6229184.94640  27224880.91940
     59468.80400  29984177.89500                     46339.92800  29984180.57100
  11111121.59900  26220541.06700                   8712687.40040  26220543.16540
 96  9  4  4 18 30.0170000  0  7  3 14 18 19 22 28 29
   -857898.58100  29571203.16900                   -617115.82940  29571208.74740
  23523214.01700  27625465.34900                  18341389.95440  27625469.14540
      2101.61900  25871515.88800                      1391.10740  25871518.55940
  -5306138.46300  27396420.41900                  -3781558.27440  27396423.91140
   8010117.35100  27247459.33300                   6321653.51540  27247462.43840
     90332.12700  29990050.14500                     70389.28100  29990053.46200
  11189771.30500  26235507.47400                   8773972.88740  26235509.65340
 96  9  4  4 19  0.0170000  0  7  3 14 18 19 22 28 29
   -878403.05200  29567300.72400                   -633093.33140  29567306.86440
  23668320.47000  27653077.94200                  18454459.92140  27653081.49340
      3322.25700  25871748.18400                      2342.26440  25871750.82140
  -5320302.60500  27393725.10600                  -3792595.21240  27393728.97440
   8129235.09800  27270127.02000                   6414472.53340  27270130.09140
    121698.72800  29996019.03600                     94830.81500  29996022.17700
  11268782.44900  26250542.84100                   8835540.00940  26250545.10240
 96  9  4  4 19 30.0170000  0  7  3 14 18 19 22 28 29
   -898695.83200  29563440.36400                   -648905.85840  29563444.87640
  23813684.47400  27680740.08300                  18567730.57440  27680744.07940
      4832.53400  25872035.49700                      3519.11140  25872038.20440
  -5334302.13200  27391061.02800                  -3803503.90040  27391064.84940
   8248772.94300  27292875.13800                   6507618.90940  27292878.07940
    153534.66300  30002077.80200                    119638.04000  30002080.59100
  11348114.34300  26265639.14500                   8897357.06740  26265641.18440
 96  9  4  4 20  0.0170000  0  7  3 14 18 19 22 28 29
   -918772.14600  29559618.41900                   -664549.70540  29559621.39540
  23959304.90900  27708450.56700                  18681201.03540  27708454.45840
      6631.63900  25872378.09900                      4921.01940  25872380.82940
  -5348142.24100  27388427.56700                  -3814288.35340  27388431.27040
   8368723.57600  27315700.48900                   6601086.93540  27315703.43140
    185836.64500  30008224.76300                    144808.45000  30008226.34900
  11427771.21300  26280797.24700                   8959427.35740  26280799.35640
 96  9  4  4 20 30.0170000  0  7  3 14 18 19 22 28 29
   -938645.65900  29555837.54400                   -680035.56540  29555839.60640
  24105144.49700  27736202.77800                  18794842.27040  27736206.80940
      8691.48100  25872769.84900                      6526.09740  25872772.52040
  -5361825.95300  27385823.59100                  -3824950.93140  27385827.35240
   8489079.79100  27338603.30900                   6694870.99940  27338606.12240
    218588.17800  30014456.61400                    170329.14900  30014460.01300
  11507745.92800  26296015.93400                   9021745.31540  26296018.18440
 96  9  4  4 21  0.0170000  0  7  3 14 18 19 22 28 29
   -958297.59300  29552097.50500                   -695348.70740  29552100.85640
  24251229.16700  27764001.46600                  18908674.48140  27764006.05940
     11053.14600  25873219.31700                      8366.36440  25873222.05940
  -5375314.68200  27383256.59100                  -3835461.57740  27383260.38840
   8609864.85500  27361587.80900                   6788989.23640  27361590.59940
    251819.38900  30020780.70000                    196223.63100  30020783.37600
  11588059.33800  26311299.12200                   9084327.18540  26311301.32540
 96  9  4  4 21 30.0170000  0  7  3 14 18 19 22 28 29
   -977762.05500  29548393.70000                   -710515.77440  29548399.60640
  24397534.99100  27791842.87200                  19022678.99840  27791846.96240
     13704.87100  25873723.80200                     10432.64840  25873726.57940
  -5388608.15500  27380726.44200                  -3845820.07940  27380730.15740
   8731054.20200  27384649.34900                   6883422.49940  27384652.37240
    285509.19200  30027192.05200                    222475.42600  30027194.23100
  11668697.24500  26326643.91900                   9147161.92040  26326646.18140
 96  9  4  4 22  0.0170000  0  7  3 14 18 19 22 28 29
   -997020.72900  29544728.91100                   -725522.53540  29544730.03640
  24544071.26400  27819727.79400                  19136863.11940  27819731.36840
     16657.62300  25874285.77000                     12733.49940  25874288.47740
  -5401670.27700  27378241.15300                  -3855998.30940  27378245.05640
   8852646.53200  27407786.80900                   6978169.76140  27407790.03240
    319672.36300  30033692.65300                    249096.09800  30033694.93400
  11749677.17500  26342054.01300                   9210263.16140  26342056.21640
 96  9  4  4 22 30.0170000  0  7  3 14 18 19 22 28 29
  -1016092.63100  29541098.98100                   -740383.73440  29541103.14140
  24690821.32600  27847653.47400                  19251213.80640  27847657.84540
     19919.68400  25874906.73100                     15275.37340  25874909.50940
  -5414505.87100  27375798.73900                  -3866000.02140  27375802.38440
   8974616.17400  27430997.27000                   7073211.04140  27431000.66940
    354295.27400  30040281.44200                    276075.01500  30040283.84900
  11830970.92600  26357523.85600                   9273608.93640  26357526.21240
 96  9  4  4 23  0.0170000  0  7  3 14 18 19 22 28 29
  -1034964.96500  29537507.83300                   -755089.47240  29537511.05640
  24837795.34400  27875621.51300                  19365739.02540  27875625.46240
     23502.80300  25875588.46600                     18067.41540  25875591.13840
  -5427114.66400  27373398.77000                  -3875825.01240  27373402.69640
   9096955.93200  27454278.02000                   7168540.72640  27454281.45440
    389375.92600  30046956.88800                    303410.62400  30046959.73100
  11912574.46800  26373052.13000                   9337196.10540  26373054.30940
 96  9  4  4 23 30.0170000  0  7  3 14 18 19 22 28 29
  -1053611.88600  29533959.46600                   -769619.49440  29533964.25940
  24985021.82400  27903638.47400                  19480460.93240  27903642.59940
     27405.49900  25876331.37200                     21108.48440  25876334.02040
  -5439495.56100  27371042.98100                  -3885472.40940  27371046.88440
   9219677.00500  27477631.03600                   7264167.53140  27477633.87240
    424930.87500  30053722.01300                    331115.77800  30053724.71200
  11994507.66400  26388643.65300                   9401040.14840  26388645.84540
 96  9  4  4 24  0.0170000  0  7  3 14 18 19 22 28 29
  -1072010.77900  29530458.69200                   -783956.25840  29530460.21640
  25132512.62800  27931704.50500                  19595388.83540  27931707.96240
     31624.96000  25877133.84100                     24396.38340  25877136.48940
  -5451666.20700  27368727.61400                  -3894955.98640  27368731.36440
   9342779.55800  27501057.47400                   7360091.59740  27501059.93440
    460964.19700  30060579.50500                    359193.73100  30060581.96200
  12076771.56000  26404297.92700                   9465141.88340  26404300.10640
 96  9  4  4 24 30.0170000  0  7  3 14 18 19 22 28 29
  -1090117.91100  29527012.63800                   -798065.65640  29527016.51640
  25280289.92800  27959825.62200                  19710539.98140  27959829.23140
     36188.14700  25878002.45800                     27952.11540  25878005.14140
  -5463622.23100  27366451.45000                  -3904272.32940  27366455.43440
   9466292.80300  27524560.61400                   7456335.68340  27524563.04040
    497500.17700  30067531.47400                    387663.35300  30067534.44200
  12159385.42900  26420018.95000                   9529516.32240  26420020.93140
 96  9  4  4 25  0.0180000  0  7  3 14 18 19 22 28 29
  -1107905.31400  29523628.06400                   -811926.00240  29523631.92040
  25428375.02100  27988004.79900                  19825930.94240  27988009.15840
     41094.94900  25878936.18900                     31775.60540  25878938.89640
  -5475355.64500  27364219.01700                  -3913415.21440  27364222.96740
   9590248.94500  27548148.95500                   7552924.88140  27548151.56840
    534562.72800  30074584.77500                    416543.29600  30074587.54100
  12242378.48100  26435811.83000                   9594186.23540  26435814.26740
 96  9  4  4 25 30.0180000  0  7  3 14 18 19 22 28 29
  -1125402.83200  29520297.93200                   -825560.40040  29520301.41240
  25576724.72700  28016235.41600                  19941528.11940  28016238.60340
     46322.71800  25879930.93900                     35849.19140  25879933.55340
  -5486896.70300  27362022.93900                  -3922408.22040  27362026.97140
   9714615.39300  27571815.32200                   7649833.79740  27571817.79540
    572137.65500  30081735.06400                    445822.48200  30081737.39200
  12325725.32900  26451672.22800                   9659131.82840  26451674.38540
 96  9  4  4 26  0.0180000  0  7  3 14 18 19 22 28 29
  -1142635.34400  29517017.76000                   -838988.28340  29517022.00240
  25725300.84000  28044508.15000                  20057301.73340  28044512.11140
     51869.10000  25880986.35300                     40171.05740  25880988.97840
  -5498250.20000  27359862.08000                  -3931255.05740  27359865.66640
   9839379.53100  27595556.65800                   7747052.60740  27595559.42440
    610210.84400  30088979.93200                    475489.90200  30088982.75600
  12409406.00700  26467596.01700                   9724337.54440  26467598.22140
 96  9  4  4 26 30.0180000  0  8  3 14 18 19 22 27 28 29
  -1159650.28800  29513780.88500                   -852246.63240  29513783.49840
  25874059.44200  28072816.07200                  20173217.50240  28072819.61140
     57711.69400  25882097.86100                     44723.73440  25882100.52140
  -5509430.75500  27357734.51700                  -3939967.14440  27357738.08040
   9964511.64300  27619369.40800                   7844558.13540  27619372.39640
    -20351.31610  30391081.11100
    648757.66100  30096315.53300                    505526.40200  30096317.27500
  12493394.52100  26483578.71300                   9789783.13840  26483580.77540
 96  9  4  4 27  0.0180000  0  8  3 14 18 19 22 27 28 29
  -1176469.36900  29510579.90800                   -865352.39640  29510584.66640
  26023001.13000  28101158.83000                  20289275.96740  28101162.56840
     63862.62800  25883268.65000                     49516.67740  25883271.40440
  -5520415.17300  27355644.25200                  -3948526.40440  27355647.76740
  10090018.17800  27643251.73600                   7942355.43840  27643254.73640
     -5974.07410  30384252.80700
    687789.99000  30103741.98600                    535941.25800  30103745.37300
  12577704.57000  26499622.32200                   9855479.27140  26499624.71340
 96  9  4  4 27 30.0180000  0  8  3 14 18 19 22 27 28 29
  -1193094.76400  29507417.18200                   -878307.26340  29507420.42840
  26172122.50900  28129535.58800                  20405474.44240  28129539.04540
     70332.43300  25884499.58800                     54558.09340  25884502.24840
  -5531192.95800  27353593.42400                  -3956924.64240  27353597.04540
  10215885.77400  27667202.77500                   8040434.06540  27667205.67040
    -27446.21610  30377443.32200
    727304.72600  30111262.57200                    566731.97700  30111265.25200
  12662338.90100  26515727.80700                   9921428.09740  26515730.06840
 96  9  4  4 28  0.0180000  0  8  3 14 18 19 22 27 28 29
  -1209494.30300  29504295.67400                   -891086.12140  29504299.81040
  26321458.00300  28157952.91600                  20521839.77140  28157956.57240
     77151.10800  25885797.70500                     59871.35640  25885800.38940
  -5541727.99400  27351588.43200                  -3965133.74040  27351592.00640
  10342134.26500  27691227.33800                   8138809.50640  27691230.13940
    -63153.66300  30370643.97800
    767322.12900  30118877.88500                    597914.36600  30118880.29500
  12747337.82500  26531902.33000                   9987661.02840  26531904.58040
 96  9  4  4 28 30.0180000  0  8  3 14 18 19 22 27 28 29
  -1225646.78200  29501222.78300                   -903672.40640  29501224.85740
  26471029.32600  28186415.55700                  20638388.84840  28186420.02140
     84325.36000  25887162.46300                     65461.69340  25887165.19340
  -5552025.65500  27349629.35300                  -3973157.86540  27349632.89240
  10468758.67600  27715323.62700                   8237477.87540  27715326.26440
    -98753.99500  30363870.66600                    -12936.33050  30363869.65840
    807849.23400  30126589.40000                    629493.96600  30126591.52900
  12832713.74800  26548148.93900                  10054187.72040  26548151.06040
 96  9  4  4 29  0.0180000  0  8  3 14 18 19 22 27 28 29
  -1241574.17200  29498191.85300                   -916083.30440  29498194.49040
  26620801.63000  28214916.67400                  20755094.53440  28214920.83440
     91820.92200  25888588.87700                     71302.39840  25888591.61940
  -5562132.04800  27347705.58000                  -3981032.94240  27347709.00240
  10595717.59900  27739482.65000                   8336406.89440  27739485.39240
   -134283.94500  30357108.13500
    848847.65700  30134390.74400                    661440.80900  30134394.47100
  12918424.74700  26564459.32200                  10120975.50440  26564461.71340
 96  9  4  4 29 30.0180000  0  8  3 14 18 19 22 27 28 29
  -1257271.82500  29495203.89200                   -928315.22040  29495206.54140
  26770759.16800  28243452.69700                  20871944.58140  28243456.64640
     99623.00400  25890073.51000                     77381.95740  25890076.28740
  -5572083.75300  27345811.89200                  -3988787.50140  27345815.43240
  10722989.11900  27763701.90000                   8435579.50440  27763704.92440
   -169785.01100  30350355.90800
    890297.07700  30142279.04100                    693739.06300  30142280.83000
  13004454.93300  26580830.51700                  10188012.01140  26580832.61540
 96  9  4  4 30  0.0180000  0  8  3 14 18 19 22 27 28 29
  -1272691.54100  29492270.53300                   -940330.64540  29492273.83840
  26920927.54000  28272028.94700                  20988958.87740  28272032.52140
    107767.50200  25891623.26000                     83728.33140  25891625.82640
  -5581851.13300  27343953.90000                  -3996398.41040  27343957.59240
  10850626.19200  27787990.15800                   8535036.95740  27787993.58040
   -205232.23500  30343607.92400
    932237.43500  30150259.11100                    726419.88400  30150262.13900
  13090822.47400  26597265.77500                  10255311.39140  26597268.06040
 96  9  4  4 30 30.0180000  0  8  3 14 18 19 22 27 28 29
  -1287802.29700  29489395.29100                   -952105.21340  29489399.27540
  27071309.04000  28300644.55700                  21106139.28540  28300648.91640
    116266.45700  25893240.94700                     90350.90640  25893243.49040
  -5591433.37900  27342130.18900                  -4003865.06840  27342133.52940
  10978648.49300  27812352.77500                   8634794.58440  27812355.26040
   -240629.72400  30336872.35300
    974681.69000  30158337.11100                    759493.37700  30158339.10300
  13177512.36900  26613762.11100                  10322861.95740  26613764.24440
 96  9  4  4 31  0.0180000  0  9  3 14 18 19 22 27 28 29 31
  -1302613.35800  29486575.89200                   -963646.23440  29486579.32640
  27221884.84500  28329298.82200                  21223471.06540  28329303.08840
    125098.20600  25894921.25200                     97232.80540  25894923.95940
  -5600835.85400  27340341.21300                  -4011191.64940  27340344.69340
  11107043.76100  27836784.81400                   8734842.84440  27836787.99040
   -275989.95300  30330142.22800
   1017614.14700  30166506.23600                    792947.28200  30166508.26700
  13264513.53000  26630317.60300                  10390655.06440  26630320.07640
    -34694.26110  30112954.13500
 96  9  4  4 31 30.0180000  0  9  3 14 18 19 22 27 28 29 31
  -1317098.90000  29483819.31400                   -974933.63140  29483821.28340
  27372674.82600  28357993.68200                  21340969.73240  28357997.94740
    134266.55600  25896665.90800                    104376.99040  25896668.63940
  -5610037.44900  27338589.66600                  -4018361.70840  27338593.08840
  11235821.33400  27861290.51700                   8835189.00740  27861293.92840
   -311287.26000  30323427.85300                     -8245.97250  30323433.50240
   1061051.43300  30174771.56400                    826794.53900  30174774.37300
  13351848.77600  26646937.10300                  10458708.49640  26646939.22440
    -79958.80600  30104337.78300
